<?xml version="1.0" encoding="UTF-8" standalone="no" ?>
<gpx xmlns="http://www.topografix.com/GPX/1/1" xmlns:xsi="http://www.w3.org/2001/XMLSchema-instance" xsi:schemaLocation="http://www.topografix.com/GPX/1/1 http://www.topografix.com/GPX/1/1/gpx.xsd" version="1.1" creator="VisuGPX - https://www.visugpx.com">
  <metadata>
    <name>Saint-Jurs</name>
    <desc><![CDATA[Entre Moustiers-Sainte-Marie et Saint-Jurs une petite randonnée avec des paysages changeants et de beaux points de vue. 
Un aller retour pour aller voir le ravin de Balène et le Colostre. Pas de grandes difficultés.
---
Un passage dans une zone de tir à l'arc [TA], attention si en activité.
---
Un aller retour au sommet du Castillon peut être ajouté en fin de randonnée. Nous y avons renoncé pour cause de grosse chaleur !!]]></desc>
  </metadata>
  <wpt lat="43.88943" lon="6.19738">
    <ele>879.7</ele>
    <name><![CDATA[TA]]></name>
    <type><![CDATA[__]]></type>
  </wpt>
  <wpt lat="43.88627" lon="6.2172">
    <ele>1010.7</ele>
    <name><![CDATA[Point de vue]]></name>
    <type><![CDATA[vue]]></type>
  </wpt>
  <wpt lat="43.88774" lon="6.22029">
    <ele>1021.3</ele>
    <name><![CDATA[Attention à droite]]></name>
    <type><![CDATA[dirRight]]></type>
  </wpt>
  <trk>
    <name><![CDATA[Saint-Jurs_1]]></name>
    <extensions>
      <line xmlns="http://www.topografix.com/GPX/gpx_style/0/2">
        <color>0000FF</color>
        <opacity>1</opacity>
        <width>4</width>
      </line>
    </extensions>
    <trkseg>
      <trkpt lat="43.87304" lon="6.20148">
        <ele>889.4</ele>
        <time>2026-08-23T07:59:49.621Z</time>
      </trkpt>
      <trkpt lat="43.87301" lon="6.20149">
        <ele>888.8</ele>
        <time>2026-08-23T08:02:40.622Z</time>
      </trkpt>
      <trkpt lat="43.87298" lon="6.20143">
        <ele>888.5</ele>
        <time>2026-08-23T08:02:46.127Z</time>
      </trkpt>
      <trkpt lat="43.87295" lon="6.20137">
        <ele>888.2</ele>
        <time>2026-08-23T08:02:51.633Z</time>
      </trkpt>
      <trkpt lat="43.87292" lon="6.2013">
        <ele>887.9</ele>
        <time>2026-08-23T08:02:56.860Z</time>
      </trkpt>
      <trkpt lat="43.87289" lon="6.20122">
        <ele>887.6</ele>
        <time>2026-08-23T08:03:02.649Z</time>
      </trkpt>
      <trkpt lat="43.87286" lon="6.20116">
        <ele>887.3</ele>
        <time>2026-08-23T08:03:07.381Z</time>
      </trkpt>
      <trkpt lat="43.87283" lon="6.20109">
        <ele>887.1</ele>
        <time>2026-08-23T08:03:12.660Z</time>
      </trkpt>
      <trkpt lat="43.8728" lon="6.20102">
        <ele>887</ele>
        <time>2026-08-23T08:03:17.886Z</time>
      </trkpt>
      <trkpt lat="43.87276" lon="6.20095">
        <ele>887</ele>
        <time>2026-08-23T08:03:23.620Z</time>
      </trkpt>
      <trkpt lat="43.87273" lon="6.20089">
        <ele>887.1</ele>
        <time>2026-08-23T08:03:28.338Z</time>
      </trkpt>
      <trkpt lat="43.87269" lon="6.20083">
        <ele>887.1</ele>
        <time>2026-08-23T08:03:33.620Z</time>
      </trkpt>
      <trkpt lat="43.8727" lon="6.20084">
        <ele>887.1</ele>
        <time>2026-08-23T08:03:43.620Z</time>
      </trkpt>
      <trkpt lat="43.87273" lon="6.20088">
        <ele>887.1</ele>
        <time>2026-08-23T08:03:53.620Z</time>
      </trkpt>
      <trkpt lat="43.87272" lon="6.20086">
        <ele>887.2</ele>
        <time>2026-08-23T08:04:14.623Z</time>
      </trkpt>
      <trkpt lat="43.87266" lon="6.20079">
        <ele>886.9</ele>
        <time>2026-08-23T08:04:20.121Z</time>
      </trkpt>
      <trkpt lat="43.8726" lon="6.20072">
        <ele>886.5</ele>
        <time>2026-08-23T08:04:25.620Z</time>
      </trkpt>
      <trkpt lat="43.87256" lon="6.20066">
        <ele>886.3</ele>
        <time>2026-08-23T08:04:30.365Z</time>
      </trkpt>
      <trkpt lat="43.87251" lon="6.2006">
        <ele>885.9</ele>
        <time>2026-08-23T08:04:35.691Z</time>
      </trkpt>
      <trkpt lat="43.87247" lon="6.20055">
        <ele>885.9</ele>
        <time>2026-08-23T08:04:40.909Z</time>
      </trkpt>
      <trkpt lat="43.87243" lon="6.20049">
        <ele>886</ele>
        <time>2026-08-23T08:04:46.620Z</time>
      </trkpt>
      <trkpt lat="43.87239" lon="6.20043">
        <ele>886.1</ele>
        <time>2026-08-23T08:04:51.427Z</time>
      </trkpt>
      <trkpt lat="43.87235" lon="6.20036">
        <ele>886.2</ele>
        <time>2026-08-23T08:04:56.683Z</time>
      </trkpt>
      <trkpt lat="43.8723" lon="6.2003">
        <ele>886.2</ele>
        <time>2026-08-23T08:05:02.181Z</time>
      </trkpt>
      <trkpt lat="43.87225" lon="6.20024">
        <ele>886.1</ele>
        <time>2026-08-23T08:05:07.681Z</time>
      </trkpt>
      <trkpt lat="43.87221" lon="6.20018">
        <ele>885.9</ele>
        <time>2026-08-23T08:05:12.640Z</time>
      </trkpt>
      <trkpt lat="43.87216" lon="6.20011">
        <ele>885.3</ele>
        <time>2026-08-23T08:05:18.620Z</time>
      </trkpt>
      <trkpt lat="43.87212" lon="6.20006">
        <ele>884.9</ele>
        <time>2026-08-23T08:05:23.631Z</time>
      </trkpt>
      <trkpt lat="43.87208" lon="6.20001">
        <ele>884.5</ele>
        <time>2026-08-23T08:05:28.643Z</time>
      </trkpt>
      <trkpt lat="43.87204" lon="6.19996">
        <ele>883.8</ele>
        <time>2026-08-23T08:05:33.313Z</time>
      </trkpt>
      <trkpt lat="43.87199" lon="6.19991">
        <ele>883.1</ele>
        <time>2026-08-23T08:05:38.659Z</time>
      </trkpt>
      <trkpt lat="43.87196" lon="6.19983">
        <ele>882.5</ele>
        <time>2026-08-23T08:05:43.977Z</time>
      </trkpt>
      <trkpt lat="43.87192" lon="6.19975">
        <ele>881.8</ele>
        <time>2026-08-23T08:05:49.720Z</time>
      </trkpt>
      <trkpt lat="43.87191" lon="6.19967">
        <ele>881.3</ele>
        <time>2026-08-23T08:05:55.073Z</time>
      </trkpt>
      <trkpt lat="43.87189" lon="6.19959">
        <ele>880.5</ele>
        <time>2026-08-23T08:06:00.657Z</time>
      </trkpt>
      <trkpt lat="43.87189" lon="6.19947">
        <ele>879.6</ele>
        <time>2026-08-23T08:06:11.651Z</time>
      </trkpt>
      <trkpt lat="43.87193" lon="6.19938">
        <ele>879.4</ele>
        <time>2026-08-23T08:06:17.281Z</time>
      </trkpt>
      <trkpt lat="43.87196" lon="6.19929">
        <ele>879.1</ele>
        <time>2026-08-23T08:06:22.561Z</time>
      </trkpt>
      <trkpt lat="43.87199" lon="6.19922">
        <ele>878.9</ele>
        <time>2026-08-23T08:06:27.352Z</time>
      </trkpt>
      <trkpt lat="43.87202" lon="6.19914">
        <ele>878.6</ele>
        <time>2026-08-23T08:06:32.659Z</time>
      </trkpt>
      <trkpt lat="43.87206" lon="6.19907">
        <ele>878.6</ele>
        <time>2026-08-23T08:06:38.117Z</time>
      </trkpt>
      <trkpt lat="43.87209" lon="6.19899">
        <ele>878.3</ele>
        <time>2026-08-23T08:06:43.628Z</time>
      </trkpt>
      <trkpt lat="43.87213" lon="6.19893">
        <ele>878.3</ele>
        <time>2026-08-23T08:06:54.620Z</time>
      </trkpt>
      <trkpt lat="43.87221" lon="6.19889">
        <ele>878.9</ele>
        <time>2026-08-23T08:07:04.620Z</time>
      </trkpt>
      <trkpt lat="43.87226" lon="6.19882">
        <ele>878.8</ele>
        <time>2026-08-23T08:07:10.397Z</time>
      </trkpt>
      <trkpt lat="43.8723" lon="6.19875">
        <ele>878.6</ele>
        <time>2026-08-23T08:07:15.634Z</time>
      </trkpt>
      <trkpt lat="43.87234" lon="6.19868">
        <ele>878.3</ele>
        <time>2026-08-23T08:07:25.642Z</time>
      </trkpt>
      <trkpt lat="43.87238" lon="6.19862">
        <ele>878.2</ele>
        <time>2026-08-23T08:07:40.681Z</time>
      </trkpt>
      <trkpt lat="43.87244" lon="6.19858">
        <ele>878.3</ele>
        <time>2026-08-23T08:07:46.394Z</time>
      </trkpt>
      <trkpt lat="43.87249" lon="6.19853">
        <ele>878.3</ele>
        <time>2026-08-23T08:07:51.684Z</time>
      </trkpt>
      <trkpt lat="43.87253" lon="6.19848">
        <ele>878.3</ele>
        <time>2026-08-23T08:07:57.529Z</time>
      </trkpt>
      <trkpt lat="43.87256" lon="6.19843">
        <ele>878.1</ele>
        <time>2026-08-23T08:08:02.620Z</time>
      </trkpt>
      <trkpt lat="43.87259" lon="6.19842">
        <ele>878.3</ele>
        <time>2026-08-23T08:08:12.620Z</time>
      </trkpt>
      <trkpt lat="43.87262" lon="6.19836">
        <ele>878.1</ele>
        <time>2026-08-23T08:08:25.620Z</time>
      </trkpt>
      <trkpt lat="43.87264" lon="6.19829">
        <ele>877.7</ele>
        <time>2026-08-23T08:08:30.326Z</time>
      </trkpt>
      <trkpt lat="43.87266" lon="6.19821">
        <ele>877.3</ele>
        <time>2026-08-23T08:08:35.620Z</time>
      </trkpt>
      <trkpt lat="43.87269" lon="6.19814">
        <ele>877</ele>
        <time>2026-08-23T08:08:40.620Z</time>
      </trkpt>
      <trkpt lat="43.87272" lon="6.19807">
        <ele>876.7</ele>
        <time>2026-08-23T08:08:45.620Z</time>
      </trkpt>
      <trkpt lat="43.87273" lon="6.198">
        <ele>876.3</ele>
        <time>2026-08-23T08:09:02.678Z</time>
      </trkpt>
      <trkpt lat="43.87272" lon="6.19791">
        <ele>875.5</ele>
        <time>2026-08-23T08:09:07.893Z</time>
      </trkpt>
      <trkpt lat="43.87271" lon="6.19781">
        <ele>874.7</ele>
        <time>2026-08-23T08:09:13.676Z</time>
      </trkpt>
      <trkpt lat="43.87271" lon="6.19773">
        <ele>874.2</ele>
        <time>2026-08-23T08:09:18.853Z</time>
      </trkpt>
      <trkpt lat="43.87271" lon="6.19764">
        <ele>873.5</ele>
        <time>2026-08-23T08:09:24.678Z</time>
      </trkpt>
      <trkpt lat="43.8727" lon="6.19756">
        <ele>872.9</ele>
        <time>2026-08-23T08:09:35.680Z</time>
      </trkpt>
      <trkpt lat="43.87269" lon="6.19754">
        <ele>872.7</ele>
        <time>2026-08-23T08:10:24.627Z</time>
      </trkpt>
      <trkpt lat="43.87268" lon="6.19747">
        <ele>872.1</ele>
        <time>2026-08-23T08:10:29.661Z</time>
      </trkpt>
      <trkpt lat="43.87266" lon="6.19739">
        <ele>871.5</ele>
        <time>2026-08-23T08:10:35.635Z</time>
      </trkpt>
      <trkpt lat="43.87266" lon="6.1973">
        <ele>871</ele>
        <time>2026-08-23T08:10:40.846Z</time>
      </trkpt>
      <trkpt lat="43.87266" lon="6.1972">
        <ele>870.4</ele>
        <time>2026-08-23T08:10:46.637Z</time>
      </trkpt>
      <trkpt lat="43.87266" lon="6.19712">
        <ele>869.8</ele>
        <time>2026-08-23T08:10:52.138Z</time>
      </trkpt>
      <trkpt lat="43.87266" lon="6.19704">
        <ele>869.3</ele>
        <time>2026-08-23T08:10:57.640Z</time>
      </trkpt>
      <trkpt lat="43.87271" lon="6.19702">
        <ele>869.3</ele>
        <time>2026-08-23T08:11:02.643Z</time>
      </trkpt>
      <trkpt lat="43.87276" lon="6.197">
        <ele>869.3</ele>
        <time>2026-08-23T08:11:07.646Z</time>
      </trkpt>
      <trkpt lat="43.87282" lon="6.19702">
        <ele>869.8</ele>
        <time>2026-08-23T08:11:13.139Z</time>
      </trkpt>
      <trkpt lat="43.87288" lon="6.19704">
        <ele>870.3</ele>
        <time>2026-08-23T08:11:18.633Z</time>
      </trkpt>
      <trkpt lat="43.87294" lon="6.19703">
        <ele>870.6</ele>
        <time>2026-08-23T08:11:24.074Z</time>
      </trkpt>
      <trkpt lat="43.873" lon="6.19701">
        <ele>870.9</ele>
        <time>2026-08-23T08:11:29.630Z</time>
      </trkpt>
      <trkpt lat="43.87306" lon="6.19701">
        <ele>871.2</ele>
        <time>2026-08-23T08:11:35.111Z</time>
      </trkpt>
      <trkpt lat="43.87312" lon="6.197">
        <ele>871.2</ele>
        <time>2026-08-23T08:11:40.633Z</time>
      </trkpt>
      <trkpt lat="43.87319" lon="6.19699">
        <ele>871.2</ele>
        <time>2026-08-23T08:11:46.523Z</time>
      </trkpt>
      <trkpt lat="43.87325" lon="6.19698">
        <ele>871.2</ele>
        <time>2026-08-23T08:11:51.582Z</time>
      </trkpt>
      <trkpt lat="43.87331" lon="6.19697">
        <ele>871.2</ele>
        <time>2026-08-23T08:11:56.966Z</time>
      </trkpt>
      <trkpt lat="43.87336" lon="6.19695">
        <ele>871.1</ele>
        <time>2026-08-23T08:12:01.603Z</time>
      </trkpt>
      <trkpt lat="43.87342" lon="6.19694">
        <ele>871.3</ele>
        <time>2026-08-23T08:12:06.558Z</time>
      </trkpt>
      <trkpt lat="43.87348" lon="6.19692">
        <ele>871.4</ele>
        <time>2026-08-23T08:12:11.619Z</time>
      </trkpt>
      <trkpt lat="43.87354" lon="6.19691">
        <ele>871.5</ele>
        <time>2026-08-23T08:12:16.992Z</time>
      </trkpt>
      <trkpt lat="43.87359" lon="6.19689">
        <ele>871.5</ele>
        <time>2026-08-23T08:12:21.619Z</time>
      </trkpt>
      <trkpt lat="43.87367" lon="6.19688">
        <ele>871.5</ele>
        <time>2026-08-23T08:12:31.619Z</time>
      </trkpt>
      <trkpt lat="43.87368" lon="6.19688">
        <ele>871.5</ele>
        <time>2026-08-23T08:12:48.638Z</time>
      </trkpt>
      <trkpt lat="43.87375" lon="6.19685">
        <ele>871.3</ele>
        <time>2026-08-23T08:12:54.040Z</time>
      </trkpt>
      <trkpt lat="43.87382" lon="6.19681">
        <ele>871</ele>
        <time>2026-08-23T08:12:59.624Z</time>
      </trkpt>
      <trkpt lat="43.87389" lon="6.19682">
        <ele>871.1</ele>
        <time>2026-08-23T08:13:05.592Z</time>
      </trkpt>
      <trkpt lat="43.87395" lon="6.19682">
        <ele>869.8</ele>
        <time>2026-08-23T08:13:10.682Z</time>
      </trkpt>
      <trkpt lat="43.874" lon="6.19686">
        <ele>869.1</ele>
        <time>2026-08-23T08:13:16.570Z</time>
      </trkpt>
      <trkpt lat="43.87404" lon="6.1969">
        <ele>868.8</ele>
        <time>2026-08-23T08:13:21.601Z</time>
      </trkpt>
      <trkpt lat="43.87411" lon="6.19696">
        <ele>868.2</ele>
        <time>2026-08-23T08:13:31.619Z</time>
      </trkpt>
      <trkpt lat="43.87417" lon="6.19705">
        <ele>868</ele>
        <time>2026-08-23T08:13:41.739Z</time>
      </trkpt>
      <trkpt lat="43.87422" lon="6.19711">
        <ele>867.1</ele>
        <time>2026-08-23T08:13:47.218Z</time>
      </trkpt>
      <trkpt lat="43.87427" lon="6.19717">
        <ele>866.3</ele>
        <time>2026-08-23T08:13:52.698Z</time>
      </trkpt>
      <trkpt lat="43.87432" lon="6.19726">
        <ele>866.1</ele>
        <time>2026-08-23T08:13:58.613Z</time>
      </trkpt>
      <trkpt lat="43.87436" lon="6.19734">
        <ele>866.1</ele>
        <time>2026-08-23T08:14:03.682Z</time>
      </trkpt>
      <trkpt lat="43.8744" lon="6.19743">
        <ele>866.3</ele>
        <time>2026-08-23T08:14:09.407Z</time>
      </trkpt>
      <trkpt lat="43.87444" lon="6.19751">
        <ele>866.3</ele>
        <time>2026-08-23T08:14:14.679Z</time>
      </trkpt>
      <trkpt lat="43.87446" lon="6.19759">
        <ele>867</ele>
        <time>2026-08-23T08:14:20.292Z</time>
      </trkpt>
      <trkpt lat="43.87447" lon="6.19767">
        <ele>868</ele>
        <time>2026-08-23T08:14:25.675Z</time>
      </trkpt>
      <trkpt lat="43.8745" lon="6.19773">
        <ele>867.9</ele>
        <time>2026-08-23T08:14:31.446Z</time>
      </trkpt>
      <trkpt lat="43.87452" lon="6.19779">
        <ele>868.2</ele>
        <time>2026-08-23T08:14:36.671Z</time>
      </trkpt>
      <trkpt lat="43.87456" lon="6.19784">
        <ele>867.2</ele>
        <time>2026-08-23T08:14:42.169Z</time>
      </trkpt>
      <trkpt lat="43.8746" lon="6.19789">
        <ele>866.3</ele>
        <time>2026-08-23T08:14:47.668Z</time>
      </trkpt>
      <trkpt lat="43.87462" lon="6.19795">
        <ele>866.3</ele>
        <time>2026-08-23T08:14:52.861Z</time>
      </trkpt>
      <trkpt lat="43.87463" lon="6.19801">
        <ele>866.7</ele>
        <time>2026-08-23T08:14:57.699Z</time>
      </trkpt>
      <trkpt lat="43.87467" lon="6.19806">
        <ele>865.9</ele>
        <time>2026-08-23T08:15:03.876Z</time>
      </trkpt>
      <trkpt lat="43.8747" lon="6.1981">
        <ele>865.1</ele>
        <time>2026-08-23T08:15:08.651Z</time>
      </trkpt>
      <trkpt lat="43.87473" lon="6.19815">
        <ele>864.4</ele>
        <time>2026-08-23T08:15:14.149Z</time>
      </trkpt>
      <trkpt lat="43.87476" lon="6.1982">
        <ele>863.5</ele>
        <time>2026-08-23T08:15:19.648Z</time>
      </trkpt>
      <trkpt lat="43.87478" lon="6.19822">
        <ele>862.8</ele>
        <time>2026-08-23T08:15:29.663Z</time>
      </trkpt>
      <trkpt lat="43.87478" lon="6.19827">
        <ele>863.1</ele>
        <time>2026-08-23T08:15:58.620Z</time>
      </trkpt>
      <trkpt lat="43.87479" lon="6.19834">
        <ele>863.1</ele>
        <time>2026-08-23T08:16:03.654Z</time>
      </trkpt>
      <trkpt lat="43.8748" lon="6.19841">
        <ele>862.6</ele>
        <time>2026-08-23T08:16:08.688Z</time>
      </trkpt>
      <trkpt lat="43.87476" lon="6.1985">
        <ele>864.4</ele>
        <time>2026-08-23T08:16:19.675Z</time>
      </trkpt>
      <trkpt lat="43.87481" lon="6.19858">
        <ele>862.2</ele>
        <time>2026-08-23T08:16:25.637Z</time>
      </trkpt>
      <trkpt lat="43.87485" lon="6.19865">
        <ele>860.5</ele>
        <time>2026-08-23T08:16:30.667Z</time>
      </trkpt>
      <trkpt lat="43.87487" lon="6.19873">
        <ele>859.8</ele>
        <time>2026-08-23T08:16:36.173Z</time>
      </trkpt>
      <trkpt lat="43.87489" lon="6.19881">
        <ele>859.2</ele>
        <time>2026-08-23T08:16:41.679Z</time>
      </trkpt>
      <trkpt lat="43.87493" lon="6.19887">
        <ele>857.7</ele>
        <time>2026-08-23T08:16:47.164Z</time>
      </trkpt>
      <trkpt lat="43.87497" lon="6.19893">
        <ele>856.5</ele>
        <time>2026-08-23T08:16:52.650Z</time>
      </trkpt>
      <trkpt lat="43.875" lon="6.19899">
        <ele>855.7</ele>
        <time>2026-08-23T08:16:58.367Z</time>
      </trkpt>
      <trkpt lat="43.87502" lon="6.19905">
        <ele>855.4</ele>
        <time>2026-08-23T08:17:03.544Z</time>
      </trkpt>
      <trkpt lat="43.87504" lon="6.19911">
        <ele>855.1</ele>
        <time>2026-08-23T08:17:08.586Z</time>
      </trkpt>
      <trkpt lat="43.87506" lon="6.19917">
        <ele>854.9</ele>
        <time>2026-08-23T08:17:13.629Z</time>
      </trkpt>
      <trkpt lat="43.87509" lon="6.19923">
        <ele>855.1</ele>
        <time>2026-08-23T08:17:19.441Z</time>
      </trkpt>
      <trkpt lat="43.87512" lon="6.19928">
        <ele>855.2</ele>
        <time>2026-08-23T08:17:24.620Z</time>
      </trkpt>
      <trkpt lat="43.87517" lon="6.19936">
        <ele>855.6</ele>
        <time>2026-08-23T08:17:35.619Z</time>
      </trkpt>
      <trkpt lat="43.8752" lon="6.19946">
        <ele>857.5</ele>
        <time>2026-08-23T08:17:45.619Z</time>
      </trkpt>
      <trkpt lat="43.87525" lon="6.1995">
        <ele>857.7</ele>
        <time>2026-08-23T08:17:55.619Z</time>
      </trkpt>
      <trkpt lat="43.87532" lon="6.19944">
        <ele>854</ele>
        <time>2026-08-23T08:18:05.643Z</time>
      </trkpt>
      <trkpt lat="43.8754" lon="6.19941">
        <ele>851.3</ele>
        <time>2026-08-23T08:18:15.644Z</time>
      </trkpt>
      <trkpt lat="43.87545" lon="6.19943">
        <ele>850.8</ele>
        <time>2026-08-23T08:18:21.642Z</time>
      </trkpt>
      <trkpt lat="43.87549" lon="6.19945">
        <ele>850.6</ele>
        <time>2026-08-23T08:18:26.544Z</time>
      </trkpt>
      <trkpt lat="43.87552" lon="6.19951">
        <ele>852.1</ele>
        <time>2026-08-23T08:18:31.842Z</time>
      </trkpt>
      <trkpt lat="43.87555" lon="6.19956">
        <ele>853.3</ele>
        <time>2026-08-23T08:18:36.562Z</time>
      </trkpt>
      <trkpt lat="43.8756" lon="6.19954">
        <ele>851.2</ele>
        <time>2026-08-23T08:18:41.928Z</time>
      </trkpt>
      <trkpt lat="43.87564" lon="6.19951">
        <ele>849.1</ele>
        <time>2026-08-23T08:18:46.618Z</time>
      </trkpt>
      <trkpt lat="43.87569" lon="6.19951">
        <ele>847.7</ele>
        <time>2026-08-23T08:18:51.633Z</time>
      </trkpt>
      <trkpt lat="43.87574" lon="6.1995">
        <ele>846.1</ele>
        <time>2026-08-23T08:18:56.700Z</time>
      </trkpt>
      <trkpt lat="43.87579" lon="6.19953">
        <ele>845.7</ele>
        <time>2026-08-23T08:19:02.199Z</time>
      </trkpt>
      <trkpt lat="43.87584" lon="6.19956">
        <ele>845.1</ele>
        <time>2026-08-23T08:19:07.699Z</time>
      </trkpt>
      <trkpt lat="43.8759" lon="6.19959">
        <ele>844</ele>
        <time>2026-08-23T08:19:13.711Z</time>
      </trkpt>
      <trkpt lat="43.87595" lon="6.19961">
        <ele>842.9</ele>
        <time>2026-08-23T08:19:18.618Z</time>
      </trkpt>
      <trkpt lat="43.87602" lon="6.19964">
        <ele>841.3</ele>
        <time>2026-08-23T08:19:28.657Z</time>
      </trkpt>
      <trkpt lat="43.87607" lon="6.1997">
        <ele>841</ele>
        <time>2026-08-23T08:19:34.361Z</time>
      </trkpt>
      <trkpt lat="43.87612" lon="6.19975">
        <ele>840.2</ele>
        <time>2026-08-23T08:19:39.680Z</time>
      </trkpt>
      <trkpt lat="43.87616" lon="6.19981">
        <ele>839.8</ele>
        <time>2026-08-23T08:19:45.130Z</time>
      </trkpt>
      <trkpt lat="43.8762" lon="6.19987">
        <ele>839.5</ele>
        <time>2026-08-23T08:19:50.581Z</time>
      </trkpt>
      <trkpt lat="43.87627" lon="6.19993">
        <ele>838</ele>
        <time>2026-08-23T08:20:00.618Z</time>
      </trkpt>
      <trkpt lat="43.87631" lon="6.19999">
        <ele>837.7</ele>
        <time>2026-08-23T08:20:06.118Z</time>
      </trkpt>
      <trkpt lat="43.87635" lon="6.20005">
        <ele>837.3</ele>
        <time>2026-08-23T08:20:11.618Z</time>
      </trkpt>
      <trkpt lat="43.87639" lon="6.20011">
        <ele>837</ele>
        <time>2026-08-23T08:20:17.404Z</time>
      </trkpt>
      <trkpt lat="43.87643" lon="6.20016">
        <ele>836.9</ele>
        <time>2026-08-23T08:20:22.693Z</time>
      </trkpt>
      <trkpt lat="43.87649" lon="6.20021">
        <ele>836.5</ele>
        <time>2026-08-23T08:20:33.618Z</time>
      </trkpt>
      <trkpt lat="43.87654" lon="6.20026">
        <ele>836.4</ele>
        <time>2026-08-23T08:20:43.618Z</time>
      </trkpt>
      <trkpt lat="43.8766" lon="6.2003">
        <ele>836</ele>
        <time>2026-08-23T08:20:48.736Z</time>
      </trkpt>
      <trkpt lat="43.87666" lon="6.20033">
        <ele>835.3</ele>
        <time>2026-08-23T08:20:53.641Z</time>
      </trkpt>
      <trkpt lat="43.87671" lon="6.20036">
        <ele>834.8</ele>
        <time>2026-08-23T08:20:59.261Z</time>
      </trkpt>
      <trkpt lat="43.87676" lon="6.20038">
        <ele>834.1</ele>
        <time>2026-08-23T08:21:04.630Z</time>
      </trkpt>
      <trkpt lat="43.87681" lon="6.20041">
        <ele>833.5</ele>
        <time>2026-08-23T08:21:10.124Z</time>
      </trkpt>
      <trkpt lat="43.87686" lon="6.20044">
        <ele>832.9</ele>
        <time>2026-08-23T08:21:15.619Z</time>
      </trkpt>
      <trkpt lat="43.87692" lon="6.20048">
        <ele>832.2</ele>
        <time>2026-08-23T08:21:21.667Z</time>
      </trkpt>
      <trkpt lat="43.87697" lon="6.20051">
        <ele>831.7</ele>
        <time>2026-08-23T08:21:26.618Z</time>
      </trkpt>
      <trkpt lat="43.87702" lon="6.20053">
        <ele>831.2</ele>
        <time>2026-08-23T08:21:32.121Z</time>
      </trkpt>
      <trkpt lat="43.87706" lon="6.20055">
        <ele>830.8</ele>
        <time>2026-08-23T08:21:36.618Z</time>
      </trkpt>
      <trkpt lat="43.8771" lon="6.20059">
        <ele>830.9</ele>
        <time>2026-08-23T08:21:41.618Z</time>
      </trkpt>
      <trkpt lat="43.87714" lon="6.20063">
        <ele>830.8</ele>
        <time>2026-08-23T08:21:46.618Z</time>
      </trkpt>
      <trkpt lat="43.87718" lon="6.20067">
        <ele>830.6</ele>
        <time>2026-08-23T08:21:51.638Z</time>
      </trkpt>
      <trkpt lat="43.87722" lon="6.20071">
        <ele>830.3</ele>
        <time>2026-08-23T08:21:56.658Z</time>
      </trkpt>
      <trkpt lat="43.87727" lon="6.20074">
        <ele>829.6</ele>
        <time>2026-08-23T08:22:02.643Z</time>
      </trkpt>
      <trkpt lat="43.87731" lon="6.20077">
        <ele>829.2</ele>
        <time>2026-08-23T08:22:07.639Z</time>
      </trkpt>
      <trkpt lat="43.87736" lon="6.20081">
        <ele>828.7</ele>
        <time>2026-08-23T08:22:13.291Z</time>
      </trkpt>
      <trkpt lat="43.87741" lon="6.20084">
        <ele>828.1</ele>
        <time>2026-08-23T08:22:18.627Z</time>
      </trkpt>
      <trkpt lat="43.87747" lon="6.20089">
        <ele>827.5</ele>
        <time>2026-08-23T08:22:24.471Z</time>
      </trkpt>
      <trkpt lat="43.87752" lon="6.20094">
        <ele>827.1</ele>
        <time>2026-08-23T08:22:29.619Z</time>
      </trkpt>
      <trkpt lat="43.87757" lon="6.20099">
        <ele>826.7</ele>
        <time>2026-08-23T08:22:34.783Z</time>
      </trkpt>
      <trkpt lat="43.87762" lon="6.20103">
        <ele>826.2</ele>
        <time>2026-08-23T08:22:39.619Z</time>
      </trkpt>
      <trkpt lat="43.87767" lon="6.20105">
        <ele>825.4</ele>
        <time>2026-08-23T08:22:44.619Z</time>
      </trkpt>
      <trkpt lat="43.87772" lon="6.20107">
        <ele>824.7</ele>
        <time>2026-08-23T08:22:49.619Z</time>
      </trkpt>
      <trkpt lat="43.87777" lon="6.2011">
        <ele>824</ele>
        <time>2026-08-23T08:22:55.237Z</time>
      </trkpt>
      <trkpt lat="43.87781" lon="6.20112">
        <ele>823.4</ele>
        <time>2026-08-23T08:22:59.622Z</time>
      </trkpt>
      <trkpt lat="43.87786" lon="6.20114">
        <ele>822.5</ele>
        <time>2026-08-23T08:23:04.629Z</time>
      </trkpt>
      <trkpt lat="43.87791" lon="6.20116">
        <ele>821.6</ele>
        <time>2026-08-23T08:23:09.637Z</time>
      </trkpt>
      <trkpt lat="43.87797" lon="6.20125">
        <ele>821</ele>
        <time>2026-08-23T08:23:20.303Z</time>
      </trkpt>
      <trkpt lat="43.87802" lon="6.2013">
        <ele>820.2</ele>
        <time>2026-08-23T08:23:26.033Z</time>
      </trkpt>
      <trkpt lat="43.87806" lon="6.20134">
        <ele>819.6</ele>
        <time>2026-08-23T08:23:30.618Z</time>
      </trkpt>
      <trkpt lat="43.8781" lon="6.20141">
        <ele>819.4</ele>
        <time>2026-08-23T08:23:35.875Z</time>
      </trkpt>
      <trkpt lat="43.87814" lon="6.20147">
        <ele>819.3</ele>
        <time>2026-08-23T08:23:40.685Z</time>
      </trkpt>
      <trkpt lat="43.87817" lon="6.20154">
        <ele>819.3</ele>
        <time>2026-08-23T08:23:46.185Z</time>
      </trkpt>
      <trkpt lat="43.8782" lon="6.20161">
        <ele>819.4</ele>
        <time>2026-08-23T08:23:51.686Z</time>
      </trkpt>
      <trkpt lat="43.87823" lon="6.20167">
        <ele>819.3</ele>
        <time>2026-08-23T08:24:02.677Z</time>
      </trkpt>
      <trkpt lat="43.87826" lon="6.20166">
        <ele>818.5</ele>
        <time>2026-08-23T08:24:31.694Z</time>
      </trkpt>
      <trkpt lat="43.8783" lon="6.2017">
        <ele>818.1</ele>
      </trkpt>
      <trkpt lat="43.87833" lon="6.20174">
        <ele>817.6</ele>
        <time>2026-08-23T08:24:37.587Z</time>
      </trkpt>
      <trkpt lat="43.87839" lon="6.20181">
        <ele>817.2</ele>
        <time>2026-08-23T08:24:42.681Z</time>
      </trkpt>
      <trkpt lat="43.87842" lon="6.20188">
        <ele>817.3</ele>
        <time>2026-08-23T08:24:48.475Z</time>
      </trkpt>
      <trkpt lat="43.87845" lon="6.20194">
        <ele>817.3</ele>
        <time>2026-08-23T08:24:53.671Z</time>
      </trkpt>
      <trkpt lat="43.87849" lon="6.20201">
        <ele>817.3</ele>
        <time>2026-08-23T08:24:59.417Z</time>
      </trkpt>
      <trkpt lat="43.87852" lon="6.20208">
        <ele>817.4</ele>
        <time>2026-08-23T08:25:04.657Z</time>
      </trkpt>
      <trkpt lat="43.87857" lon="6.2021">
        <ele>816.8</ele>
        <time>2026-08-23T08:25:10.151Z</time>
      </trkpt>
      <trkpt lat="43.87862" lon="6.20212">
        <ele>816.2</ele>
        <time>2026-08-23T08:25:15.646Z</time>
      </trkpt>
      <trkpt lat="43.87863" lon="6.20214">
        <ele>816.2</ele>
        <time>2026-08-23T08:25:36.618Z</time>
      </trkpt>
      <trkpt lat="43.87868" lon="6.20223">
        <ele>816.4</ele>
        <time>2026-08-23T08:25:46.618Z</time>
      </trkpt>
      <trkpt lat="43.87872" lon="6.20234">
        <ele>818.1</ele>
        <time>2026-08-23T08:25:56.661Z</time>
      </trkpt>
      <trkpt lat="43.87877" lon="6.20244">
        <ele>819</ele>
        <time>2026-08-23T08:26:06.683Z</time>
      </trkpt>
      <trkpt lat="43.87881" lon="6.2025">
        <ele>819</ele>
        <time>2026-08-23T08:26:17.628Z</time>
      </trkpt>
      <trkpt lat="43.87884" lon="6.20251">
        <ele>818.5</ele>
        <time>2026-08-23T08:26:32.618Z</time>
      </trkpt>
      <trkpt lat="43.87889" lon="6.20252">
        <ele>817.3</ele>
        <time>2026-08-23T08:26:37.618Z</time>
      </trkpt>
      <trkpt lat="43.87894" lon="6.20253">
        <ele>816.9</ele>
        <time>2026-08-23T08:26:42.618Z</time>
      </trkpt>
      <trkpt lat="43.87898" lon="6.2025">
        <ele>816</ele>
        <time>2026-08-23T08:26:47.435Z</time>
      </trkpt>
      <trkpt lat="43.87902" lon="6.20246">
        <ele>815.4</ele>
        <time>2026-08-23T08:26:52.659Z</time>
      </trkpt>
      <trkpt lat="43.87904" lon="6.20234">
        <ele>814.6</ele>
        <time>2026-08-23T08:27:03.618Z</time>
      </trkpt>
      <trkpt lat="43.87906" lon="6.20226">
        <ele>814.2</ele>
        <time>2026-08-23T08:27:08.722Z</time>
      </trkpt>
      <trkpt lat="43.87907" lon="6.20218">
        <ele>813.8</ele>
        <time>2026-08-23T08:27:13.618Z</time>
      </trkpt>
      <trkpt lat="43.87909" lon="6.20212">
        <ele>813.6</ele>
        <time>2026-08-23T08:27:23.618Z</time>
      </trkpt>
      <trkpt lat="43.87912" lon="6.20209">
        <ele>813.5</ele>
        <time>2026-08-23T08:27:38.619Z</time>
      </trkpt>
      <trkpt lat="43.87916" lon="6.20204">
        <ele>813.3</ele>
        <time>2026-08-23T08:27:44.171Z</time>
      </trkpt>
      <trkpt lat="43.87919" lon="6.20198">
        <ele>813.3</ele>
        <time>2026-08-23T08:27:49.599Z</time>
      </trkpt>
      <trkpt lat="43.87924" lon="6.20201">
        <ele>813.7</ele>
        <time>2026-08-23T08:27:55.059Z</time>
      </trkpt>
      <trkpt lat="43.87928" lon="6.20204">
        <ele>814</ele>
        <time>2026-08-23T08:27:59.618Z</time>
      </trkpt>
      <trkpt lat="43.87932" lon="6.20207">
        <ele>814.3</ele>
        <time>2026-08-23T08:28:09.618Z</time>
      </trkpt>
      <trkpt lat="43.8794" lon="6.20206">
        <ele>814.7</ele>
        <time>2026-08-23T08:28:19.618Z</time>
      </trkpt>
      <trkpt lat="43.87945" lon="6.20203">
        <ele>815.1</ele>
        <time>2026-08-23T08:28:29.618Z</time>
      </trkpt>
      <trkpt lat="43.87946" lon="6.20201">
        <ele>815.2</ele>
        <time>2026-08-23T08:29:58.617Z</time>
      </trkpt>
      <trkpt lat="43.87951" lon="6.20197">
        <ele>815.9</ele>
        <time>2026-08-23T08:30:03.938Z</time>
      </trkpt>
      <trkpt lat="43.87956" lon="6.20192">
        <ele>816.8</ele>
        <time>2026-08-23T08:30:09.622Z</time>
      </trkpt>
      <trkpt lat="43.87962" lon="6.20189">
        <ele>817.7</ele>
        <time>2026-08-23T08:30:19.624Z</time>
      </trkpt>
      <trkpt lat="43.87969" lon="6.20182">
        <ele>819</ele>
        <time>2026-08-23T08:30:29.626Z</time>
      </trkpt>
      <trkpt lat="43.87977" lon="6.20187">
        <ele>820.1</ele>
        <time>2026-08-23T08:30:39.629Z</time>
      </trkpt>
      <trkpt lat="43.8798" lon="6.20191">
        <ele>820.5</ele>
        <time>2026-08-23T08:30:49.632Z</time>
      </trkpt>
      <trkpt lat="43.87982" lon="6.20193">
        <ele>820.8</ele>
        <time>2026-08-23T08:32:21.641Z</time>
      </trkpt>
      <trkpt lat="43.87986" lon="6.20203">
        <ele>820.7</ele>
        <time>2026-08-23T08:32:32.652Z</time>
      </trkpt>
      <trkpt lat="43.87984" lon="6.20198">
        <ele>820.8</ele>
        <time>2026-08-23T08:32:48.617Z</time>
      </trkpt>
      <trkpt lat="43.87981" lon="6.20191">
        <ele>820.7</ele>
        <time>2026-08-23T08:32:53.366Z</time>
      </trkpt>
      <trkpt lat="43.87978" lon="6.20183">
        <ele>820.5</ele>
        <time>2026-08-23T08:32:58.625Z</time>
      </trkpt>
      <trkpt lat="43.87974" lon="6.20181">
        <ele>819.8</ele>
        <time>2026-08-23T08:33:03.014Z</time>
      </trkpt>
      <trkpt lat="43.87969" lon="6.20178">
        <ele>819.1</ele>
        <time>2026-08-23T08:33:08.638Z</time>
      </trkpt>
      <trkpt lat="43.87968" lon="6.20183">
        <ele>818.8</ele>
        <time>2026-08-23T08:36:54.645Z</time>
      </trkpt>
      <trkpt lat="43.87966" lon="6.20183">
        <ele>818.5</ele>
        <time>2026-08-23T08:37:40.545Z</time>
      </trkpt>
      <trkpt lat="43.8797" lon="6.20181">
        <ele>819.2</ele>
        <time>2026-08-23T08:37:50.647Z</time>
      </trkpt>
      <trkpt lat="43.8797" lon="6.20183">
        <ele>819.1</ele>
        <time>2026-08-23T08:38:04.616Z</time>
      </trkpt>
      <trkpt lat="43.87971" lon="6.20189">
        <ele>819</ele>
        <time>2026-08-23T08:38:14.616Z</time>
      </trkpt>
      <trkpt lat="43.87972" lon="6.20197">
        <ele>818.8</ele>
        <time>2026-08-23T08:38:20.536Z</time>
      </trkpt>
      <trkpt lat="43.87972" lon="6.20204">
        <ele>818.3</ele>
        <time>2026-08-23T08:38:25.641Z</time>
      </trkpt>
      <trkpt lat="43.87972" lon="6.20212">
        <ele>817.7</ele>
        <time>2026-08-23T08:38:30.981Z</time>
      </trkpt>
      <trkpt lat="43.87972" lon="6.20219">
        <ele>817.2</ele>
        <time>2026-08-23T08:38:35.655Z</time>
      </trkpt>
      <trkpt lat="43.87974" lon="6.20226">
        <ele>817.2</ele>
        <time>2026-08-23T08:38:41.135Z</time>
      </trkpt>
      <trkpt lat="43.87976" lon="6.20233">
        <ele>817.4</ele>
        <time>2026-08-23T08:38:46.616Z</time>
      </trkpt>
      <trkpt lat="43.87981" lon="6.20236">
        <ele>818</ele>
        <time>2026-08-23T08:38:52.246Z</time>
      </trkpt>
      <trkpt lat="43.87985" lon="6.20238">
        <ele>818.3</ele>
        <time>2026-08-23T08:38:56.641Z</time>
      </trkpt>
      <trkpt lat="43.87992" lon="6.20236">
        <ele>819.1</ele>
        <time>2026-08-23T08:39:07.616Z</time>
      </trkpt>
      <trkpt lat="43.87998" lon="6.20232">
        <ele>820.1</ele>
        <time>2026-08-23T08:39:18.631Z</time>
      </trkpt>
      <trkpt lat="43.88003" lon="6.20235">
        <ele>820.5</ele>
        <time>2026-08-23T08:39:24.587Z</time>
      </trkpt>
      <trkpt lat="43.88007" lon="6.20238">
        <ele>820.8</ele>
        <time>2026-08-23T08:39:29.560Z</time>
      </trkpt>
      <trkpt lat="43.88013" lon="6.2024">
        <ele>821.4</ele>
        <time>2026-08-23T08:39:35.039Z</time>
      </trkpt>
      <trkpt lat="43.88018" lon="6.20242">
        <ele>822</ele>
        <time>2026-08-23T08:39:39.661Z</time>
      </trkpt>
      <trkpt lat="43.88025" lon="6.20249">
        <ele>822.6</ele>
        <time>2026-08-23T08:39:50.616Z</time>
      </trkpt>
      <trkpt lat="43.88032" lon="6.20253">
        <ele>823.7</ele>
        <time>2026-08-23T08:40:00.616Z</time>
      </trkpt>
      <trkpt lat="43.88037" lon="6.20254">
        <ele>824.4</ele>
        <time>2026-08-23T08:40:06.196Z</time>
      </trkpt>
      <trkpt lat="43.88041" lon="6.20254">
        <ele>825</ele>
        <time>2026-08-23T08:40:10.616Z</time>
      </trkpt>
      <trkpt lat="43.88048" lon="6.20254">
        <ele>826</ele>
        <time>2026-08-23T08:40:20.621Z</time>
      </trkpt>
      <trkpt lat="43.88054" lon="6.20256">
        <ele>826.8</ele>
        <time>2026-08-23T08:40:30.636Z</time>
      </trkpt>
      <trkpt lat="43.88059" lon="6.20258">
        <ele>827.5</ele>
        <time>2026-08-23T08:40:41.616Z</time>
      </trkpt>
      <trkpt lat="43.88063" lon="6.20261">
        <ele>828</ele>
        <time>2026-08-23T08:40:51.616Z</time>
      </trkpt>
      <trkpt lat="43.88065" lon="6.20265">
        <ele>828.2</ele>
        <time>2026-08-23T08:41:05.662Z</time>
      </trkpt>
      <trkpt lat="43.88066" lon="6.20276">
        <ele>828.2</ele>
        <time>2026-08-23T08:41:16.616Z</time>
      </trkpt>
      <trkpt lat="43.8807" lon="6.20285">
        <ele>829.2</ele>
        <time>2026-08-23T08:41:27.616Z</time>
      </trkpt>
      <trkpt lat="43.88069" lon="6.20288">
        <ele>829.4</ele>
        <time>2026-08-23T08:41:42.629Z</time>
      </trkpt>
      <trkpt lat="43.88066" lon="6.20294">
        <ele>829.7</ele>
        <time>2026-08-23T08:41:47.924Z</time>
      </trkpt>
      <trkpt lat="43.88063" lon="6.20299">
        <ele>829.9</ele>
        <time>2026-08-23T08:41:52.642Z</time>
      </trkpt>
      <trkpt lat="43.88058" lon="6.20301">
        <ele>829.7</ele>
        <time>2026-08-23T08:41:57.644Z</time>
      </trkpt>
      <trkpt lat="43.88053" lon="6.20303">
        <ele>829.4</ele>
        <time>2026-08-23T08:42:02.647Z</time>
      </trkpt>
      <trkpt lat="43.88048" lon="6.20307">
        <ele>829.1</ele>
        <time>2026-08-23T08:42:13.669Z</time>
      </trkpt>
      <trkpt lat="43.88046" lon="6.20307">
        <ele>828.8</ele>
        <time>2026-08-23T08:42:55.623Z</time>
      </trkpt>
      <trkpt lat="43.88044" lon="6.20314">
        <ele>829.4</ele>
        <time>2026-08-23T08:43:00.628Z</time>
      </trkpt>
      <trkpt lat="43.88042" lon="6.20321">
        <ele>830</ele>
        <time>2026-08-23T08:43:05.634Z</time>
      </trkpt>
      <trkpt lat="43.88039" lon="6.20325">
        <ele>830</ele>
        <time>2026-08-23T08:43:10.215Z</time>
      </trkpt>
      <trkpt lat="43.88035" lon="6.20329">
        <ele>829.8</ele>
        <time>2026-08-23T08:43:15.644Z</time>
      </trkpt>
      <trkpt lat="43.88037" lon="6.20327">
        <ele>829.9</ele>
        <time>2026-08-23T08:43:25.650Z</time>
      </trkpt>
      <trkpt lat="43.88033" lon="6.20329">
        <ele>829.4</ele>
        <time>2026-08-23T08:43:30.645Z</time>
      </trkpt>
      <trkpt lat="43.88028" lon="6.2033">
        <ele>828.7</ele>
        <time>2026-08-23T08:43:36.580Z</time>
      </trkpt>
      <trkpt lat="43.88023" lon="6.20325">
        <ele>827.4</ele>
        <time>2026-08-23T08:43:46.616Z</time>
      </trkpt>
      <trkpt lat="43.88015" lon="6.20324">
        <ele>826.2</ele>
        <time>2026-08-23T08:43:57.519Z</time>
      </trkpt>
      <trkpt lat="43.88009" lon="6.20326">
        <ele>825.5</ele>
        <time>2026-08-23T08:44:07.615Z</time>
      </trkpt>
      <trkpt lat="43.88007" lon="6.20334">
        <ele>826.2</ele>
        <time>2026-08-23T08:44:17.615Z</time>
      </trkpt>
      <trkpt lat="43.88005" lon="6.20339">
        <ele>827.3</ele>
        <time>2026-08-23T08:44:41.615Z</time>
      </trkpt>
      <trkpt lat="43.88002" lon="6.20337">
        <ele>826.3</ele>
        <time>2026-08-23T08:44:51.615Z</time>
      </trkpt>
      <trkpt lat="43.88001" lon="6.20335">
        <ele>825.6</ele>
        <time>2026-08-23T08:45:07.615Z</time>
      </trkpt>
      <trkpt lat="43.87997" lon="6.20327">
        <ele>824.1</ele>
        <time>2026-08-23T08:45:18.615Z</time>
      </trkpt>
      <trkpt lat="43.87991" lon="6.2032">
        <ele>822.8</ele>
        <time>2026-08-23T08:45:28.615Z</time>
      </trkpt>
      <trkpt lat="43.87984" lon="6.20315">
        <ele>821.5</ele>
        <time>2026-08-23T08:45:38.624Z</time>
      </trkpt>
      <trkpt lat="43.87977" lon="6.20314">
        <ele>820.7</ele>
        <time>2026-08-23T08:45:48.689Z</time>
      </trkpt>
      <trkpt lat="43.87973" lon="6.20316">
        <ele>820.6</ele>
        <time>2026-08-23T08:45:59.615Z</time>
      </trkpt>
      <trkpt lat="43.87972" lon="6.20323">
        <ele>821.5</ele>
        <time>2026-08-23T08:46:17.615Z</time>
      </trkpt>
      <trkpt lat="43.8797" lon="6.20332">
        <ele>822.6</ele>
        <time>2026-08-23T08:46:27.615Z</time>
      </trkpt>
      <trkpt lat="43.87965" lon="6.20333">
        <ele>822.4</ele>
        <time>2026-08-23T08:46:37.615Z</time>
      </trkpt>
      <trkpt lat="43.87961" lon="6.20325">
        <ele>821</ele>
        <time>2026-08-23T08:46:48.615Z</time>
      </trkpt>
      <trkpt lat="43.87956" lon="6.2033">
        <ele>821.4</ele>
        <time>2026-08-23T08:46:58.615Z</time>
      </trkpt>
      <trkpt lat="43.87955" lon="6.20336">
        <ele>822.5</ele>
        <time>2026-08-23T08:47:03.437Z</time>
      </trkpt>
      <trkpt lat="43.87953" lon="6.20342">
        <ele>824</ele>
        <time>2026-08-23T08:47:08.615Z</time>
      </trkpt>
      <trkpt lat="43.87948" lon="6.20349">
        <ele>825.3</ele>
        <time>2026-08-23T08:47:19.615Z</time>
      </trkpt>
      <trkpt lat="43.87945" lon="6.20347">
        <ele>824.5</ele>
        <time>2026-08-23T08:47:30.614Z</time>
      </trkpt>
      <trkpt lat="43.87943" lon="6.20349">
        <ele>825.3</ele>
        <time>2026-08-23T08:48:12.614Z</time>
      </trkpt>
      <trkpt lat="43.87939" lon="6.2035">
        <ele>826.5</ele>
        <time>2026-08-23T08:48:22.614Z</time>
      </trkpt>
      <trkpt lat="43.87939" lon="6.20355">
        <ele>828</ele>
        <time>2026-08-23T08:48:37.663Z</time>
      </trkpt>
      <trkpt lat="43.8794" lon="6.20362">
        <ele>829.8</ele>
        <time>2026-08-23T08:48:48.614Z</time>
      </trkpt>
      <trkpt lat="43.8794" lon="6.2037">
        <ele>832.7</ele>
        <time>2026-08-23T08:49:55.623Z</time>
      </trkpt>
      <trkpt lat="43.87936" lon="6.20369">
        <ele>834</ele>
        <time>2026-08-23T08:50:05.624Z</time>
      </trkpt>
      <trkpt lat="43.87937" lon="6.20364">
        <ele>831.6</ele>
        <time>2026-08-23T08:50:19.518Z</time>
      </trkpt>
      <trkpt lat="43.87935" lon="6.20352">
        <ele>828.1</ele>
        <time>2026-08-23T08:50:29.582Z</time>
      </trkpt>
      <trkpt lat="43.87939" lon="6.20348">
        <ele>825.9</ele>
        <time>2026-08-23T08:51:05.649Z</time>
      </trkpt>
      <trkpt lat="43.87941" lon="6.20352">
        <ele>826.6</ele>
        <time>2026-08-23T08:51:45.538Z</time>
      </trkpt>
      <trkpt lat="43.87946" lon="6.20348">
        <ele>824.9</ele>
        <time>2026-08-23T08:51:50.761Z</time>
      </trkpt>
      <trkpt lat="43.8795" lon="6.20343">
        <ele>824</ele>
        <time>2026-08-23T08:51:55.635Z</time>
      </trkpt>
      <trkpt lat="43.87952" lon="6.20336">
        <ele>822.3</ele>
        <time>2026-08-23T08:52:01.140Z</time>
      </trkpt>
      <trkpt lat="43.87954" lon="6.20329">
        <ele>821.1</ele>
        <time>2026-08-23T08:52:06.646Z</time>
      </trkpt>
      <trkpt lat="43.87961" lon="6.20329">
        <ele>821.6</ele>
        <time>2026-08-23T08:52:17.614Z</time>
      </trkpt>
      <trkpt lat="43.87963" lon="6.20333">
        <ele>822.3</ele>
        <time>2026-08-23T08:52:27.614Z</time>
      </trkpt>
      <trkpt lat="43.8797" lon="6.20336">
        <ele>823.7</ele>
        <time>2026-08-23T08:52:38.613Z</time>
      </trkpt>
      <trkpt lat="43.87974" lon="6.20337">
        <ele>824.3</ele>
        <time>2026-08-23T08:53:11.613Z</time>
      </trkpt>
      <trkpt lat="43.87981" lon="6.20334">
        <ele>823.8</ele>
        <time>2026-08-23T08:53:21.639Z</time>
      </trkpt>
      <trkpt lat="43.87984" lon="6.20333">
        <ele>823.8</ele>
        <time>2026-08-23T08:53:42.613Z</time>
      </trkpt>
      <trkpt lat="43.87989" lon="6.20324">
        <ele>823.1</ele>
        <time>2026-08-23T08:53:52.613Z</time>
      </trkpt>
      <trkpt lat="43.87992" lon="6.20324">
        <ele>823.3</ele>
        <time>2026-08-23T08:54:03.613Z</time>
      </trkpt>
      <trkpt lat="43.87997" lon="6.20332">
        <ele>824.6</ele>
        <time>2026-08-23T08:54:13.613Z</time>
      </trkpt>
      <trkpt lat="43.87999" lon="6.20329">
        <ele>824.5</ele>
        <time>2026-08-23T08:54:30.630Z</time>
      </trkpt>
      <trkpt lat="43.88007" lon="6.20331">
        <ele>825.8</ele>
        <time>2026-08-23T08:54:41.542Z</time>
      </trkpt>
      <trkpt lat="43.88011" lon="6.20326">
        <ele>825.8</ele>
        <time>2026-08-23T08:54:51.621Z</time>
      </trkpt>
      <trkpt lat="43.88014" lon="6.20326">
        <ele>826.2</ele>
        <time>2026-08-23T08:55:02.619Z</time>
      </trkpt>
      <trkpt lat="43.88017" lon="6.20328">
        <ele>826.9</ele>
        <time>2026-08-23T08:55:17.670Z</time>
      </trkpt>
      <trkpt lat="43.8802" lon="6.20337">
        <ele>828.7</ele>
        <time>2026-08-23T08:55:28.675Z</time>
      </trkpt>
      <trkpt lat="43.88023" lon="6.2034">
        <ele>829.8</ele>
        <time>2026-08-23T08:55:39.684Z</time>
      </trkpt>
      <trkpt lat="43.88026" lon="6.20342">
        <ele>830.7</ele>
        <time>2026-08-23T08:55:57.629Z</time>
      </trkpt>
      <trkpt lat="43.8803" lon="6.20346">
        <ele>832.1</ele>
        <time>2026-08-23T08:56:08.633Z</time>
      </trkpt>
      <trkpt lat="43.88035" lon="6.2035">
        <ele>833.7</ele>
        <time>2026-08-23T08:56:19.641Z</time>
      </trkpt>
      <trkpt lat="43.88035" lon="6.20352">
        <ele>834.2</ele>
        <time>2026-08-23T08:56:38.521Z</time>
      </trkpt>
      <trkpt lat="43.88039" lon="6.20351">
        <ele>834.6</ele>
        <time>2026-08-23T08:56:48.614Z</time>
      </trkpt>
      <trkpt lat="43.8804" lon="6.2034">
        <ele>832.5</ele>
        <time>2026-08-23T08:56:59.613Z</time>
      </trkpt>
      <trkpt lat="43.88042" lon="6.20341">
        <ele>833.1</ele>
        <time>2026-08-23T08:57:30.659Z</time>
      </trkpt>
      <trkpt lat="43.88043" lon="6.20333">
        <ele>831.7</ele>
        <time>2026-08-23T08:57:35.844Z</time>
      </trkpt>
      <trkpt lat="43.88044" lon="6.20324">
        <ele>830.7</ele>
        <time>2026-08-23T08:57:41.660Z</time>
      </trkpt>
      <trkpt lat="43.88045" lon="6.20313">
        <ele>829.5</ele>
        <time>2026-08-23T08:57:52.664Z</time>
      </trkpt>
      <trkpt lat="43.88049" lon="6.20302">
        <ele>828.7</ele>
        <time>2026-08-23T08:58:03.666Z</time>
      </trkpt>
      <trkpt lat="43.88055" lon="6.203">
        <ele>829.3</ele>
        <time>2026-08-23T08:58:09.604Z</time>
      </trkpt>
      <trkpt lat="43.8806" lon="6.20298">
        <ele>829.5</ele>
        <time>2026-08-23T08:58:14.613Z</time>
      </trkpt>
      <trkpt lat="43.88065" lon="6.20291">
        <ele>829.3</ele>
        <time>2026-08-23T08:58:25.663Z</time>
      </trkpt>
      <trkpt lat="43.88072" lon="6.20289">
        <ele>829.7</ele>
        <time>2026-08-23T08:58:36.612Z</time>
      </trkpt>
      <trkpt lat="43.88078" lon="6.2029">
        <ele>830.4</ele>
        <time>2026-08-23T08:58:46.656Z</time>
      </trkpt>
      <trkpt lat="43.88084" lon="6.20293">
        <ele>831.2</ele>
        <time>2026-08-23T08:58:56.665Z</time>
      </trkpt>
      <trkpt lat="43.88089" lon="6.20296">
        <ele>831.8</ele>
        <time>2026-08-23T08:59:07.643Z</time>
      </trkpt>
      <trkpt lat="43.88092" lon="6.203">
        <ele>832.3</ele>
        <time>2026-08-23T08:59:18.703Z</time>
      </trkpt>
      <trkpt lat="43.88099" lon="6.20306">
        <ele>833.2</ele>
        <time>2026-08-23T08:59:29.643Z</time>
      </trkpt>
      <trkpt lat="43.88105" lon="6.2031">
        <ele>834.4</ele>
        <time>2026-08-23T08:59:40.644Z</time>
      </trkpt>
      <trkpt lat="43.8811" lon="6.20312">
        <ele>835.1</ele>
        <time>2026-08-23T08:59:51.603Z</time>
      </trkpt>
      <trkpt lat="43.88112" lon="6.20314">
        <ele>835.6</ele>
        <time>2026-08-23T09:00:01.637Z</time>
      </trkpt>
      <trkpt lat="43.88113" lon="6.20315">
        <ele>836</ele>
        <time>2026-08-23T09:00:26.666Z</time>
      </trkpt>
      <trkpt lat="43.88116" lon="6.20325">
        <ele>838.2</ele>
        <time>2026-08-23T09:00:37.669Z</time>
      </trkpt>
      <trkpt lat="43.8812" lon="6.20327">
        <ele>839.1</ele>
        <time>2026-08-23T09:00:48.612Z</time>
      </trkpt>
      <trkpt lat="43.88125" lon="6.20331">
        <ele>840.6</ele>
        <time>2026-08-23T09:00:58.612Z</time>
      </trkpt>
      <trkpt lat="43.88129" lon="6.20336">
        <ele>842.5</ele>
        <time>2026-08-23T09:01:08.612Z</time>
      </trkpt>
      <trkpt lat="43.88132" lon="6.20339">
        <ele>843.9</ele>
        <time>2026-08-23T09:01:18.645Z</time>
      </trkpt>
      <trkpt lat="43.88136" lon="6.20344">
        <ele>846.1</ele>
        <time>2026-08-23T09:01:29.562Z</time>
      </trkpt>
      <trkpt lat="43.88138" lon="6.20346">
        <ele>847</ele>
        <time>2026-08-23T09:01:39.637Z</time>
      </trkpt>
      <trkpt lat="43.88138" lon="6.20349">
        <ele>848</ele>
        <time>2026-08-23T09:03:04.612Z</time>
      </trkpt>
      <trkpt lat="43.88143" lon="6.20354">
        <ele>850.3</ele>
        <time>2026-08-23T09:03:14.615Z</time>
      </trkpt>
      <trkpt lat="43.88143" lon="6.20359">
        <ele>851.8</ele>
        <time>2026-08-23T09:04:06.621Z</time>
      </trkpt>
      <trkpt lat="43.88145" lon="6.20364">
        <ele>853.7</ele>
        <time>2026-08-23T09:04:16.625Z</time>
      </trkpt>
      <trkpt lat="43.88146" lon="6.20368">
        <ele>855.2</ele>
        <time>2026-08-23T09:04:30.613Z</time>
      </trkpt>
      <trkpt lat="43.88146" lon="6.20373">
        <ele>856.9</ele>
        <time>2026-08-23T09:04:41.611Z</time>
      </trkpt>
      <trkpt lat="43.88147" lon="6.20376">
        <ele>858.1</ele>
        <time>2026-08-23T09:04:51.611Z</time>
      </trkpt>
      <trkpt lat="43.88149" lon="6.20379">
        <ele>859.3</ele>
        <time>2026-08-23T09:05:01.611Z</time>
      </trkpt>
      <trkpt lat="43.88151" lon="6.20382">
        <ele>860.5</ele>
        <time>2026-08-23T09:05:11.611Z</time>
      </trkpt>
      <trkpt lat="43.88153" lon="6.20386">
        <ele>862</ele>
        <time>2026-08-23T09:07:11.611Z</time>
      </trkpt>
      <trkpt lat="43.88155" lon="6.20393">
        <ele>864.7</ele>
        <time>2026-08-23T09:07:21.611Z</time>
      </trkpt>
      <trkpt lat="43.88157" lon="6.20397">
        <ele>866.3</ele>
        <time>2026-08-23T09:07:31.611Z</time>
      </trkpt>
      <trkpt lat="43.88156" lon="6.20401">
        <ele>867.8</ele>
        <time>2026-08-23T09:07:41.611Z</time>
      </trkpt>
      <trkpt lat="43.88156" lon="6.20403">
        <ele>868.5</ele>
        <time>2026-08-23T09:08:57.611Z</time>
      </trkpt>
      <trkpt lat="43.88156" lon="6.20407">
        <ele>870</ele>
        <time>2026-08-23T09:09:07.611Z</time>
      </trkpt>
      <trkpt lat="43.88159" lon="6.20411">
        <ele>871.6</ele>
        <time>2026-08-23T09:09:43.611Z</time>
      </trkpt>
      <trkpt lat="43.88167" lon="6.20415">
        <ele>873.4</ele>
        <time>2026-08-23T09:09:53.611Z</time>
      </trkpt>
      <trkpt lat="43.8817" lon="6.20418">
        <ele>874.2</ele>
        <time>2026-08-23T09:10:03.611Z</time>
      </trkpt>
      <trkpt lat="43.88169" lon="6.20416">
        <ele>873.6</ele>
        <time>2026-08-23T09:14:23.611Z</time>
      </trkpt>
      <trkpt lat="43.88171" lon="6.20414">
        <ele>872.8</ele>
        <time>2026-08-23T09:15:41.610Z</time>
      </trkpt>
      <trkpt lat="43.88177" lon="6.20408">
        <ele>870.4</ele>
        <time>2026-08-23T09:15:51.610Z</time>
      </trkpt>
      <trkpt lat="43.88179" lon="6.20407">
        <ele>869.9</ele>
        <time>2026-08-23T09:16:01.610Z</time>
      </trkpt>
      <trkpt lat="43.88185" lon="6.20404">
        <ele>868.7</ele>
        <time>2026-08-23T09:16:11.642Z</time>
      </trkpt>
      <trkpt lat="43.88193" lon="6.20403">
        <ele>868.1</ele>
        <time>2026-08-23T09:16:22.602Z</time>
      </trkpt>
      <trkpt lat="43.88199" lon="6.20405">
        <ele>868.1</ele>
        <time>2026-08-23T09:16:32.618Z</time>
      </trkpt>
      <trkpt lat="43.88202" lon="6.204">
        <ele>866.4</ele>
        <time>2026-08-23T09:16:42.620Z</time>
      </trkpt>
      <trkpt lat="43.88209" lon="6.20397">
        <ele>865</ele>
        <time>2026-08-23T09:16:52.626Z</time>
      </trkpt>
      <trkpt lat="43.88212" lon="6.20401">
        <ele>865.7</ele>
        <time>2026-08-23T09:17:02.627Z</time>
      </trkpt>
      <trkpt lat="43.88215" lon="6.20407">
        <ele>866.8</ele>
        <time>2026-08-23T09:17:07.915Z</time>
      </trkpt>
      <trkpt lat="43.88218" lon="6.20412">
        <ele>867.5</ele>
        <time>2026-08-23T09:17:12.628Z</time>
      </trkpt>
      <trkpt lat="43.88224" lon="6.2041">
        <ele>866.3</ele>
        <time>2026-08-23T09:17:23.640Z</time>
      </trkpt>
      <trkpt lat="43.88232" lon="6.2041">
        <ele>864.9</ele>
        <time>2026-08-23T09:17:33.640Z</time>
      </trkpt>
      <trkpt lat="43.88236" lon="6.20413">
        <ele>864.8</ele>
        <time>2026-08-23T09:17:39.141Z</time>
      </trkpt>
      <trkpt lat="43.8824" lon="6.20416">
        <ele>864.7</ele>
        <time>2026-08-23T09:17:44.642Z</time>
      </trkpt>
      <trkpt lat="43.88246" lon="6.20417">
        <ele>863.8</ele>
        <time>2026-08-23T09:17:50.114Z</time>
      </trkpt>
      <trkpt lat="43.88251" lon="6.20417">
        <ele>862.9</ele>
        <time>2026-08-23T09:17:54.643Z</time>
      </trkpt>
      <trkpt lat="43.88256" lon="6.20419">
        <ele>862.2</ele>
        <time>2026-08-23T09:18:00.823Z</time>
      </trkpt>
      <trkpt lat="43.8826" lon="6.2042">
        <ele>861.5</ele>
        <time>2026-08-23T09:18:05.651Z</time>
      </trkpt>
      <trkpt lat="43.88266" lon="6.20422">
        <ele>860.6</ele>
        <time>2026-08-23T09:18:11.595Z</time>
      </trkpt>
      <trkpt lat="43.88271" lon="6.20424">
        <ele>859.8</ele>
        <time>2026-08-23T09:18:16.609Z</time>
      </trkpt>
      <trkpt lat="43.88275" lon="6.20429">
        <ele>859.9</ele>
        <time>2026-08-23T09:18:21.828Z</time>
      </trkpt>
      <trkpt lat="43.88279" lon="6.20433">
        <ele>859.6</ele>
        <time>2026-08-23T09:18:26.609Z</time>
      </trkpt>
      <trkpt lat="43.88283" lon="6.20436">
        <ele>859</ele>
        <time>2026-08-23T09:18:31.609Z</time>
      </trkpt>
      <trkpt lat="43.88287" lon="6.20439">
        <ele>858.4</ele>
        <time>2026-08-23T09:18:36.609Z</time>
      </trkpt>
      <trkpt lat="43.88295" lon="6.20443">
        <ele>856.8</ele>
        <time>2026-08-23T09:18:46.609Z</time>
      </trkpt>
      <trkpt lat="43.883" lon="6.20445">
        <ele>855.7</ele>
        <time>2026-08-23T09:18:52.662Z</time>
      </trkpt>
      <trkpt lat="43.88304" lon="6.20447">
        <ele>854.7</ele>
        <time>2026-08-23T09:18:57.609Z</time>
      </trkpt>
      <trkpt lat="43.88312" lon="6.2045">
        <ele>853</ele>
        <time>2026-08-23T09:19:07.609Z</time>
      </trkpt>
      <trkpt lat="43.88317" lon="6.20452">
        <ele>851.9</ele>
        <time>2026-08-23T09:19:13.112Z</time>
      </trkpt>
      <trkpt lat="43.88321" lon="6.20454">
        <ele>851.1</ele>
        <time>2026-08-23T09:19:17.609Z</time>
      </trkpt>
      <trkpt lat="43.88329" lon="6.20457">
        <ele>849.4</ele>
        <time>2026-08-23T09:19:27.609Z</time>
      </trkpt>
      <trkpt lat="43.88333" lon="6.20461">
        <ele>848.9</ele>
        <time>2026-08-23T09:19:32.609Z</time>
      </trkpt>
      <trkpt lat="43.88337" lon="6.20465">
        <ele>848.2</ele>
        <time>2026-08-23T09:19:37.609Z</time>
      </trkpt>
      <trkpt lat="43.88341" lon="6.2047">
        <ele>847.6</ele>
        <time>2026-08-23T09:19:43.249Z</time>
      </trkpt>
      <trkpt lat="43.88344" lon="6.20474">
        <ele>847</ele>
        <time>2026-08-23T09:19:47.609Z</time>
      </trkpt>
      <trkpt lat="43.88345" lon="6.20481">
        <ele>847</ele>
        <time>2026-08-23T09:19:52.657Z</time>
      </trkpt>
      <trkpt lat="43.88345" lon="6.20488">
        <ele>847.2</ele>
        <time>2026-08-23T09:19:57.609Z</time>
      </trkpt>
      <trkpt lat="43.88345" lon="6.205">
        <ele>847.6</ele>
        <time>2026-08-23T09:20:07.609Z</time>
      </trkpt>
      <trkpt lat="43.88343" lon="6.20506">
        <ele>848</ele>
        <time>2026-08-23T09:20:12.608Z</time>
      </trkpt>
      <trkpt lat="43.88341" lon="6.20512">
        <ele>848.4</ele>
        <time>2026-08-23T09:20:17.609Z</time>
      </trkpt>
      <trkpt lat="43.8834" lon="6.20518">
        <ele>848.4</ele>
        <time>2026-08-23T09:20:22.431Z</time>
      </trkpt>
      <trkpt lat="43.88338" lon="6.20524">
        <ele>848.8</ele>
        <time>2026-08-23T09:20:27.609Z</time>
      </trkpt>
      <trkpt lat="43.88338" lon="6.20533">
        <ele>848.7</ele>
        <time>2026-08-23T09:20:37.610Z</time>
      </trkpt>
      <trkpt lat="43.8834" lon="6.20541">
        <ele>848.1</ele>
        <time>2026-08-23T09:20:43.431Z</time>
      </trkpt>
      <trkpt lat="43.88342" lon="6.20548">
        <ele>847.5</ele>
        <time>2026-08-23T09:20:48.609Z</time>
      </trkpt>
      <trkpt lat="43.88346" lon="6.20557">
        <ele>846.4</ele>
        <time>2026-08-23T09:20:58.609Z</time>
      </trkpt>
      <trkpt lat="43.88351" lon="6.20558">
        <ele>844.9</ele>
        <time>2026-08-23T09:21:08.609Z</time>
      </trkpt>
      <trkpt lat="43.88352" lon="6.20555">
        <ele>844.6</ele>
        <time>2026-08-23T09:21:40.642Z</time>
      </trkpt>
      <trkpt lat="43.88354" lon="6.20549">
        <ele>844</ele>
        <time>2026-08-23T09:21:46.294Z</time>
      </trkpt>
      <trkpt lat="43.88355" lon="6.20543">
        <ele>843.8</ele>
        <time>2026-08-23T09:21:51.561Z</time>
      </trkpt>
      <trkpt lat="43.88354" lon="6.20537">
        <ele>844</ele>
        <time>2026-08-23T09:21:56.229Z</time>
      </trkpt>
      <trkpt lat="43.88353" lon="6.2053">
        <ele>844.3</ele>
        <time>2026-08-23T09:22:01.640Z</time>
      </trkpt>
      <trkpt lat="43.88354" lon="6.20519">
        <ele>844.4</ele>
        <time>2026-08-23T09:22:11.640Z</time>
      </trkpt>
      <trkpt lat="43.8836" lon="6.20517">
        <ele>842.7</ele>
        <time>2026-08-23T09:22:22.625Z</time>
      </trkpt>
      <trkpt lat="43.88368" lon="6.20515">
        <ele>840.9</ele>
        <time>2026-08-23T09:22:32.660Z</time>
      </trkpt>
      <trkpt lat="43.88374" lon="6.20513">
        <ele>839.5</ele>
        <time>2026-08-23T09:22:38.599Z</time>
      </trkpt>
      <trkpt lat="43.88379" lon="6.20511">
        <ele>838.4</ele>
        <time>2026-08-23T09:22:43.608Z</time>
      </trkpt>
      <trkpt lat="43.88384" lon="6.2051">
        <ele>837.2</ele>
        <time>2026-08-23T09:22:48.623Z</time>
      </trkpt>
      <trkpt lat="43.88389" lon="6.20509">
        <ele>836</ele>
        <time>2026-08-23T09:22:53.639Z</time>
      </trkpt>
      <trkpt lat="43.88393" lon="6.205">
        <ele>835.6</ele>
        <time>2026-08-23T09:23:04.608Z</time>
      </trkpt>
      <trkpt lat="43.88389" lon="6.20492">
        <ele>836</ele>
        <time>2026-08-23T09:23:14.608Z</time>
      </trkpt>
      <trkpt lat="43.88391" lon="6.2048">
        <ele>835.7</ele>
        <time>2026-08-23T09:23:25.608Z</time>
      </trkpt>
      <trkpt lat="43.88394" lon="6.2047">
        <ele>835.1</ele>
        <time>2026-08-23T09:23:35.608Z</time>
      </trkpt>
      <trkpt lat="43.88393" lon="6.20459">
        <ele>834.5</ele>
        <time>2026-08-23T09:23:45.608Z</time>
      </trkpt>
      <trkpt lat="43.88395" lon="6.20447">
        <ele>833.3</ele>
        <time>2026-08-23T09:23:55.608Z</time>
      </trkpt>
      <trkpt lat="43.88396" lon="6.20437">
        <ele>832.5</ele>
        <time>2026-08-23T09:24:05.608Z</time>
      </trkpt>
      <trkpt lat="43.88398" lon="6.20431">
        <ele>831.9</ele>
        <time>2026-08-23T09:24:10.897Z</time>
      </trkpt>
      <trkpt lat="43.88399" lon="6.20424">
        <ele>831.3</ele>
        <time>2026-08-23T09:24:16.608Z</time>
      </trkpt>
      <trkpt lat="43.88403" lon="6.20417">
        <ele>830.5</ele>
        <time>2026-08-23T09:24:22.125Z</time>
      </trkpt>
      <trkpt lat="43.88407" lon="6.2041">
        <ele>829.7</ele>
        <time>2026-08-23T09:24:27.643Z</time>
      </trkpt>
      <trkpt lat="43.8841" lon="6.20403">
        <ele>829.1</ele>
        <time>2026-08-23T09:24:33.129Z</time>
      </trkpt>
      <trkpt lat="43.88413" lon="6.20396">
        <ele>828.6</ele>
        <time>2026-08-23T09:24:38.616Z</time>
      </trkpt>
      <trkpt lat="43.88417" lon="6.20389">
        <ele>828</ele>
        <time>2026-08-23T09:24:43.884Z</time>
      </trkpt>
      <trkpt lat="43.88421" lon="6.20381">
        <ele>827.6</ele>
        <time>2026-08-23T09:24:49.626Z</time>
      </trkpt>
      <trkpt lat="43.88424" lon="6.20374">
        <ele>827.3</ele>
        <time>2026-08-23T09:24:55.348Z</time>
      </trkpt>
      <trkpt lat="43.88426" lon="6.20367">
        <ele>827.1</ele>
        <time>2026-08-23T09:25:00.640Z</time>
      </trkpt>
      <trkpt lat="43.8843" lon="6.20361">
        <ele>827</ele>
        <time>2026-08-23T09:25:06.133Z</time>
      </trkpt>
      <trkpt lat="43.88433" lon="6.20354">
        <ele>826.7</ele>
        <time>2026-08-23T09:25:11.608Z</time>
      </trkpt>
      <trkpt lat="43.88438" lon="6.20352">
        <ele>826.7</ele>
        <time>2026-08-23T09:25:16.628Z</time>
      </trkpt>
      <trkpt lat="43.88443" lon="6.2035">
        <ele>826.6</ele>
        <time>2026-08-23T09:25:21.649Z</time>
      </trkpt>
      <trkpt lat="43.88449" lon="6.20341">
        <ele>826.6</ele>
        <time>2026-08-23T09:25:32.659Z</time>
      </trkpt>
      <trkpt lat="43.88451" lon="6.20335">
        <ele>826.5</ele>
        <time>2026-08-23T09:25:38.163Z</time>
      </trkpt>
      <trkpt lat="43.88453" lon="6.20329">
        <ele>826.4</ele>
        <time>2026-08-23T09:25:43.667Z</time>
      </trkpt>
      <trkpt lat="43.88454" lon="6.20322">
        <ele>826</ele>
        <time>2026-08-23T09:25:49.132Z</time>
      </trkpt>
      <trkpt lat="43.88455" lon="6.20315">
        <ele>825.7</ele>
        <time>2026-08-23T09:25:54.598Z</time>
      </trkpt>
      <trkpt lat="43.88457" lon="6.20307">
        <ele>825.4</ele>
        <time>2026-08-23T09:26:00.103Z</time>
      </trkpt>
      <trkpt lat="43.88459" lon="6.20299">
        <ele>825</ele>
        <time>2026-08-23T09:26:05.608Z</time>
      </trkpt>
      <trkpt lat="43.88461" lon="6.20291">
        <ele>824.4</ele>
        <time>2026-08-23T09:26:10.815Z</time>
      </trkpt>
      <trkpt lat="43.88463" lon="6.20282">
        <ele>823.7</ele>
        <time>2026-08-23T09:26:16.608Z</time>
      </trkpt>
      <trkpt lat="43.88466" lon="6.20275">
        <ele>823.2</ele>
        <time>2026-08-23T09:26:21.608Z</time>
      </trkpt>
      <trkpt lat="43.88469" lon="6.20268">
        <ele>822.4</ele>
        <time>2026-08-23T09:26:26.608Z</time>
      </trkpt>
      <trkpt lat="43.88472" lon="6.2026">
        <ele>821.4</ele>
        <time>2026-08-23T09:26:31.608Z</time>
      </trkpt>
      <trkpt lat="43.88475" lon="6.20252">
        <ele>820.3</ele>
        <time>2026-08-23T09:26:36.608Z</time>
      </trkpt>
      <trkpt lat="43.88478" lon="6.20247">
        <ele>819.8</ele>
        <time>2026-08-23T09:26:41.319Z</time>
      </trkpt>
      <trkpt lat="43.88481" lon="6.20241">
        <ele>819.4</ele>
        <time>2026-08-23T09:26:46.608Z</time>
      </trkpt>
      <trkpt lat="43.88487" lon="6.20241">
        <ele>819.4</ele>
        <time>2026-08-23T09:26:56.608Z</time>
      </trkpt>
      <trkpt lat="43.88489" lon="6.20243">
        <ele>819.5</ele>
        <time>2026-08-23T09:27:38.608Z</time>
      </trkpt>
      <trkpt lat="43.88497" lon="6.20239">
        <ele>819.2</ele>
        <time>2026-08-23T09:27:48.643Z</time>
      </trkpt>
      <trkpt lat="43.88502" lon="6.20239">
        <ele>819.2</ele>
        <time>2026-08-23T09:27:54.738Z</time>
      </trkpt>
      <trkpt lat="43.88506" lon="6.20239">
        <ele>819.1</ele>
        <time>2026-08-23T09:27:59.615Z</time>
      </trkpt>
      <trkpt lat="43.88514" lon="6.20239">
        <ele>818.9</ele>
        <time>2026-08-23T09:28:10.607Z</time>
      </trkpt>
      <trkpt lat="43.88522" lon="6.20238">
        <ele>818.7</ele>
        <time>2026-08-23T09:28:20.686Z</time>
      </trkpt>
      <trkpt lat="43.88526" lon="6.20237">
        <ele>818.6</ele>
        <time>2026-08-23T09:28:31.626Z</time>
      </trkpt>
      <trkpt lat="43.88531" lon="6.20234">
        <ele>818.7</ele>
        <time>2026-08-23T09:28:42.561Z</time>
      </trkpt>
      <trkpt lat="43.88538" lon="6.20231">
        <ele>819.2</ele>
        <time>2026-08-23T09:28:52.644Z</time>
      </trkpt>
      <trkpt lat="43.8854" lon="6.2022">
        <ele>819.4</ele>
        <time>2026-08-23T09:29:03.600Z</time>
      </trkpt>
      <trkpt lat="43.88545" lon="6.20224">
        <ele>819.8</ele>
        <time>2026-08-23T09:29:09.218Z</time>
      </trkpt>
      <trkpt lat="43.88549" lon="6.20227">
        <ele>820.2</ele>
        <time>2026-08-23T09:29:13.645Z</time>
      </trkpt>
      <trkpt lat="43.88554" lon="6.20226">
        <ele>820.7</ele>
        <time>2026-08-23T09:29:24.639Z</time>
      </trkpt>
      <trkpt lat="43.88559" lon="6.2023">
        <ele>821.4</ele>
        <time>2026-08-23T09:29:42.607Z</time>
      </trkpt>
      <trkpt lat="43.88566" lon="6.20224">
        <ele>823.2</ele>
        <time>2026-08-23T09:29:52.607Z</time>
      </trkpt>
      <trkpt lat="43.8857" lon="6.20214">
        <ele>824.4</ele>
        <time>2026-08-23T09:30:02.634Z</time>
      </trkpt>
      <trkpt lat="43.88576" lon="6.20205">
        <ele>826</ele>
        <time>2026-08-23T09:30:13.609Z</time>
      </trkpt>
      <trkpt lat="43.88578" lon="6.20199">
        <ele>826.7</ele>
        <time>2026-08-23T09:30:18.897Z</time>
      </trkpt>
      <trkpt lat="43.88579" lon="6.20192">
        <ele>827.2</ele>
        <time>2026-08-23T09:30:24.607Z</time>
      </trkpt>
      <trkpt lat="43.88581" lon="6.20186">
        <ele>828.1</ele>
        <time>2026-08-23T09:30:34.607Z</time>
      </trkpt>
      <trkpt lat="43.88583" lon="6.20176">
        <ele>829.2</ele>
        <time>2026-08-23T09:30:44.634Z</time>
      </trkpt>
      <trkpt lat="43.88584" lon="6.20167">
        <ele>830.2</ele>
        <time>2026-08-23T09:30:54.665Z</time>
      </trkpt>
      <trkpt lat="43.88586" lon="6.20156">
        <ele>831.5</ele>
        <time>2026-08-23T09:31:05.505Z</time>
      </trkpt>
      <trkpt lat="43.8859" lon="6.20149">
        <ele>833.4</ele>
        <time>2026-08-23T09:31:15.665Z</time>
      </trkpt>
      <trkpt lat="43.88592" lon="6.20139">
        <ele>834.7</ele>
        <time>2026-08-23T09:31:26.639Z</time>
      </trkpt>
      <trkpt lat="43.88594" lon="6.20128">
        <ele>835.8</ele>
        <time>2026-08-23T09:31:37.615Z</time>
      </trkpt>
      <trkpt lat="43.88595" lon="6.20118">
        <ele>836.5</ele>
        <time>2026-08-23T09:31:48.402Z</time>
      </trkpt>
      <trkpt lat="43.88595" lon="6.2011">
        <ele>836.6</ele>
        <time>2026-08-23T09:31:58.607Z</time>
      </trkpt>
      <trkpt lat="43.88598" lon="6.20103">
        <ele>837.7</ele>
        <time>2026-08-23T09:32:08.643Z</time>
      </trkpt>
      <trkpt lat="43.88598" lon="6.20095">
        <ele>837.5</ele>
        <time>2026-08-23T09:32:19.618Z</time>
      </trkpt>
      <trkpt lat="43.88599" lon="6.20088">
        <ele>837.7</ele>
        <time>2026-08-23T09:32:30.607Z</time>
      </trkpt>
      <trkpt lat="43.88602" lon="6.20087">
        <ele>838.8</ele>
        <time>2026-08-23T09:33:10.220Z</time>
      </trkpt>
      <trkpt lat="43.88607" lon="6.20083">
        <ele>840.5</ele>
        <time>2026-08-23T09:33:20.608Z</time>
      </trkpt>
      <trkpt lat="43.8861" lon="6.20077">
        <ele>841.2</ele>
        <time>2026-08-23T09:33:30.629Z</time>
      </trkpt>
      <trkpt lat="43.88615" lon="6.20072">
        <ele>842.6</ele>
        <time>2026-08-23T09:33:41.607Z</time>
      </trkpt>
      <trkpt lat="43.88619" lon="6.2007">
        <ele>843.8</ele>
        <time>2026-08-23T09:33:51.607Z</time>
      </trkpt>
      <trkpt lat="43.88624" lon="6.20068">
        <ele>845.2</ele>
        <time>2026-08-23T09:34:01.646Z</time>
      </trkpt>
      <trkpt lat="43.8863" lon="6.20064">
        <ele>846.7</ele>
        <time>2026-08-23T09:34:12.616Z</time>
      </trkpt>
      <trkpt lat="43.88632" lon="6.20064">
        <ele>847.3</ele>
        <time>2026-08-23T09:34:46.579Z</time>
      </trkpt>
      <trkpt lat="43.8864" lon="6.20059">
        <ele>849</ele>
        <time>2026-08-23T09:34:56.629Z</time>
      </trkpt>
      <trkpt lat="43.88644" lon="6.20055">
        <ele>849.8</ele>
        <time>2026-08-23T09:35:07.606Z</time>
      </trkpt>
      <trkpt lat="43.88645" lon="6.20054">
        <ele>850</ele>
        <time>2026-08-23T09:35:24.629Z</time>
      </trkpt>
      <trkpt lat="43.88651" lon="6.20051">
        <ele>851.7</ele>
        <time>2026-08-23T09:35:35.606Z</time>
      </trkpt>
      <trkpt lat="43.88658" lon="6.20055">
        <ele>854.8</ele>
        <time>2026-08-23T09:35:45.625Z</time>
      </trkpt>
      <trkpt lat="43.88662" lon="6.20055">
        <ele>856.2</ele>
        <time>2026-08-23T09:35:55.647Z</time>
      </trkpt>
      <trkpt lat="43.88664" lon="6.20059">
        <ele>857.8</ele>
        <time>2026-08-23T09:36:06.625Z</time>
      </trkpt>
      <trkpt lat="43.88669" lon="6.20062">
        <ele>860.3</ele>
        <time>2026-08-23T09:36:17.606Z</time>
      </trkpt>
      <trkpt lat="43.88675" lon="6.20058">
        <ele>861.8</ele>
        <time>2026-08-23T09:36:27.606Z</time>
      </trkpt>
      <trkpt lat="43.8868" lon="6.20057">
        <ele>863.6</ele>
        <time>2026-08-23T09:36:37.619Z</time>
      </trkpt>
      <trkpt lat="43.88684" lon="6.20052">
        <ele>864.1</ele>
        <time>2026-08-23T09:36:48.616Z</time>
      </trkpt>
      <trkpt lat="43.8869" lon="6.20047">
        <ele>865.4</ele>
        <time>2026-08-23T09:36:59.606Z</time>
      </trkpt>
      <trkpt lat="43.88692" lon="6.20044">
        <ele>865.6</ele>
        <time>2026-08-23T09:37:09.606Z</time>
      </trkpt>
      <trkpt lat="43.88693" lon="6.20044">
        <ele>866</ele>
        <time>2026-08-23T09:38:04.642Z</time>
      </trkpt>
      <trkpt lat="43.887" lon="6.2004">
        <ele>867.8</ele>
        <time>2026-08-23T09:38:15.606Z</time>
      </trkpt>
      <trkpt lat="43.88704" lon="6.20033">
        <ele>867.8</ele>
        <time>2026-08-23T09:38:25.659Z</time>
      </trkpt>
      <trkpt lat="43.88707" lon="6.20028">
        <ele>868</ele>
        <time>2026-08-23T09:38:30.806Z</time>
      </trkpt>
      <trkpt lat="43.8871" lon="6.20022">
        <ele>868.1</ele>
        <time>2026-08-23T09:38:36.584Z</time>
      </trkpt>
      <trkpt lat="43.88714" lon="6.20012">
        <ele>867.9</ele>
        <time>2026-08-23T09:38:46.606Z</time>
      </trkpt>
      <trkpt lat="43.88719" lon="6.20006">
        <ele>868.8</ele>
        <time>2026-08-23T09:38:56.634Z</time>
      </trkpt>
      <trkpt lat="43.88726" lon="6.19999">
        <ele>870.3</ele>
        <time>2026-08-23T09:39:07.610Z</time>
      </trkpt>
      <trkpt lat="43.88733" lon="6.19994">
        <ele>871.9</ele>
        <time>2026-08-23T09:39:18.605Z</time>
      </trkpt>
      <trkpt lat="43.88738" lon="6.19987">
        <ele>872.2</ele>
        <time>2026-08-23T09:39:38.635Z</time>
      </trkpt>
      <trkpt lat="43.88742" lon="6.19983">
        <ele>872.7</ele>
        <time>2026-08-23T09:39:44.080Z</time>
      </trkpt>
      <trkpt lat="43.88746" lon="6.19979">
        <ele>873.2</ele>
        <time>2026-08-23T09:39:49.526Z</time>
      </trkpt>
      <trkpt lat="43.8875" lon="6.1997">
        <ele>872.5</ele>
        <time>2026-08-23T09:39:59.605Z</time>
      </trkpt>
      <trkpt lat="43.88756" lon="6.19962">
        <ele>873.3</ele>
        <time>2026-08-23T09:40:09.605Z</time>
      </trkpt>
      <trkpt lat="43.88759" lon="6.19957">
        <ele>873.4</ele>
        <time>2026-08-23T09:40:14.800Z</time>
      </trkpt>
      <trkpt lat="43.88762" lon="6.19951">
        <ele>873.3</ele>
        <time>2026-08-23T09:40:20.632Z</time>
      </trkpt>
      <trkpt lat="43.88766" lon="6.19948">
        <ele>874.2</ele>
        <time>2026-08-23T09:40:31.605Z</time>
      </trkpt>
      <trkpt lat="43.8877" lon="6.19942">
        <ele>874.5</ele>
        <time>2026-08-23T09:40:55.605Z</time>
      </trkpt>
      <trkpt lat="43.88771" lon="6.19938">
        <ele>874.3</ele>
        <time>2026-08-23T09:41:28.609Z</time>
      </trkpt>
      <trkpt lat="43.88772" lon="6.1993">
        <ele>873.3</ele>
        <time>2026-08-23T09:41:33.824Z</time>
      </trkpt>
      <trkpt lat="43.88772" lon="6.19921">
        <ele>871.8</ele>
        <time>2026-08-23T09:41:39.605Z</time>
      </trkpt>
      <trkpt lat="43.88776" lon="6.19916">
        <ele>872.3</ele>
        <time>2026-08-23T09:41:45.105Z</time>
      </trkpt>
      <trkpt lat="43.8878" lon="6.19911">
        <ele>872.9</ele>
        <time>2026-08-23T09:41:50.605Z</time>
      </trkpt>
      <trkpt lat="43.88781" lon="6.19901">
        <ele>871.7</ele>
        <time>2026-08-23T09:42:00.623Z</time>
      </trkpt>
      <trkpt lat="43.88785" lon="6.19894">
        <ele>871.7</ele>
        <time>2026-08-23T09:42:06.367Z</time>
      </trkpt>
      <trkpt lat="43.88788" lon="6.19887">
        <ele>871.4</ele>
        <time>2026-08-23T09:42:11.605Z</time>
      </trkpt>
      <trkpt lat="43.88793" lon="6.19884">
        <ele>872.2</ele>
        <time>2026-08-23T09:42:16.635Z</time>
      </trkpt>
      <trkpt lat="43.88798" lon="6.19881">
        <ele>872.9</ele>
        <time>2026-08-23T09:42:21.666Z</time>
      </trkpt>
      <trkpt lat="43.88803" lon="6.1988">
        <ele>873.8</ele>
        <time>2026-08-23T09:42:27.745Z</time>
      </trkpt>
      <trkpt lat="43.88807" lon="6.19879">
        <ele>874.5</ele>
        <time>2026-08-23T09:42:32.637Z</time>
      </trkpt>
      <trkpt lat="43.88815" lon="6.19881">
        <ele>876.5</ele>
        <time>2026-08-23T09:42:43.525Z</time>
      </trkpt>
      <trkpt lat="43.88822" lon="6.19877">
        <ele>877.2</ele>
        <time>2026-08-23T09:42:53.606Z</time>
      </trkpt>
      <trkpt lat="43.88827" lon="6.19874">
        <ele>877.5</ele>
        <time>2026-08-23T09:42:59.105Z</time>
      </trkpt>
      <trkpt lat="43.88832" lon="6.19871">
        <ele>877.9</ele>
        <time>2026-08-23T09:43:04.605Z</time>
      </trkpt>
      <trkpt lat="43.88836" lon="6.19864">
        <ele>877.3</ele>
        <time>2026-08-23T09:43:14.642Z</time>
      </trkpt>
      <trkpt lat="43.88839" lon="6.19855">
        <ele>876.6</ele>
        <time>2026-08-23T09:43:25.605Z</time>
      </trkpt>
      <trkpt lat="43.88841" lon="6.19851">
        <ele>876.6</ele>
        <time>2026-08-23T09:43:41.664Z</time>
      </trkpt>
      <trkpt lat="43.88844" lon="6.1984">
        <ele>875.9</ele>
        <time>2026-08-23T09:43:52.523Z</time>
      </trkpt>
      <trkpt lat="43.88843" lon="6.19832">
        <ele>874.7</ele>
        <time>2026-08-23T09:43:57.581Z</time>
      </trkpt>
      <trkpt lat="43.88842" lon="6.19824">
        <ele>873.6</ele>
        <time>2026-08-23T09:44:02.641Z</time>
      </trkpt>
      <trkpt lat="43.88844" lon="6.19817">
        <ele>873.5</ele>
        <time>2026-08-23T09:44:13.612Z</time>
      </trkpt>
      <trkpt lat="43.88846" lon="6.19805">
        <ele>873</ele>
        <time>2026-08-23T09:44:24.605Z</time>
      </trkpt>
      <trkpt lat="43.88846" lon="6.19804">
        <ele>872.9</ele>
        <time>2026-08-23T09:44:41.606Z</time>
      </trkpt>
      <trkpt lat="43.88848" lon="6.19801">
        <ele>873.3</ele>
        <time>2026-08-23T09:44:52.605Z</time>
      </trkpt>
      <trkpt lat="43.88852" lon="6.19795">
        <ele>873.9</ele>
        <time>2026-08-23T09:45:03.604Z</time>
      </trkpt>
      <trkpt lat="43.88855" lon="6.19789">
        <ele>874.2</ele>
        <time>2026-08-23T09:45:08.865Z</time>
      </trkpt>
      <trkpt lat="43.88857" lon="6.19783">
        <ele>874.2</ele>
        <time>2026-08-23T09:45:13.629Z</time>
      </trkpt>
      <trkpt lat="43.88859" lon="6.19771">
        <ele>873.6</ele>
        <time>2026-08-23T09:45:24.606Z</time>
      </trkpt>
      <trkpt lat="43.88861" lon="6.19764">
        <ele>873.5</ele>
        <time>2026-08-23T09:45:30.105Z</time>
      </trkpt>
      <trkpt lat="43.88863" lon="6.19757">
        <ele>873.2</ele>
        <time>2026-08-23T09:45:35.604Z</time>
      </trkpt>
      <trkpt lat="43.88865" lon="6.19751">
        <ele>873.1</ele>
        <time>2026-08-23T09:45:40.412Z</time>
      </trkpt>
      <trkpt lat="43.88866" lon="6.19744">
        <ele>872.5</ele>
        <time>2026-08-23T09:45:45.604Z</time>
      </trkpt>
      <trkpt lat="43.88867" lon="6.19732">
        <ele>871.4</ele>
        <time>2026-08-23T09:45:55.620Z</time>
      </trkpt>
      <trkpt lat="43.88867" lon="6.19724">
        <ele>870.5</ele>
        <time>2026-08-23T09:46:01.112Z</time>
      </trkpt>
      <trkpt lat="43.88867" lon="6.19716">
        <ele>869.6</ele>
        <time>2026-08-23T09:46:06.604Z</time>
      </trkpt>
      <trkpt lat="43.8887" lon="6.19706">
        <ele>869</ele>
        <time>2026-08-23T09:46:16.604Z</time>
      </trkpt>
      <trkpt lat="43.88873" lon="6.197">
        <ele>868.8</ele>
        <time>2026-08-23T09:46:21.331Z</time>
      </trkpt>
      <trkpt lat="43.88876" lon="6.19693">
        <ele>868.5</ele>
        <time>2026-08-23T09:46:26.604Z</time>
      </trkpt>
      <trkpt lat="43.88878" lon="6.19686">
        <ele>867.9</ele>
        <time>2026-08-23T09:46:32.133Z</time>
      </trkpt>
      <trkpt lat="43.8888" lon="6.19679">
        <ele>867.4</ele>
        <time>2026-08-23T09:46:37.663Z</time>
      </trkpt>
      <trkpt lat="43.88883" lon="6.19674">
        <ele>867.2</ele>
        <time>2026-08-23T09:46:42.817Z</time>
      </trkpt>
      <trkpt lat="43.88886" lon="6.19668">
        <ele>866.8</ele>
        <time>2026-08-23T09:46:48.604Z</time>
      </trkpt>
      <trkpt lat="43.8889" lon="6.19663">
        <ele>866.3</ele>
        <time>2026-08-23T09:46:53.948Z</time>
      </trkpt>
      <trkpt lat="43.88893" lon="6.19658">
        <ele>865.5</ele>
        <time>2026-08-23T09:46:58.604Z</time>
      </trkpt>
      <trkpt lat="43.88897" lon="6.19653">
        <ele>864.8</ele>
        <time>2026-08-23T09:47:03.666Z</time>
      </trkpt>
      <trkpt lat="43.889" lon="6.19647">
        <ele>863.8</ele>
        <time>2026-08-23T09:47:08.616Z</time>
      </trkpt>
      <trkpt lat="43.88904" lon="6.19643">
        <ele>863.4</ele>
        <time>2026-08-23T09:47:14.110Z</time>
      </trkpt>
      <trkpt lat="43.88908" lon="6.19639">
        <ele>863.1</ele>
        <time>2026-08-23T09:47:19.604Z</time>
      </trkpt>
      <trkpt lat="43.88912" lon="6.19635">
        <ele>862.7</ele>
        <time>2026-08-23T09:47:25.569Z</time>
      </trkpt>
      <trkpt lat="43.88915" lon="6.19631">
        <ele>862.4</ele>
        <time>2026-08-23T09:47:30.604Z</time>
      </trkpt>
      <trkpt lat="43.88919" lon="6.19626">
        <ele>861.9</ele>
        <time>2026-08-23T09:47:35.618Z</time>
      </trkpt>
      <trkpt lat="43.88923" lon="6.19621">
        <ele>861.4</ele>
        <time>2026-08-23T09:47:40.632Z</time>
      </trkpt>
      <trkpt lat="43.88925" lon="6.19614">
        <ele>860.4</ele>
        <time>2026-08-23T09:47:46.266Z</time>
      </trkpt>
      <trkpt lat="43.88926" lon="6.19607">
        <ele>859.2</ele>
        <time>2026-08-23T09:47:51.606Z</time>
      </trkpt>
      <trkpt lat="43.88927" lon="6.19599">
        <ele>857.8</ele>
        <time>2026-08-23T09:47:57.145Z</time>
      </trkpt>
      <trkpt lat="43.88927" lon="6.19591">
        <ele>856.3</ele>
        <time>2026-08-23T09:48:02.604Z</time>
      </trkpt>
      <trkpt lat="43.88931" lon="6.19581">
        <ele>855.2</ele>
        <time>2026-08-23T09:48:12.625Z</time>
      </trkpt>
      <trkpt lat="43.88935" lon="6.19574">
        <ele>855</ele>
        <time>2026-08-23T09:48:23.629Z</time>
      </trkpt>
      <trkpt lat="43.88938" lon="6.19569">
        <ele>854.8</ele>
        <time>2026-08-23T09:48:29.117Z</time>
      </trkpt>
      <trkpt lat="43.88941" lon="6.19564">
        <ele>854.6</ele>
        <time>2026-08-23T09:48:34.606Z</time>
      </trkpt>
      <trkpt lat="43.88947" lon="6.19557">
        <ele>854.2</ele>
        <time>2026-08-23T09:48:45.604Z</time>
      </trkpt>
      <trkpt lat="43.88953" lon="6.19557">
        <ele>854.2</ele>
        <time>2026-08-23T09:48:55.604Z</time>
      </trkpt>
      <trkpt lat="43.88954" lon="6.19563">
        <ele>855.1</ele>
        <time>2026-08-23T09:50:47.604Z</time>
      </trkpt>
      <trkpt lat="43.88952" lon="6.19574">
        <ele>856.7</ele>
        <time>2026-08-23T09:50:57.638Z</time>
      </trkpt>
      <trkpt lat="43.88952" lon="6.19581">
        <ele>857.7</ele>
        <time>2026-08-23T09:51:08.610Z</time>
      </trkpt>
      <trkpt lat="43.88953" lon="6.19591">
        <ele>859</ele>
        <time>2026-08-23T09:51:18.643Z</time>
      </trkpt>
      <trkpt lat="43.88955" lon="6.196">
        <ele>860.2</ele>
        <time>2026-08-23T09:51:28.644Z</time>
      </trkpt>
      <trkpt lat="43.88958" lon="6.1961">
        <ele>861.4</ele>
        <time>2026-08-23T09:51:39.617Z</time>
      </trkpt>
      <trkpt lat="43.88957" lon="6.19621">
        <ele>862.8</ele>
        <time>2026-08-23T09:51:50.604Z</time>
      </trkpt>
      <trkpt lat="43.88954" lon="6.19631">
        <ele>864.3</ele>
        <time>2026-08-23T09:52:00.604Z</time>
      </trkpt>
      <trkpt lat="43.88954" lon="6.19641">
        <ele>865.6</ele>
        <time>2026-08-23T09:52:10.628Z</time>
      </trkpt>
      <trkpt lat="43.88954" lon="6.19653">
        <ele>867.3</ele>
        <time>2026-08-23T09:52:21.604Z</time>
      </trkpt>
      <trkpt lat="43.88953" lon="6.1966">
        <ele>868.4</ele>
        <time>2026-08-23T09:52:31.604Z</time>
      </trkpt>
      <trkpt lat="43.88953" lon="6.1967">
        <ele>869.9</ele>
        <time>2026-08-23T09:52:41.641Z</time>
      </trkpt>
      <trkpt lat="43.88954" lon="6.1968">
        <ele>871.5</ele>
        <time>2026-08-23T09:52:52.617Z</time>
      </trkpt>
      <trkpt lat="43.88953" lon="6.19686">
        <ele>872.6</ele>
        <time>2026-08-23T09:53:03.603Z</time>
      </trkpt>
      <trkpt lat="43.88953" lon="6.19695">
        <ele>874.1</ele>
        <time>2026-08-23T09:53:13.603Z</time>
      </trkpt>
      <trkpt lat="43.8895" lon="6.19704">
        <ele>875.4</ele>
        <time>2026-08-23T09:53:23.641Z</time>
      </trkpt>
      <trkpt lat="43.88947" lon="6.19713">
        <ele>876.7</ele>
        <time>2026-08-23T09:53:34.613Z</time>
      </trkpt>
      <trkpt lat="43.88944" lon="6.19724">
        <ele>878.2</ele>
        <time>2026-08-23T09:53:45.603Z</time>
      </trkpt>
      <trkpt lat="43.88943" lon="6.19734">
        <ele>879.3</ele>
        <time>2026-08-23T09:53:55.604Z</time>
      </trkpt>
      <trkpt lat="43.88941" lon="6.19745">
        <ele>880.6</ele>
        <time>2026-08-23T09:54:05.607Z</time>
      </trkpt>
      <trkpt lat="43.88939" lon="6.19756">
        <ele>881.5</ele>
        <time>2026-08-23T09:54:15.669Z</time>
      </trkpt>
      <trkpt lat="43.88937" lon="6.19765">
        <ele>882</ele>
        <time>2026-08-23T09:54:26.629Z</time>
      </trkpt>
      <trkpt lat="43.88936" lon="6.19774">
        <ele>882.4</ele>
        <time>2026-08-23T09:54:36.704Z</time>
      </trkpt>
      <trkpt lat="43.88936" lon="6.19782">
        <ele>882.9</ele>
        <time>2026-08-23T09:54:42.464Z</time>
      </trkpt>
      <trkpt lat="43.88935" lon="6.19789">
        <ele>883.5</ele>
        <time>2026-08-23T09:54:47.603Z</time>
      </trkpt>
      <trkpt lat="43.88936" lon="6.19794">
        <ele>883.8</ele>
        <time>2026-08-23T09:55:07.563Z</time>
      </trkpt>
      <trkpt lat="43.88934" lon="6.19801">
        <ele>884.4</ele>
        <time>2026-08-23T09:55:12.913Z</time>
      </trkpt>
      <trkpt lat="43.88932" lon="6.19807">
        <ele>885</ele>
        <time>2026-08-23T09:55:17.611Z</time>
      </trkpt>
      <trkpt lat="43.88929" lon="6.19818">
        <ele>885.8</ele>
        <time>2026-08-23T09:55:27.672Z</time>
      </trkpt>
      <trkpt lat="43.88928" lon="6.19828">
        <ele>886.5</ele>
        <time>2026-08-23T09:55:38.617Z</time>
      </trkpt>
      <trkpt lat="43.88924" lon="6.19836">
        <ele>887.4</ele>
        <time>2026-08-23T09:55:49.580Z</time>
      </trkpt>
      <trkpt lat="43.88924" lon="6.19845">
        <ele>888</ele>
        <time>2026-08-23T09:55:59.603Z</time>
      </trkpt>
      <trkpt lat="43.88925" lon="6.19851">
        <ele>888.4</ele>
        <time>2026-08-23T09:57:59.640Z</time>
      </trkpt>
      <trkpt lat="43.88924" lon="6.19858">
        <ele>889</ele>
        <time>2026-08-23T09:58:05.557Z</time>
      </trkpt>
      <trkpt lat="43.88923" lon="6.19864">
        <ele>889.5</ele>
        <time>2026-08-23T09:58:10.664Z</time>
      </trkpt>
      <trkpt lat="43.88924" lon="6.19872">
        <ele>890</ele>
        <time>2026-08-23T09:58:21.666Z</time>
      </trkpt>
      <trkpt lat="43.88924" lon="6.19879">
        <ele>890.5</ele>
        <time>2026-08-23T09:58:27.567Z</time>
      </trkpt>
      <trkpt lat="43.88924" lon="6.19885">
        <ele>890.9</ele>
        <time>2026-08-23T09:58:32.625Z</time>
      </trkpt>
      <trkpt lat="43.88923" lon="6.19896">
        <ele>892.1</ele>
        <time>2026-08-23T09:58:42.690Z</time>
      </trkpt>
      <trkpt lat="43.88922" lon="6.19902">
        <ele>892.8</ele>
        <time>2026-08-23T09:58:47.977Z</time>
      </trkpt>
      <trkpt lat="43.8892" lon="6.19908">
        <ele>893.7</ele>
        <time>2026-08-23T09:58:53.653Z</time>
      </trkpt>
      <trkpt lat="43.88917" lon="6.19918">
        <ele>895.1</ele>
        <time>2026-08-23T09:59:04.609Z</time>
      </trkpt>
      <trkpt lat="43.88915" lon="6.1992">
        <ele>895.4</ele>
        <time>2026-08-23T09:59:28.634Z</time>
      </trkpt>
      <trkpt lat="43.88913" lon="6.19921">
        <ele>895.5</ele>
        <time>2026-08-23T09:59:49.680Z</time>
      </trkpt>
      <trkpt lat="43.88912" lon="6.19925">
        <ele>896</ele>
        <time>2026-08-23T10:00:00.602Z</time>
      </trkpt>
      <trkpt lat="43.88915" lon="6.19932">
        <ele>896.7</ele>
        <time>2026-08-23T10:00:10.639Z</time>
      </trkpt>
      <trkpt lat="43.88916" lon="6.19939">
        <ele>897.5</ele>
        <time>2026-08-23T10:00:15.708Z</time>
      </trkpt>
      <trkpt lat="43.88916" lon="6.19946">
        <ele>898.3</ele>
        <time>2026-08-23T10:00:20.682Z</time>
      </trkpt>
      <trkpt lat="43.88914" lon="6.19952">
        <ele>899.3</ele>
        <time>2026-08-23T10:00:31.635Z</time>
      </trkpt>
      <trkpt lat="43.88915" lon="6.19963">
        <ele>900.8</ele>
        <time>2026-08-23T10:00:42.664Z</time>
      </trkpt>
      <trkpt lat="43.88911" lon="6.19973">
        <ele>902.5</ele>
        <time>2026-08-23T10:00:53.602Z</time>
      </trkpt>
      <trkpt lat="43.8891" lon="6.19978">
        <ele>903.2</ele>
        <time>2026-08-23T10:01:03.609Z</time>
      </trkpt>
      <trkpt lat="43.88912" lon="6.19979">
        <ele>903.1</ele>
        <time>2026-08-23T10:01:30.659Z</time>
      </trkpt>
      <trkpt lat="43.88911" lon="6.19988">
        <ele>904.2</ele>
        <time>2026-08-23T10:01:36.329Z</time>
      </trkpt>
      <trkpt lat="43.88909" lon="6.19996">
        <ele>905.4</ele>
        <time>2026-08-23T10:01:41.602Z</time>
      </trkpt>
      <trkpt lat="43.88909" lon="6.20003">
        <ele>906.2</ele>
        <time>2026-08-23T10:01:51.640Z</time>
      </trkpt>
      <trkpt lat="43.88909" lon="6.20007">
        <ele>906.6</ele>
        <time>2026-08-23T10:02:01.644Z</time>
      </trkpt>
      <trkpt lat="43.8891" lon="6.20015">
        <ele>907.3</ele>
        <time>2026-08-23T10:02:12.601Z</time>
      </trkpt>
      <trkpt lat="43.88911" lon="6.20022">
        <ele>908</ele>
        <time>2026-08-23T10:02:18.033Z</time>
      </trkpt>
      <trkpt lat="43.88911" lon="6.20028">
        <ele>908.6</ele>
        <time>2026-08-23T10:02:22.601Z</time>
      </trkpt>
      <trkpt lat="43.88912" lon="6.2004">
        <ele>909.8</ele>
        <time>2026-08-23T10:02:32.601Z</time>
      </trkpt>
      <trkpt lat="43.8891" lon="6.2005">
        <ele>910.9</ele>
        <time>2026-08-23T10:02:42.602Z</time>
      </trkpt>
      <trkpt lat="43.88908" lon="6.20057">
        <ele>911.7</ele>
        <time>2026-08-23T10:02:52.602Z</time>
      </trkpt>
      <trkpt lat="43.88908" lon="6.20066">
        <ele>912.4</ele>
        <time>2026-08-23T10:03:02.602Z</time>
      </trkpt>
      <trkpt lat="43.88909" lon="6.20077">
        <ele>913.1</ele>
        <time>2026-08-23T10:03:12.638Z</time>
      </trkpt>
      <trkpt lat="43.8891" lon="6.20088">
        <ele>914</ele>
        <time>2026-08-23T10:03:23.601Z</time>
      </trkpt>
      <trkpt lat="43.88912" lon="6.201">
        <ele>915.1</ele>
        <time>2026-08-23T10:03:34.617Z</time>
      </trkpt>
      <trkpt lat="43.88912" lon="6.20107">
        <ele>915.9</ele>
        <time>2026-08-23T10:03:40.480Z</time>
      </trkpt>
      <trkpt lat="43.88912" lon="6.20113">
        <ele>916.5</ele>
        <time>2026-08-23T10:03:45.506Z</time>
      </trkpt>
      <trkpt lat="43.88913" lon="6.20121">
        <ele>917.3</ele>
        <time>2026-08-23T10:03:56.601Z</time>
      </trkpt>
      <trkpt lat="43.88916" lon="6.20131">
        <ele>918.2</ele>
        <time>2026-08-23T10:04:06.622Z</time>
      </trkpt>
      <trkpt lat="43.88918" lon="6.20138">
        <ele>918.8</ele>
        <time>2026-08-23T10:04:12.259Z</time>
      </trkpt>
      <trkpt lat="43.88919" lon="6.20145">
        <ele>919.4</ele>
        <time>2026-08-23T10:04:17.602Z</time>
      </trkpt>
      <trkpt lat="43.88918" lon="6.20153">
        <ele>920.4</ele>
        <time>2026-08-23T10:04:28.601Z</time>
      </trkpt>
      <trkpt lat="43.88919" lon="6.2016">
        <ele>921</ele>
        <time>2026-08-23T10:04:34.044Z</time>
      </trkpt>
      <trkpt lat="43.88919" lon="6.20166">
        <ele>921.6</ele>
        <time>2026-08-23T10:04:38.621Z</time>
      </trkpt>
      <trkpt lat="43.8892" lon="6.20178">
        <ele>922.3</ele>
        <time>2026-08-23T10:04:49.663Z</time>
      </trkpt>
      <trkpt lat="43.88919" lon="6.20187">
        <ele>923.1</ele>
        <time>2026-08-23T10:05:00.601Z</time>
      </trkpt>
      <trkpt lat="43.88918" lon="6.20196">
        <ele>923.9</ele>
        <time>2026-08-23T10:05:10.601Z</time>
      </trkpt>
      <trkpt lat="43.88919" lon="6.20203">
        <ele>924.3</ele>
        <time>2026-08-23T10:05:15.978Z</time>
      </trkpt>
      <trkpt lat="43.8892" lon="6.20209">
        <ele>924.6</ele>
        <time>2026-08-23T10:05:20.620Z</time>
      </trkpt>
      <trkpt lat="43.88921" lon="6.20221">
        <ele>925.3</ele>
        <time>2026-08-23T10:05:30.641Z</time>
      </trkpt>
      <trkpt lat="43.88922" lon="6.20228">
        <ele>925.3</ele>
        <time>2026-08-23T10:05:36.513Z</time>
      </trkpt>
      <trkpt lat="43.88923" lon="6.20234">
        <ele>925.2</ele>
        <time>2026-08-23T10:05:41.582Z</time>
      </trkpt>
      <trkpt lat="43.88926" lon="6.20243">
        <ele>924.9</ele>
        <time>2026-08-23T10:05:51.628Z</time>
      </trkpt>
      <trkpt lat="43.88929" lon="6.20254">
        <ele>924.7</ele>
        <time>2026-08-23T10:06:02.601Z</time>
      </trkpt>
      <trkpt lat="43.88931" lon="6.20254">
        <ele>924.5</ele>
        <time>2026-08-23T10:07:33.616Z</time>
      </trkpt>
      <trkpt lat="43.88926" lon="6.20254">
        <ele>924.9</ele>
        <time>2026-08-23T10:07:44.600Z</time>
      </trkpt>
      <trkpt lat="43.88927" lon="6.20252">
        <ele>924.9</ele>
        <time>2026-08-23T10:07:54.600Z</time>
      </trkpt>
      <trkpt lat="43.88931" lon="6.20258">
        <ele>924.5</ele>
        <time>2026-08-23T10:08:00.177Z</time>
      </trkpt>
      <trkpt lat="43.88934" lon="6.20263">
        <ele>924.2</ele>
        <time>2026-08-23T10:08:04.617Z</time>
      </trkpt>
      <trkpt lat="43.88936" lon="6.20271">
        <ele>924.2</ele>
        <time>2026-08-23T10:08:10.430Z</time>
      </trkpt>
      <trkpt lat="43.88938" lon="6.20278">
        <ele>924.2</ele>
        <time>2026-08-23T10:08:15.600Z</time>
      </trkpt>
      <trkpt lat="43.88941" lon="6.20284">
        <ele>924</ele>
        <time>2026-08-23T10:08:21.208Z</time>
      </trkpt>
      <trkpt lat="43.88943" lon="6.20289">
        <ele>924</ele>
        <time>2026-08-23T10:08:25.600Z</time>
      </trkpt>
      <trkpt lat="43.88947" lon="6.203">
        <ele>923.9</ele>
        <time>2026-08-23T10:08:35.628Z</time>
      </trkpt>
      <trkpt lat="43.88947" lon="6.20308">
        <ele>923.9</ele>
        <time>2026-08-23T10:08:46.603Z</time>
      </trkpt>
      <trkpt lat="43.8895" lon="6.20312">
        <ele>923.8</ele>
        <time>2026-08-23T10:08:56.605Z</time>
      </trkpt>
      <trkpt lat="43.88954" lon="6.20317">
        <ele>923.8</ele>
        <time>2026-08-23T10:09:02.269Z</time>
      </trkpt>
      <trkpt lat="43.88957" lon="6.20321">
        <ele>923.8</ele>
        <time>2026-08-23T10:09:06.647Z</time>
      </trkpt>
      <trkpt lat="43.8896" lon="6.20329">
        <ele>923.9</ele>
        <time>2026-08-23T10:09:17.620Z</time>
      </trkpt>
      <trkpt lat="43.88965" lon="6.20338">
        <ele>923.8</ele>
        <time>2026-08-23T10:09:28.600Z</time>
      </trkpt>
      <trkpt lat="43.88967" lon="6.20341">
        <ele>923.7</ele>
        <time>2026-08-23T10:09:38.663Z</time>
      </trkpt>
      <trkpt lat="43.8897" lon="6.20338">
        <ele>923.9</ele>
        <time>2026-08-23T10:10:02.523Z</time>
      </trkpt>
      <trkpt lat="43.88971" lon="6.20334">
        <ele>924</ele>
        <time>2026-08-23T10:10:12.600Z</time>
      </trkpt>
      <trkpt lat="43.88971" lon="6.20326">
        <ele>923.7</ele>
        <time>2026-08-23T10:18:40.599Z</time>
      </trkpt>
      <trkpt lat="43.88972" lon="6.20333">
        <ele>924</ele>
        <time>2026-08-23T10:47:35.455Z</time>
      </trkpt>
      <trkpt lat="43.88973" lon="6.20339">
        <ele>923.9</ele>
        <time>2026-08-23T11:12:32.591Z</time>
      </trkpt>
      <trkpt lat="43.88971" lon="6.20345">
        <ele>923.9</ele>
        <time>2026-08-23T11:12:43.590Z</time>
      </trkpt>
      <trkpt lat="43.88971" lon="6.20352">
        <ele>923.9</ele>
        <time>2026-08-23T11:12:53.624Z</time>
      </trkpt>
      <trkpt lat="43.88973" lon="6.20359">
        <ele>923.9</ele>
        <time>2026-08-23T11:12:59.619Z</time>
      </trkpt>
      <trkpt lat="43.88974" lon="6.20365">
        <ele>923.8</ele>
        <time>2026-08-23T11:13:04.522Z</time>
      </trkpt>
      <trkpt lat="43.88975" lon="6.20375">
        <ele>923.5</ele>
        <time>2026-08-23T11:13:14.623Z</time>
      </trkpt>
      <trkpt lat="43.88976" lon="6.20385">
        <ele>923.2</ele>
        <time>2026-08-23T11:13:24.630Z</time>
      </trkpt>
      <trkpt lat="43.8898" lon="6.20394">
        <ele>923.1</ele>
        <time>2026-08-23T11:13:35.580Z</time>
      </trkpt>
      <trkpt lat="43.88982" lon="6.20401">
        <ele>922.9</ele>
        <time>2026-08-23T11:13:40.910Z</time>
      </trkpt>
      <trkpt lat="43.88984" lon="6.20407">
        <ele>922.9</ele>
        <time>2026-08-23T11:13:45.590Z</time>
      </trkpt>
      <trkpt lat="43.88987" lon="6.20415">
        <ele>923.2</ele>
        <time>2026-08-23T11:13:55.604Z</time>
      </trkpt>
      <trkpt lat="43.88992" lon="6.20423">
        <ele>923.9</ele>
        <time>2026-08-23T11:14:06.590Z</time>
      </trkpt>
      <trkpt lat="43.88995" lon="6.20431">
        <ele>924.5</ele>
        <time>2026-08-23T11:14:27.621Z</time>
      </trkpt>
      <trkpt lat="43.88997" lon="6.20438">
        <ele>925.1</ele>
        <time>2026-08-23T11:14:33.207Z</time>
      </trkpt>
      <trkpt lat="43.88998" lon="6.20445">
        <ele>925.5</ele>
        <time>2026-08-23T11:14:38.502Z</time>
      </trkpt>
      <trkpt lat="43.89001" lon="6.20456">
        <ele>925.9</ele>
        <time>2026-08-23T11:14:48.590Z</time>
      </trkpt>
      <trkpt lat="43.89003" lon="6.20462">
        <ele>925.8</ele>
        <time>2026-08-23T11:14:53.767Z</time>
      </trkpt>
      <trkpt lat="43.89004" lon="6.20468">
        <ele>925.8</ele>
        <time>2026-08-23T11:14:58.590Z</time>
      </trkpt>
      <trkpt lat="43.89006" lon="6.20477">
        <ele>926.1</ele>
        <time>2026-08-23T11:15:08.607Z</time>
      </trkpt>
      <trkpt lat="43.89007" lon="6.20484">
        <ele>926.6</ele>
        <time>2026-08-23T11:15:14.502Z</time>
      </trkpt>
      <trkpt lat="43.89008" lon="6.2049">
        <ele>927</ele>
        <time>2026-08-23T11:15:19.590Z</time>
      </trkpt>
      <trkpt lat="43.8901" lon="6.20501">
        <ele>927.7</ele>
        <time>2026-08-23T11:15:29.590Z</time>
      </trkpt>
      <trkpt lat="43.8901" lon="6.20508">
        <ele>928.1</ele>
        <time>2026-08-23T11:15:35.090Z</time>
      </trkpt>
      <trkpt lat="43.8901" lon="6.20515">
        <ele>928.5</ele>
        <time>2026-08-23T11:15:40.590Z</time>
      </trkpt>
      <trkpt lat="43.89009" lon="6.20527">
        <ele>929.3</ele>
        <time>2026-08-23T11:15:50.606Z</time>
      </trkpt>
      <trkpt lat="43.8901" lon="6.20531">
        <ele>929.5</ele>
        <time>2026-08-23T11:16:01.590Z</time>
      </trkpt>
      <trkpt lat="43.8901" lon="6.20539">
        <ele>930.1</ele>
        <time>2026-08-23T11:16:06.923Z</time>
      </trkpt>
      <trkpt lat="43.8901" lon="6.20546">
        <ele>930.6</ele>
        <time>2026-08-23T11:16:11.590Z</time>
      </trkpt>
      <trkpt lat="43.8901" lon="6.20557">
        <ele>931.4</ele>
        <time>2026-08-23T11:16:21.609Z</time>
      </trkpt>
      <trkpt lat="43.89012" lon="6.20564">
        <ele>931.7</ele>
        <time>2026-08-23T11:16:27.649Z</time>
      </trkpt>
      <trkpt lat="43.89013" lon="6.2057">
        <ele>932.1</ele>
        <time>2026-08-23T11:16:32.590Z</time>
      </trkpt>
      <trkpt lat="43.89014" lon="6.20577">
        <ele>932.5</ele>
        <time>2026-08-23T11:16:42.590Z</time>
      </trkpt>
      <trkpt lat="43.89015" lon="6.20587">
        <ele>933.5</ele>
        <time>2026-08-23T11:16:52.618Z</time>
      </trkpt>
      <trkpt lat="43.89017" lon="6.2059">
        <ele>934</ele>
        <time>2026-08-23T11:17:03.545Z</time>
      </trkpt>
      <trkpt lat="43.89018" lon="6.20598">
        <ele>935.3</ele>
        <time>2026-08-23T11:17:13.590Z</time>
      </trkpt>
      <trkpt lat="43.89018" lon="6.20604">
        <ele>936.2</ele>
        <time>2026-08-23T11:17:23.606Z</time>
      </trkpt>
      <trkpt lat="43.89018" lon="6.20612">
        <ele>937.5</ele>
        <time>2026-08-23T11:17:34.595Z</time>
      </trkpt>
      <trkpt lat="43.8902" lon="6.20619">
        <ele>939.4</ele>
        <time>2026-08-23T11:17:45.545Z</time>
      </trkpt>
      <trkpt lat="43.89023" lon="6.20628">
        <ele>941.9</ele>
        <time>2026-08-23T11:17:55.589Z</time>
      </trkpt>
      <trkpt lat="43.89026" lon="6.20636">
        <ele>944.1</ele>
        <time>2026-08-23T11:18:05.596Z</time>
      </trkpt>
      <trkpt lat="43.89029" lon="6.20642">
        <ele>945.5</ele>
        <time>2026-08-23T11:18:11.713Z</time>
      </trkpt>
      <trkpt lat="43.89031" lon="6.20647">
        <ele>946.2</ele>
        <time>2026-08-23T11:18:16.504Z</time>
      </trkpt>
      <trkpt lat="43.89037" lon="6.20656">
        <ele>947</ele>
        <time>2026-08-23T11:18:26.589Z</time>
      </trkpt>
      <trkpt lat="43.89042" lon="6.20663">
        <ele>947.5</ele>
        <time>2026-08-23T11:18:36.603Z</time>
      </trkpt>
      <trkpt lat="43.89044" lon="6.20672">
        <ele>948.9</ele>
        <time>2026-08-23T11:18:47.589Z</time>
      </trkpt>
      <trkpt lat="43.89045" lon="6.20677">
        <ele>949.6</ele>
        <time>2026-08-23T11:18:57.589Z</time>
      </trkpt>
      <trkpt lat="43.89048" lon="6.20684">
        <ele>950.3</ele>
        <time>2026-08-23T11:19:07.619Z</time>
      </trkpt>
      <trkpt lat="43.89049" lon="6.20689">
        <ele>951.1</ele>
        <time>2026-08-23T11:19:18.589Z</time>
      </trkpt>
      <trkpt lat="43.89048" lon="6.20691">
        <ele>951.7</ele>
        <time>2026-08-23T11:20:35.590Z</time>
      </trkpt>
      <trkpt lat="43.89047" lon="6.207">
        <ele>953.1</ele>
        <time>2026-08-23T11:20:45.607Z</time>
      </trkpt>
      <trkpt lat="43.89046" lon="6.20701">
        <ele>953.3</ele>
        <time>2026-08-23T11:21:08.589Z</time>
      </trkpt>
      <trkpt lat="43.89043" lon="6.20707">
        <ele>954.3</ele>
        <time>2026-08-23T11:21:18.632Z</time>
      </trkpt>
      <trkpt lat="43.89041" lon="6.20715">
        <ele>955</ele>
        <time>2026-08-23T11:21:29.597Z</time>
      </trkpt>
      <trkpt lat="43.89039" lon="6.20723">
        <ele>955.5</ele>
        <time>2026-08-23T11:21:40.589Z</time>
      </trkpt>
      <trkpt lat="43.89039" lon="6.20731">
        <ele>955</ele>
        <time>2026-08-23T11:21:50.589Z</time>
      </trkpt>
      <trkpt lat="43.89042" lon="6.20741">
        <ele>954.5</ele>
        <time>2026-08-23T11:22:00.610Z</time>
      </trkpt>
      <trkpt lat="43.89046" lon="6.20746">
        <ele>954.5</ele>
        <time>2026-08-23T11:22:11.589Z</time>
      </trkpt>
      <trkpt lat="43.89049" lon="6.20752">
        <ele>954.4</ele>
        <time>2026-08-23T11:22:21.589Z</time>
      </trkpt>
      <trkpt lat="43.89055" lon="6.20758">
        <ele>954.4</ele>
        <time>2026-08-23T11:22:32.589Z</time>
      </trkpt>
      <trkpt lat="43.89061" lon="6.20765">
        <ele>954</ele>
        <time>2026-08-23T11:22:42.589Z</time>
      </trkpt>
      <trkpt lat="43.89067" lon="6.2077">
        <ele>953.9</ele>
        <time>2026-08-23T11:22:52.589Z</time>
      </trkpt>
      <trkpt lat="43.89073" lon="6.20775">
        <ele>953.8</ele>
        <time>2026-08-23T11:23:02.609Z</time>
      </trkpt>
      <trkpt lat="43.89077" lon="6.20781">
        <ele>953.5</ele>
        <time>2026-08-23T11:23:13.589Z</time>
      </trkpt>
      <trkpt lat="43.89081" lon="6.20788">
        <ele>953.1</ele>
        <time>2026-08-23T11:23:23.589Z</time>
      </trkpt>
      <trkpt lat="43.89082" lon="6.20793">
        <ele>952.8</ele>
        <time>2026-08-23T11:23:33.607Z</time>
      </trkpt>
      <trkpt lat="43.89087" lon="6.208">
        <ele>952</ele>
        <time>2026-08-23T11:23:44.558Z</time>
      </trkpt>
      <trkpt lat="43.89091" lon="6.20807">
        <ele>951.1</ele>
        <time>2026-08-23T11:23:49.811Z</time>
      </trkpt>
      <trkpt lat="43.89095" lon="6.20813">
        <ele>950.4</ele>
        <time>2026-08-23T11:23:54.618Z</time>
      </trkpt>
      <trkpt lat="43.89098" lon="6.2082">
        <ele>949.9</ele>
        <time>2026-08-23T11:24:00.412Z</time>
      </trkpt>
      <trkpt lat="43.89101" lon="6.20826">
        <ele>949.6</ele>
        <time>2026-08-23T11:24:05.609Z</time>
      </trkpt>
      <trkpt lat="43.89104" lon="6.20832">
        <ele>949.3</ele>
        <time>2026-08-23T11:24:11.415Z</time>
      </trkpt>
      <trkpt lat="43.89107" lon="6.20837">
        <ele>949.1</ele>
        <time>2026-08-23T11:24:16.588Z</time>
      </trkpt>
      <trkpt lat="43.89114" lon="6.20844">
        <ele>948.7</ele>
        <time>2026-08-23T11:24:26.588Z</time>
      </trkpt>
      <trkpt lat="43.8912" lon="6.20848">
        <ele>948.2</ele>
        <time>2026-08-23T11:24:32.653Z</time>
      </trkpt>
      <trkpt lat="43.89125" lon="6.20851">
        <ele>948</ele>
        <time>2026-08-23T11:24:37.617Z</time>
      </trkpt>
      <trkpt lat="43.89133" lon="6.20855">
        <ele>947.7</ele>
        <time>2026-08-23T11:24:48.588Z</time>
      </trkpt>
      <trkpt lat="43.89138" lon="6.20857">
        <ele>947.6</ele>
        <time>2026-08-23T11:24:53.588Z</time>
      </trkpt>
      <trkpt lat="43.89143" lon="6.20859">
        <ele>947.5</ele>
        <time>2026-08-23T11:24:58.588Z</time>
      </trkpt>
      <trkpt lat="43.89148" lon="6.20863">
        <ele>947.7</ele>
        <time>2026-08-23T11:25:04.246Z</time>
      </trkpt>
      <trkpt lat="43.89153" lon="6.20866">
        <ele>948</ele>
        <time>2026-08-23T11:25:09.588Z</time>
      </trkpt>
      <trkpt lat="43.89157" lon="6.2087">
        <ele>948.6</ele>
        <time>2026-08-23T11:25:14.795Z</time>
      </trkpt>
      <trkpt lat="43.89161" lon="6.20873">
        <ele>949.1</ele>
        <time>2026-08-23T11:25:19.598Z</time>
      </trkpt>
      <trkpt lat="43.89167" lon="6.20878">
        <ele>950.2</ele>
        <time>2026-08-23T11:25:30.588Z</time>
      </trkpt>
      <trkpt lat="43.89171" lon="6.20882">
        <ele>951.1</ele>
        <time>2026-08-23T11:25:35.790Z</time>
      </trkpt>
      <trkpt lat="43.89175" lon="6.20885">
        <ele>951.7</ele>
        <time>2026-08-23T11:25:40.588Z</time>
      </trkpt>
      <trkpt lat="43.89182" lon="6.20891">
        <ele>952.9</ele>
        <time>2026-08-23T11:25:50.602Z</time>
      </trkpt>
      <trkpt lat="43.89187" lon="6.20897">
        <ele>954.2</ele>
        <time>2026-08-23T11:26:01.588Z</time>
      </trkpt>
      <trkpt lat="43.89192" lon="6.20903">
        <ele>955.6</ele>
        <time>2026-08-23T11:26:11.588Z</time>
      </trkpt>
      <trkpt lat="43.89199" lon="6.2091">
        <ele>956.5</ele>
        <time>2026-08-23T11:26:21.604Z</time>
      </trkpt>
      <trkpt lat="43.89205" lon="6.20918">
        <ele>957.4</ele>
        <time>2026-08-23T11:26:32.588Z</time>
      </trkpt>
      <trkpt lat="43.89211" lon="6.20925">
        <ele>957.7</ele>
        <time>2026-08-23T11:26:42.589Z</time>
      </trkpt>
      <trkpt lat="43.89214" lon="6.20931">
        <ele>958.4</ele>
        <time>2026-08-23T11:26:47.883Z</time>
      </trkpt>
      <trkpt lat="43.89217" lon="6.20936">
        <ele>959</ele>
        <time>2026-08-23T11:26:52.601Z</time>
      </trkpt>
      <trkpt lat="43.89221" lon="6.20943">
        <ele>959.9</ele>
        <time>2026-08-23T11:27:03.589Z</time>
      </trkpt>
      <trkpt lat="43.89226" lon="6.20951">
        <ele>960.1</ele>
        <time>2026-08-23T11:27:14.588Z</time>
      </trkpt>
      <trkpt lat="43.89229" lon="6.20959">
        <ele>960.8</ele>
        <time>2026-08-23T11:27:24.607Z</time>
      </trkpt>
      <trkpt lat="43.89232" lon="6.20965">
        <ele>961.2</ele>
        <time>2026-08-23T11:27:30.765Z</time>
      </trkpt>
      <trkpt lat="43.89234" lon="6.2097">
        <ele>961.7</ele>
        <time>2026-08-23T11:27:35.588Z</time>
      </trkpt>
      <trkpt lat="43.89238" lon="6.20981">
        <ele>963.3</ele>
        <time>2026-08-23T11:27:45.588Z</time>
      </trkpt>
      <trkpt lat="43.89243" lon="6.20989">
        <ele>963.9</ele>
        <time>2026-08-23T11:27:55.591Z</time>
      </trkpt>
      <trkpt lat="43.89244" lon="6.2099">
        <ele>963.9</ele>
        <time>2026-08-23T11:28:12.524Z</time>
      </trkpt>
      <trkpt lat="43.89248" lon="6.20998">
        <ele>965</ele>
        <time>2026-08-23T11:28:17.556Z</time>
      </trkpt>
      <trkpt lat="43.89252" lon="6.21006">
        <ele>966.3</ele>
        <time>2026-08-23T11:28:22.588Z</time>
      </trkpt>
      <trkpt lat="43.89256" lon="6.21011">
        <ele>966.5</ele>
        <time>2026-08-23T11:28:28.228Z</time>
      </trkpt>
      <trkpt lat="43.89259" lon="6.21015">
        <ele>966.7</ele>
        <time>2026-08-23T11:28:32.588Z</time>
      </trkpt>
      <trkpt lat="43.89265" lon="6.21021">
        <ele>966.5</ele>
        <time>2026-08-23T11:28:42.606Z</time>
      </trkpt>
      <trkpt lat="43.89269" lon="6.21032">
        <ele>968.9</ele>
        <time>2026-08-23T11:28:53.589Z</time>
      </trkpt>
      <trkpt lat="43.89271" lon="6.21038">
        <ele>970.3</ele>
        <time>2026-08-23T11:28:58.594Z</time>
      </trkpt>
      <trkpt lat="43.89273" lon="6.21044">
        <ele>971.6</ele>
        <time>2026-08-23T11:29:03.599Z</time>
      </trkpt>
      <trkpt lat="43.89276" lon="6.21054">
        <ele>974.1</ele>
        <time>2026-08-23T11:29:13.640Z</time>
      </trkpt>
      <trkpt lat="43.89278" lon="6.21056">
        <ele>974</ele>
        <time>2026-08-23T11:29:24.544Z</time>
      </trkpt>
      <trkpt lat="43.89281" lon="6.21063">
        <ele>975</ele>
        <time>2026-08-23T11:29:29.566Z</time>
      </trkpt>
      <trkpt lat="43.89284" lon="6.2107">
        <ele>976</ele>
        <time>2026-08-23T11:29:34.588Z</time>
      </trkpt>
      <trkpt lat="43.89289" lon="6.21075">
        <ele>975.5</ele>
        <time>2026-08-23T11:29:40.158Z</time>
      </trkpt>
      <trkpt lat="43.89293" lon="6.21079">
        <ele>975</ele>
        <time>2026-08-23T11:29:44.615Z</time>
      </trkpt>
      <trkpt lat="43.89299" lon="6.21087">
        <ele>975</ele>
        <time>2026-08-23T11:29:55.642Z</time>
      </trkpt>
      <trkpt lat="43.89306" lon="6.21094">
        <ele>974.3</ele>
        <time>2026-08-23T11:30:06.561Z</time>
      </trkpt>
      <trkpt lat="43.8931" lon="6.21097">
        <ele>973.4</ele>
        <time>2026-08-23T11:30:23.499Z</time>
      </trkpt>
      <trkpt lat="43.89315" lon="6.21104">
        <ele>973.4</ele>
        <time>2026-08-23T11:30:33.588Z</time>
      </trkpt>
      <trkpt lat="43.89318" lon="6.2111">
        <ele>973.8</ele>
        <time>2026-08-23T11:30:43.588Z</time>
      </trkpt>
      <trkpt lat="43.89322" lon="6.2112">
        <ele>974.4</ele>
        <time>2026-08-23T11:30:53.588Z</time>
      </trkpt>
      <trkpt lat="43.89326" lon="6.21129">
        <ele>974.5</ele>
        <time>2026-08-23T11:31:03.625Z</time>
      </trkpt>
      <trkpt lat="43.89332" lon="6.21136">
        <ele>973</ele>
        <time>2026-08-23T11:31:14.588Z</time>
      </trkpt>
      <trkpt lat="43.89337" lon="6.21143">
        <ele>972.2</ele>
        <time>2026-08-23T11:31:24.588Z</time>
      </trkpt>
      <trkpt lat="43.89339" lon="6.21149">
        <ele>972.6</ele>
        <time>2026-08-23T11:31:34.599Z</time>
      </trkpt>
      <trkpt lat="43.89343" lon="6.21159">
        <ele>972.9</ele>
        <time>2026-08-23T11:31:45.587Z</time>
      </trkpt>
      <trkpt lat="43.89346" lon="6.21168">
        <ele>973.5</ele>
        <time>2026-08-23T11:31:55.647Z</time>
      </trkpt>
      <trkpt lat="43.89347" lon="6.21175">
        <ele>974.6</ele>
        <time>2026-08-23T11:32:06.503Z</time>
      </trkpt>
      <trkpt lat="43.89347" lon="6.21182">
        <ele>976.2</ele>
        <time>2026-08-23T11:32:11.932Z</time>
      </trkpt>
      <trkpt lat="43.89347" lon="6.21188">
        <ele>977.6</ele>
        <time>2026-08-23T11:32:16.587Z</time>
      </trkpt>
      <trkpt lat="43.89347" lon="6.21199">
        <ele>980.2</ele>
        <time>2026-08-23T11:32:26.587Z</time>
      </trkpt>
      <trkpt lat="43.89349" lon="6.21205">
        <ele>980.6</ele>
        <time>2026-08-23T11:32:31.606Z</time>
      </trkpt>
      <trkpt lat="43.89351" lon="6.21211">
        <ele>981.2</ele>
        <time>2026-08-23T11:32:36.625Z</time>
      </trkpt>
      <trkpt lat="43.89349" lon="6.21219">
        <ele>984</ele>
        <time>2026-08-23T11:32:47.588Z</time>
      </trkpt>
      <trkpt lat="43.89348" lon="6.21221">
        <ele>984.9</ele>
        <time>2026-08-23T11:34:36.587Z</time>
      </trkpt>
      <trkpt lat="43.89348" lon="6.21231">
        <ele>987.1</ele>
        <time>2026-08-23T11:34:46.587Z</time>
      </trkpt>
      <trkpt lat="43.89348" lon="6.21238">
        <ele>988.6</ele>
        <time>2026-08-23T11:34:57.587Z</time>
      </trkpt>
      <trkpt lat="43.89348" lon="6.21245">
        <ele>990.2</ele>
        <time>2026-08-23T11:35:07.627Z</time>
      </trkpt>
      <trkpt lat="43.89351" lon="6.21251">
        <ele>990.5</ele>
        <time>2026-08-23T11:35:18.597Z</time>
      </trkpt>
      <trkpt lat="43.89352" lon="6.21258">
        <ele>991.7</ele>
        <time>2026-08-23T11:35:29.587Z</time>
      </trkpt>
      <trkpt lat="43.89356" lon="6.2126">
        <ele>991</ele>
        <time>2026-08-23T11:35:40.524Z</time>
      </trkpt>
      <trkpt lat="43.8936" lon="6.21266">
        <ele>991.3</ele>
        <time>2026-08-23T11:35:50.586Z</time>
      </trkpt>
      <trkpt lat="43.89364" lon="6.21272">
        <ele>991.8</ele>
        <time>2026-08-23T11:36:00.586Z</time>
      </trkpt>
      <trkpt lat="43.89367" lon="6.21275">
        <ele>991.8</ele>
        <time>2026-08-23T11:36:10.586Z</time>
      </trkpt>
      <trkpt lat="43.89369" lon="6.21276">
        <ele>991.5</ele>
        <time>2026-08-23T11:36:50.604Z</time>
      </trkpt>
      <trkpt lat="43.89373" lon="6.21283">
        <ele>992.1</ele>
        <time>2026-08-23T11:36:56.348Z</time>
      </trkpt>
      <trkpt lat="43.89376" lon="6.2129">
        <ele>992.9</ele>
        <time>2026-08-23T11:37:01.586Z</time>
      </trkpt>
      <trkpt lat="43.89379" lon="6.21299">
        <ele>994.3</ele>
        <time>2026-08-23T11:37:11.586Z</time>
      </trkpt>
      <trkpt lat="43.89382" lon="6.21307">
        <ele>995.4</ele>
        <time>2026-08-23T11:37:17.600Z</time>
      </trkpt>
      <trkpt lat="43.89384" lon="6.21314">
        <ele>996</ele>
        <time>2026-08-23T11:37:22.623Z</time>
      </trkpt>
      <trkpt lat="43.89388" lon="6.2132">
        <ele>996.2</ele>
        <time>2026-08-23T11:37:28.421Z</time>
      </trkpt>
      <trkpt lat="43.89391" lon="6.21326">
        <ele>996.5</ele>
        <time>2026-08-23T11:37:33.602Z</time>
      </trkpt>
      <trkpt lat="43.89395" lon="6.21331">
        <ele>996.3</ele>
        <time>2026-08-23T11:37:39.335Z</time>
      </trkpt>
      <trkpt lat="43.89399" lon="6.21335">
        <ele>995.9</ele>
        <time>2026-08-23T11:37:44.586Z</time>
      </trkpt>
      <trkpt lat="43.89403" lon="6.2134">
        <ele>995.4</ele>
        <time>2026-08-23T11:37:50.465Z</time>
      </trkpt>
      <trkpt lat="43.89406" lon="6.21345">
        <ele>995.1</ele>
        <time>2026-08-23T11:37:55.586Z</time>
      </trkpt>
      <trkpt lat="43.89411" lon="6.21351">
        <ele>994.5</ele>
        <time>2026-08-23T11:38:05.626Z</time>
      </trkpt>
      <trkpt lat="43.89415" lon="6.21356">
        <ele>994</ele>
        <time>2026-08-23T11:38:11.349Z</time>
      </trkpt>
      <trkpt lat="43.89419" lon="6.2136">
        <ele>993.6</ele>
        <time>2026-08-23T11:38:16.592Z</time>
      </trkpt>
      <trkpt lat="43.89423" lon="6.2137">
        <ele>993.2</ele>
        <time>2026-08-23T11:38:27.586Z</time>
      </trkpt>
      <trkpt lat="43.89427" lon="6.21377">
        <ele>992.9</ele>
        <time>2026-08-23T11:38:37.629Z</time>
      </trkpt>
      <trkpt lat="43.89427" lon="6.21379">
        <ele>993</ele>
        <time>2026-08-23T11:39:13.649Z</time>
      </trkpt>
      <trkpt lat="43.89431" lon="6.21385">
        <ele>992.8</ele>
        <time>2026-08-23T11:39:19.434Z</time>
      </trkpt>
      <trkpt lat="43.89434" lon="6.21391">
        <ele>992.9</ele>
        <time>2026-08-23T11:39:24.603Z</time>
      </trkpt>
      <trkpt lat="43.8944" lon="6.21395">
        <ele>992.8</ele>
        <time>2026-08-23T11:39:34.604Z</time>
      </trkpt>
      <trkpt lat="43.89447" lon="6.21401">
        <ele>993.7</ele>
        <time>2026-08-23T11:39:45.560Z</time>
      </trkpt>
      <trkpt lat="43.89453" lon="6.21406">
        <ele>995.3</ele>
        <time>2026-08-23T11:39:55.669Z</time>
      </trkpt>
      <trkpt lat="43.89455" lon="6.21407">
        <ele>995.7</ele>
        <time>2026-08-23T11:40:06.585Z</time>
      </trkpt>
      <trkpt lat="43.89458" lon="6.21409">
        <ele>996.5</ele>
        <time>2026-08-23T11:40:16.585Z</time>
      </trkpt>
      <trkpt lat="43.89463" lon="6.21418">
        <ele>998.4</ele>
        <time>2026-08-23T11:40:40.633Z</time>
      </trkpt>
      <trkpt lat="43.89464" lon="6.21422">
        <ele>998.6</ele>
        <time>2026-08-23T11:40:51.588Z</time>
      </trkpt>
      <trkpt lat="43.89468" lon="6.21428">
        <ele>999.5</ele>
        <time>2026-08-23T11:41:01.647Z</time>
      </trkpt>
      <trkpt lat="43.89469" lon="6.21431">
        <ele>999.8</ele>
        <time>2026-08-23T11:41:12.598Z</time>
      </trkpt>
      <trkpt lat="43.8947" lon="6.21432">
        <ele>1000.1</ele>
        <time>2026-08-23T11:41:23.585Z</time>
      </trkpt>
      <trkpt lat="43.89476" lon="6.21436">
        <ele>1001.1</ele>
        <time>2026-08-23T11:41:33.611Z</time>
      </trkpt>
      <trkpt lat="43.8948" lon="6.21436">
        <ele>1001.5</ele>
        <time>2026-08-23T11:41:44.585Z</time>
      </trkpt>
      <trkpt lat="43.89486" lon="6.21442">
        <ele>1002.4</ele>
        <time>2026-08-23T11:41:54.632Z</time>
      </trkpt>
      <trkpt lat="43.8949" lon="6.21443">
        <ele>1002.8</ele>
        <time>2026-08-23T11:42:05.645Z</time>
      </trkpt>
      <trkpt lat="43.89495" lon="6.2144">
        <ele>1003.2</ele>
        <time>2026-08-23T11:42:11.115Z</time>
      </trkpt>
      <trkpt lat="43.895" lon="6.21437">
        <ele>1003.5</ele>
        <time>2026-08-23T11:42:16.585Z</time>
      </trkpt>
      <trkpt lat="43.89504" lon="6.21441">
        <ele>1003.9</ele>
        <time>2026-08-23T11:42:26.600Z</time>
      </trkpt>
      <trkpt lat="43.89509" lon="6.21441">
        <ele>1004</ele>
        <time>2026-08-23T11:42:41.585Z</time>
      </trkpt>
      <trkpt lat="43.89516" lon="6.21437">
        <ele>1003.9</ele>
        <time>2026-08-23T11:42:51.605Z</time>
      </trkpt>
      <trkpt lat="43.8952" lon="6.21436">
        <ele>1003.9</ele>
        <time>2026-08-23T11:43:02.587Z</time>
      </trkpt>
      <trkpt lat="43.89528" lon="6.21437">
        <ele>1004.2</ele>
        <time>2026-08-23T11:43:12.642Z</time>
      </trkpt>
      <trkpt lat="43.89533" lon="6.21437">
        <ele>1004.1</ele>
        <time>2026-08-23T11:43:18.729Z</time>
      </trkpt>
      <trkpt lat="43.89537" lon="6.21437">
        <ele>1004</ele>
        <time>2026-08-23T11:43:23.599Z</time>
      </trkpt>
      <trkpt lat="43.89544" lon="6.2144">
        <ele>1004.3</ele>
        <time>2026-08-23T11:43:34.644Z</time>
      </trkpt>
      <trkpt lat="43.89549" lon="6.21443">
        <ele>1004.8</ele>
        <time>2026-08-23T11:43:40.256Z</time>
      </trkpt>
      <trkpt lat="43.89554" lon="6.21445">
        <ele>1005.1</ele>
        <time>2026-08-23T11:43:45.617Z</time>
      </trkpt>
      <trkpt lat="43.89558" lon="6.21448">
        <ele>1005.4</ele>
        <time>2026-08-23T11:43:51.080Z</time>
      </trkpt>
      <trkpt lat="43.89562" lon="6.21451">
        <ele>1005.8</ele>
        <time>2026-08-23T11:43:56.543Z</time>
      </trkpt>
      <trkpt lat="43.89569" lon="6.21456">
        <ele>1006.6</ele>
        <time>2026-08-23T11:44:06.632Z</time>
      </trkpt>
      <trkpt lat="43.89576" lon="6.21462">
        <ele>1007.7</ele>
        <time>2026-08-23T11:44:17.585Z</time>
      </trkpt>
      <trkpt lat="43.89582" lon="6.21466">
        <ele>1008.6</ele>
        <time>2026-08-23T11:44:27.623Z</time>
      </trkpt>
      <trkpt lat="43.89589" lon="6.21471">
        <ele>1009.9</ele>
        <time>2026-08-23T11:44:38.595Z</time>
      </trkpt>
      <trkpt lat="43.89595" lon="6.21479">
        <ele>1011.8</ele>
        <time>2026-08-23T11:44:49.623Z</time>
      </trkpt>
      <trkpt lat="43.89598" lon="6.21478">
        <ele>1011.8</ele>
        <time>2026-08-23T11:48:40.584Z</time>
      </trkpt>
      <trkpt lat="43.89603" lon="6.21483">
        <ele>1013.2</ele>
        <time>2026-08-23T11:48:50.584Z</time>
      </trkpt>
      <trkpt lat="43.89608" lon="6.21486">
        <ele>1014.2</ele>
        <time>2026-08-23T11:48:55.604Z</time>
      </trkpt>
      <trkpt lat="43.89613" lon="6.21489">
        <ele>1015.4</ele>
        <time>2026-08-23T11:49:00.624Z</time>
      </trkpt>
      <trkpt lat="43.89618" lon="6.21491">
        <ele>1016.4</ele>
        <time>2026-08-23T11:49:06.162Z</time>
      </trkpt>
      <trkpt lat="43.89623" lon="6.21492">
        <ele>1017.1</ele>
        <time>2026-08-23T11:49:11.539Z</time>
      </trkpt>
      <trkpt lat="43.89631" lon="6.21489">
        <ele>1017.1</ele>
        <time>2026-08-23T11:49:21.622Z</time>
      </trkpt>
      <trkpt lat="43.89638" lon="6.21487">
        <ele>1017.2</ele>
        <time>2026-08-23T11:49:27.103Z</time>
      </trkpt>
      <trkpt lat="43.89645" lon="6.21485">
        <ele>1017.1</ele>
        <time>2026-08-23T11:49:32.584Z</time>
      </trkpt>
      <trkpt lat="43.89651" lon="6.21485">
        <ele>1017.6</ele>
        <time>2026-08-23T11:49:38.066Z</time>
      </trkpt>
      <trkpt lat="43.89656" lon="6.21485">
        <ele>1017.9</ele>
        <time>2026-08-23T11:49:42.635Z</time>
      </trkpt>
      <trkpt lat="43.89662" lon="6.21485">
        <ele>1018.3</ele>
        <time>2026-08-23T11:49:48.612Z</time>
      </trkpt>
      <trkpt lat="43.89667" lon="6.21484">
        <ele>1018.4</ele>
        <time>2026-08-23T11:49:53.645Z</time>
      </trkpt>
      <trkpt lat="43.89673" lon="6.21483">
        <ele>1018.7</ele>
        <time>2026-08-23T11:49:59.018Z</time>
      </trkpt>
      <trkpt lat="43.89678" lon="6.21481">
        <ele>1018.6</ele>
        <time>2026-08-23T11:50:03.645Z</time>
      </trkpt>
      <trkpt lat="43.89683" lon="6.21479">
        <ele>1018.6</ele>
        <time>2026-08-23T11:50:09.118Z</time>
      </trkpt>
      <trkpt lat="43.89688" lon="6.21477">
        <ele>1018.5</ele>
        <time>2026-08-23T11:50:14.591Z</time>
      </trkpt>
      <trkpt lat="43.89692" lon="6.21473">
        <ele>1017.9</ele>
        <time>2026-08-23T11:50:19.618Z</time>
      </trkpt>
      <trkpt lat="43.89696" lon="6.21469">
        <ele>1017.5</ele>
        <time>2026-08-23T11:50:24.646Z</time>
      </trkpt>
      <trkpt lat="43.89698" lon="6.21467">
        <ele>1017.3</ele>
        <time>2026-08-23T11:50:35.596Z</time>
      </trkpt>
      <trkpt lat="43.89699" lon="6.21462">
        <ele>1016.3</ele>
        <time>2026-08-23T11:50:45.651Z</time>
      </trkpt>
      <trkpt lat="43.89703" lon="6.21462">
        <ele>1016.7</ele>
        <time>2026-08-23T11:51:51.643Z</time>
      </trkpt>
      <trkpt lat="43.89709" lon="6.2146">
        <ele>1016.9</ele>
        <time>2026-08-23T11:51:57.454Z</time>
      </trkpt>
      <trkpt lat="43.89714" lon="6.21457">
        <ele>1016.8</ele>
        <time>2026-08-23T11:52:02.584Z</time>
      </trkpt>
      <trkpt lat="43.89719" lon="6.21453">
        <ele>1016.5</ele>
        <time>2026-08-23T11:52:08.517Z</time>
      </trkpt>
      <trkpt lat="43.89723" lon="6.21449">
        <ele>1016.1</ele>
        <time>2026-08-23T11:52:13.587Z</time>
      </trkpt>
      <trkpt lat="43.89728" lon="6.21446">
        <ele>1015.9</ele>
        <time>2026-08-23T11:52:18.926Z</time>
      </trkpt>
      <trkpt lat="43.89733" lon="6.21442">
        <ele>1015.9</ele>
        <time>2026-08-23T11:52:24.583Z</time>
      </trkpt>
      <trkpt lat="43.89739" lon="6.21438">
        <ele>1016.3</ele>
        <time>2026-08-23T11:52:29.955Z</time>
      </trkpt>
      <trkpt lat="43.89744" lon="6.21434">
        <ele>1016.5</ele>
        <time>2026-08-23T11:52:34.613Z</time>
      </trkpt>
      <trkpt lat="43.89749" lon="6.2143">
        <ele>1016.8</ele>
        <time>2026-08-23T11:52:40.529Z</time>
      </trkpt>
      <trkpt lat="43.89753" lon="6.21426">
        <ele>1017.2</ele>
        <time>2026-08-23T11:52:45.583Z</time>
      </trkpt>
      <trkpt lat="43.89757" lon="6.21415">
        <ele>1017.3</ele>
        <time>2026-08-23T11:52:56.631Z</time>
      </trkpt>
      <trkpt lat="43.89757" lon="6.21403">
        <ele>1017.8</ele>
        <time>2026-08-23T11:53:07.589Z</time>
      </trkpt>
      <trkpt lat="43.89756" lon="6.21396">
        <ele>1017.8</ele>
        <time>2026-08-23T11:53:12.897Z</time>
      </trkpt>
      <trkpt lat="43.89754" lon="6.21389">
        <ele>1017.7</ele>
        <time>2026-08-23T11:53:18.500Z</time>
      </trkpt>
      <trkpt lat="43.89752" lon="6.21377">
        <ele>1017.4</ele>
        <time>2026-08-23T11:53:28.606Z</time>
      </trkpt>
      <trkpt lat="43.8975" lon="6.21365">
        <ele>1017</ele>
        <time>2026-08-23T11:53:39.583Z</time>
      </trkpt>
      <trkpt lat="43.8975" lon="6.21355">
        <ele>1016.8</ele>
        <time>2026-08-23T11:53:49.619Z</time>
      </trkpt>
      <trkpt lat="43.8975" lon="6.21347">
        <ele>1016.5</ele>
        <time>2026-08-23T11:53:55.039Z</time>
      </trkpt>
      <trkpt lat="43.89749" lon="6.21339">
        <ele>1016.1</ele>
        <time>2026-08-23T11:54:00.541Z</time>
      </trkpt>
      <trkpt lat="43.89751" lon="6.21332">
        <ele>1016.1</ele>
        <time>2026-08-23T11:54:05.718Z</time>
      </trkpt>
      <trkpt lat="43.89752" lon="6.21325">
        <ele>1015.7</ele>
        <time>2026-08-23T11:54:10.625Z</time>
      </trkpt>
      <trkpt lat="43.89756" lon="6.21319">
        <ele>1015.9</ele>
        <time>2026-08-23T11:54:16.113Z</time>
      </trkpt>
      <trkpt lat="43.89759" lon="6.21312">
        <ele>1015.8</ele>
        <time>2026-08-23T11:54:21.583Z</time>
      </trkpt>
      <trkpt lat="43.89763" lon="6.21308">
        <ele>1016.1</ele>
        <time>2026-08-23T11:54:26.389Z</time>
      </trkpt>
      <trkpt lat="43.89767" lon="6.21303">
        <ele>1016</ele>
        <time>2026-08-23T11:54:31.638Z</time>
      </trkpt>
      <trkpt lat="43.89772" lon="6.21299">
        <ele>1016</ele>
        <time>2026-08-23T11:54:37.544Z</time>
      </trkpt>
      <trkpt lat="43.89776" lon="6.21295">
        <ele>1015.9</ele>
        <time>2026-08-23T11:54:42.591Z</time>
      </trkpt>
      <trkpt lat="43.89783" lon="6.21289">
        <ele>1015.7</ele>
        <time>2026-08-23T11:54:52.678Z</time>
      </trkpt>
      <trkpt lat="43.89789" lon="6.21284">
        <ele>1015.4</ele>
        <time>2026-08-23T11:55:03.545Z</time>
      </trkpt>
      <trkpt lat="43.89794" lon="6.21279">
        <ele>1015</ele>
        <time>2026-08-23T11:55:08.604Z</time>
      </trkpt>
      <trkpt lat="43.89799" lon="6.21274">
        <ele>1014.4</ele>
        <time>2026-08-23T11:55:13.664Z</time>
      </trkpt>
      <trkpt lat="43.89804" lon="6.2127">
        <ele>1013.9</ele>
        <time>2026-08-23T11:55:19.567Z</time>
      </trkpt>
      <trkpt lat="43.89808" lon="6.21266">
        <ele>1013</ele>
        <time>2026-08-23T11:55:24.611Z</time>
      </trkpt>
      <trkpt lat="43.89809" lon="6.21265">
        <ele>1012.7</ele>
        <time>2026-08-23T11:55:51.504Z</time>
      </trkpt>
      <trkpt lat="43.89814" lon="6.21264">
        <ele>1012.4</ele>
        <time>2026-08-23T11:55:56.543Z</time>
      </trkpt>
      <trkpt lat="43.89819" lon="6.21263">
        <ele>1012</ele>
        <time>2026-08-23T11:56:01.583Z</time>
      </trkpt>
      <trkpt lat="43.89824" lon="6.21262">
        <ele>1011.6</ele>
        <time>2026-08-23T11:56:07.124Z</time>
      </trkpt>
      <trkpt lat="43.89828" lon="6.21261">
        <ele>1011.3</ele>
        <time>2026-08-23T11:56:11.583Z</time>
      </trkpt>
      <trkpt lat="43.89833" lon="6.2126">
        <ele>1010.9</ele>
        <time>2026-08-23T11:56:17.012Z</time>
      </trkpt>
      <trkpt lat="43.89837" lon="6.21258">
        <ele>1010.2</ele>
        <time>2026-08-23T11:56:21.583Z</time>
      </trkpt>
      <trkpt lat="43.89844" lon="6.21257">
        <ele>1009.7</ele>
        <time>2026-08-23T11:56:32.583Z</time>
      </trkpt>
      <trkpt lat="43.89852" lon="6.21253">
        <ele>1008.3</ele>
        <time>2026-08-23T11:56:42.598Z</time>
      </trkpt>
      <trkpt lat="43.89851" lon="6.21252">
        <ele>1008</ele>
        <time>2026-08-23T11:58:48.582Z</time>
      </trkpt>
      <trkpt lat="43.89857" lon="6.21252">
        <ele>1007.8</ele>
        <time>2026-08-23T11:58:53.582Z</time>
      </trkpt>
      <trkpt lat="43.89863" lon="6.21252">
        <ele>1007.9</ele>
        <time>2026-08-23T11:58:58.583Z</time>
      </trkpt>
      <trkpt lat="43.89869" lon="6.21251">
        <ele>1008.4</ele>
        <time>2026-08-23T11:59:04.033Z</time>
      </trkpt>
      <trkpt lat="43.89874" lon="6.2125">
        <ele>1008.9</ele>
        <time>2026-08-23T11:59:08.589Z</time>
      </trkpt>
      <trkpt lat="43.89879" lon="6.21242">
        <ele>1007.8</ele>
        <time>2026-08-23T11:59:14.089Z</time>
      </trkpt>
      <trkpt lat="43.89883" lon="6.21233">
        <ele>1006.7</ele>
        <time>2026-08-23T11:59:19.582Z</time>
      </trkpt>
      <trkpt lat="43.89886" lon="6.21228">
        <ele>1006.4</ele>
        <time>2026-08-23T11:59:24.542Z</time>
      </trkpt>
      <trkpt lat="43.89888" lon="6.21222">
        <ele>1005.7</ele>
        <time>2026-08-23T11:59:29.583Z</time>
      </trkpt>
      <trkpt lat="43.89893" lon="6.21217">
        <ele>1006.2</ele>
        <time>2026-08-23T11:59:34.932Z</time>
      </trkpt>
      <trkpt lat="43.89897" lon="6.21212">
        <ele>1006.5</ele>
        <time>2026-08-23T11:59:39.606Z</time>
      </trkpt>
      <trkpt lat="43.89903" lon="6.21203">
        <ele>1006.8</ele>
        <time>2026-08-23T11:59:50.582Z</time>
      </trkpt>
      <trkpt lat="43.89903" lon="6.21201">
        <ele>1006.4</ele>
        <time>2026-08-23T12:00:07.585Z</time>
      </trkpt>
      <trkpt lat="43.89907" lon="6.21195">
        <ele>1006.6</ele>
        <time>2026-08-23T12:00:13.044Z</time>
      </trkpt>
      <trkpt lat="43.89911" lon="6.21189">
        <ele>1007.2</ele>
        <time>2026-08-23T12:00:18.503Z</time>
      </trkpt>
      <trkpt lat="43.89914" lon="6.21182">
        <ele>1007.2</ele>
        <time>2026-08-23T12:00:23.700Z</time>
      </trkpt>
      <trkpt lat="43.89916" lon="6.21175">
        <ele>1007</ele>
        <time>2026-08-23T12:00:28.506Z</time>
      </trkpt>
      <trkpt lat="43.89919" lon="6.21168">
        <ele>1007.1</ele>
        <time>2026-08-23T12:00:33.719Z</time>
      </trkpt>
      <trkpt lat="43.89921" lon="6.21161">
        <ele>1007.5</ele>
        <time>2026-08-23T12:00:38.540Z</time>
      </trkpt>
      <trkpt lat="43.89923" lon="6.21154">
        <ele>1008.2</ele>
        <time>2026-08-23T12:00:43.540Z</time>
      </trkpt>
      <trkpt lat="43.89925" lon="6.21147">
        <ele>1008.8</ele>
        <time>2026-08-23T12:00:48.540Z</time>
      </trkpt>
      <trkpt lat="43.89925" lon="6.21135">
        <ele>1008.9</ele>
        <time>2026-08-23T12:00:58.561Z</time>
      </trkpt>
      <trkpt lat="43.89924" lon="6.21129">
        <ele>1008.9</ele>
        <time>2026-08-23T12:01:08.592Z</time>
      </trkpt>
      <trkpt lat="43.89921" lon="6.21123">
        <ele>1008</ele>
        <time>2026-08-23T12:01:13.777Z</time>
      </trkpt>
      <trkpt lat="43.89917" lon="6.21117">
        <ele>1006.7</ele>
        <time>2026-08-23T12:01:19.582Z</time>
      </trkpt>
      <trkpt lat="43.89915" lon="6.2111">
        <ele>1006.3</ele>
        <time>2026-08-23T12:01:24.386Z</time>
      </trkpt>
      <trkpt lat="43.89912" lon="6.21103">
        <ele>1005.5</ele>
        <time>2026-08-23T12:01:29.582Z</time>
      </trkpt>
      <trkpt lat="43.89912" lon="6.21096">
        <ele>1006.2</ele>
        <time>2026-08-23T12:01:35.042Z</time>
      </trkpt>
      <trkpt lat="43.89911" lon="6.21089">
        <ele>1006.4</ele>
        <time>2026-08-23T12:01:40.609Z</time>
      </trkpt>
      <trkpt lat="43.89911" lon="6.21083">
        <ele>1007</ele>
        <time>2026-08-23T12:01:45.620Z</time>
      </trkpt>
      <trkpt lat="43.8991" lon="6.21076">
        <ele>1006.9</ele>
        <time>2026-08-23T12:01:51.582Z</time>
      </trkpt>
      <trkpt lat="43.89911" lon="6.21069">
        <ele>1008</ele>
        <time>2026-08-23T12:01:56.297Z</time>
      </trkpt>
      <trkpt lat="43.89911" lon="6.21061">
        <ele>1008.5</ele>
        <time>2026-08-23T12:02:01.583Z</time>
      </trkpt>
      <trkpt lat="43.89912" lon="6.21054">
        <ele>1009.4</ele>
        <time>2026-08-23T12:02:06.317Z</time>
      </trkpt>
      <trkpt lat="43.89912" lon="6.21046">
        <ele>1008.9</ele>
        <time>2026-08-23T12:02:11.624Z</time>
      </trkpt>
      <trkpt lat="43.89914" lon="6.21038">
        <ele>1009.4</ele>
        <time>2026-08-23T12:02:17.220Z</time>
      </trkpt>
      <trkpt lat="43.89915" lon="6.2103">
        <ele>1009.4</ele>
        <time>2026-08-23T12:02:22.586Z</time>
      </trkpt>
      <trkpt lat="43.89917" lon="6.21023">
        <ele>1009.4</ele>
        <time>2026-08-23T12:02:27.761Z</time>
      </trkpt>
      <trkpt lat="43.89919" lon="6.21015">
        <ele>1008.9</ele>
        <time>2026-08-23T12:02:33.582Z</time>
      </trkpt>
      <trkpt lat="43.89922" lon="6.21008">
        <ele>1008.7</ele>
        <time>2026-08-23T12:02:38.777Z</time>
      </trkpt>
      <trkpt lat="43.89924" lon="6.21001">
        <ele>1008</ele>
        <time>2026-08-23T12:02:43.582Z</time>
      </trkpt>
      <trkpt lat="43.89929" lon="6.20996">
        <ele>1007.8</ele>
        <time>2026-08-23T12:02:48.427Z</time>
      </trkpt>
      <trkpt lat="43.89934" lon="6.2099">
        <ele>1006.8</ele>
        <time>2026-08-23T12:02:53.625Z</time>
      </trkpt>
      <trkpt lat="43.89941" lon="6.20989">
        <ele>1007.9</ele>
        <time>2026-08-23T12:02:59.519Z</time>
      </trkpt>
      <trkpt lat="43.89947" lon="6.20988">
        <ele>1008.5</ele>
        <time>2026-08-23T12:03:04.581Z</time>
      </trkpt>
      <trkpt lat="43.89952" lon="6.20988">
        <ele>1009.1</ele>
        <time>2026-08-23T12:03:09.555Z</time>
      </trkpt>
      <trkpt lat="43.89957" lon="6.20987">
        <ele>1009.2</ele>
        <time>2026-08-23T12:03:14.581Z</time>
      </trkpt>
      <trkpt lat="43.89963" lon="6.20986">
        <ele>1009.5</ele>
        <time>2026-08-23T12:03:19.594Z</time>
      </trkpt>
      <trkpt lat="43.89969" lon="6.20985">
        <ele>1009.7</ele>
        <time>2026-08-23T12:03:24.607Z</time>
      </trkpt>
      <trkpt lat="43.89976" lon="6.20984">
        <ele>1009.5</ele>
        <time>2026-08-23T12:03:30.511Z</time>
      </trkpt>
      <trkpt lat="43.89982" lon="6.20983">
        <ele>1009</ele>
        <time>2026-08-23T12:03:35.582Z</time>
      </trkpt>
      <trkpt lat="43.89987" lon="6.20982">
        <ele>1008.5</ele>
        <time>2026-08-23T12:03:41.123Z</time>
      </trkpt>
      <trkpt lat="43.89991" lon="6.20981">
        <ele>1008</ele>
        <time>2026-08-23T12:03:45.582Z</time>
      </trkpt>
      <trkpt lat="43.89996" lon="6.2098">
        <ele>1007.6</ele>
        <time>2026-08-23T12:03:51.021Z</time>
      </trkpt>
      <trkpt lat="43.9" lon="6.20978">
        <ele>1006.9</ele>
        <time>2026-08-23T12:03:55.600Z</time>
      </trkpt>
      <trkpt lat="43.90007" lon="6.20978">
        <ele>1006.2</ele>
        <time>2026-08-23T12:04:01.512Z</time>
      </trkpt>
      <trkpt lat="43.90013" lon="6.20978">
        <ele>1005.5</ele>
        <time>2026-08-23T12:04:06.581Z</time>
      </trkpt>
      <trkpt lat="43.9002" lon="6.20983">
        <ele>1005.9</ele>
        <time>2026-08-23T12:04:17.581Z</time>
      </trkpt>
      <trkpt lat="43.9002" lon="6.20989">
        <ele>1007.3</ele>
        <time>2026-08-23T12:04:27.611Z</time>
      </trkpt>
      <trkpt lat="43.90021" lon="6.20991">
        <ele>1007.5</ele>
        <time>2026-08-23T12:05:00.615Z</time>
      </trkpt>
      <trkpt lat="43.90028" lon="6.20993">
        <ele>1006.7</ele>
        <time>2026-08-23T12:05:06.576Z</time>
      </trkpt>
      <trkpt lat="43.90034" lon="6.20994">
        <ele>1005.4</ele>
        <time>2026-08-23T12:05:11.618Z</time>
      </trkpt>
      <trkpt lat="43.90042" lon="6.20996">
        <ele>1003.6</ele>
        <time>2026-08-23T12:05:21.618Z</time>
      </trkpt>
      <trkpt lat="43.90047" lon="6.20999">
        <ele>1002.4</ele>
        <time>2026-08-23T12:05:27.244Z</time>
      </trkpt>
      <trkpt lat="43.90052" lon="6.21001">
        <ele>1000.9</ele>
        <time>2026-08-23T12:05:32.620Z</time>
      </trkpt>
      <trkpt lat="43.90051" lon="6.21013">
        <ele>1000.4</ele>
        <time>2026-08-23T12:05:43.588Z</time>
      </trkpt>
      <trkpt lat="43.9005" lon="6.2102">
        <ele>1000.3</ele>
        <time>2026-08-23T12:05:48.936Z</time>
      </trkpt>
      <trkpt lat="43.90048" lon="6.21027">
        <ele>1000.8</ele>
        <time>2026-08-23T12:05:54.581Z</time>
      </trkpt>
      <trkpt lat="43.90043" lon="6.21036">
        <ele>1002.1</ele>
        <time>2026-08-23T12:06:04.581Z</time>
      </trkpt>
      <trkpt lat="43.90039" lon="6.21046">
        <ele>1003</ele>
        <time>2026-08-23T12:06:14.581Z</time>
      </trkpt>
      <trkpt lat="43.90037" lon="6.21052">
        <ele>1003.4</ele>
        <time>2026-08-23T12:06:19.580Z</time>
      </trkpt>
      <trkpt lat="43.90035" lon="6.21058">
        <ele>1004</ele>
        <time>2026-08-23T12:06:24.581Z</time>
      </trkpt>
      <trkpt lat="43.90031" lon="6.21069">
        <ele>1005.4</ele>
        <time>2026-08-23T12:06:35.626Z</time>
      </trkpt>
      <trkpt lat="43.9003" lon="6.21075">
        <ele>1005.4</ele>
        <time>2026-08-23T12:06:40.919Z</time>
      </trkpt>
      <trkpt lat="43.90028" lon="6.21081">
        <ele>1006.1</ele>
        <time>2026-08-23T12:06:46.601Z</time>
      </trkpt>
      <trkpt lat="43.90024" lon="6.21092">
        <ele>1008.3</ele>
        <time>2026-08-23T12:06:57.581Z</time>
      </trkpt>
      <trkpt lat="43.90026" lon="6.21097">
        <ele>1007.1</ele>
        <time>2026-08-23T12:07:25.581Z</time>
      </trkpt>
      <trkpt lat="43.90025" lon="6.21108">
        <ele>1007.6</ele>
        <time>2026-08-23T12:07:35.626Z</time>
      </trkpt>
      <trkpt lat="43.90022" lon="6.21118">
        <ele>1010.1</ele>
        <time>2026-08-23T12:07:46.594Z</time>
      </trkpt>
      <trkpt lat="43.90025" lon="6.21125">
        <ele>1009.1</ele>
        <time>2026-08-23T12:07:57.581Z</time>
      </trkpt>
      <trkpt lat="43.90029" lon="6.21134">
        <ele>1007.7</ele>
        <time>2026-08-23T12:08:07.581Z</time>
      </trkpt>
      <trkpt lat="43.90029" lon="6.21141">
        <ele>1008.6</ele>
        <time>2026-08-23T12:08:17.601Z</time>
      </trkpt>
      <trkpt lat="43.9003" lon="6.21148">
        <ele>1009.3</ele>
        <time>2026-08-23T12:08:28.580Z</time>
      </trkpt>
      <trkpt lat="43.9003" lon="6.21152">
        <ele>1010.1</ele>
        <time>2026-08-23T12:08:38.633Z</time>
      </trkpt>
      <trkpt lat="43.9003" lon="6.21159">
        <ele>1011.5</ele>
        <time>2026-08-23T12:08:49.599Z</time>
      </trkpt>
      <trkpt lat="43.90029" lon="6.21163">
        <ele>1012.7</ele>
        <time>2026-08-23T12:09:18.582Z</time>
      </trkpt>
      <trkpt lat="43.9003" lon="6.21168">
        <ele>1013.5</ele>
        <time>2026-08-23T12:09:29.619Z</time>
      </trkpt>
      <trkpt lat="43.90029" lon="6.21171">
        <ele>1015</ele>
        <time>2026-08-23T12:09:45.580Z</time>
      </trkpt>
      <trkpt lat="43.9003" lon="6.2118">
        <ele>1018</ele>
        <time>2026-08-23T12:09:56.623Z</time>
      </trkpt>
      <trkpt lat="43.90034" lon="6.21182">
        <ele>1017.2</ele>
        <time>2026-08-23T12:10:07.584Z</time>
      </trkpt>
      <trkpt lat="43.90036" lon="6.21184">
        <ele>1017.3</ele>
        <time>2026-08-23T12:10:47.580Z</time>
      </trkpt>
      <trkpt lat="43.90043" lon="6.21186">
        <ele>1015.7</ele>
        <time>2026-08-23T12:10:57.580Z</time>
      </trkpt>
      <trkpt lat="43.90048" lon="6.21187">
        <ele>1014.5</ele>
        <time>2026-08-23T12:11:03.121Z</time>
      </trkpt>
      <trkpt lat="43.90052" lon="6.21188">
        <ele>1013.7</ele>
        <time>2026-08-23T12:11:07.580Z</time>
      </trkpt>
      <trkpt lat="43.90059" lon="6.21194">
        <ele>1014.9</ele>
        <time>2026-08-23T12:11:17.585Z</time>
      </trkpt>
      <trkpt lat="43.90065" lon="6.21201">
        <ele>1016.9</ele>
        <time>2026-08-23T12:11:27.679Z</time>
      </trkpt>
      <trkpt lat="43.9007" lon="6.21204">
        <ele>1017.2</ele>
        <time>2026-08-23T12:11:33.653Z</time>
      </trkpt>
      <trkpt lat="43.90074" lon="6.21207">
        <ele>1017.7</ele>
        <time>2026-08-23T12:11:38.640Z</time>
      </trkpt>
      <trkpt lat="43.90079" lon="6.21211">
        <ele>1018.4</ele>
        <time>2026-08-23T12:11:44.750Z</time>
      </trkpt>
      <trkpt lat="43.90083" lon="6.21214">
        <ele>1018.9</ele>
        <time>2026-08-23T12:11:49.564Z</time>
      </trkpt>
      <trkpt lat="43.9009" lon="6.21219">
        <ele>1019.7</ele>
        <time>2026-08-23T12:12:00.580Z</time>
      </trkpt>
      <trkpt lat="43.90095" lon="6.21223">
        <ele>1020.3</ele>
        <time>2026-08-23T12:12:06.534Z</time>
      </trkpt>
      <trkpt lat="43.90099" lon="6.21227">
        <ele>1020.4</ele>
        <time>2026-08-23T12:12:11.621Z</time>
      </trkpt>
      <trkpt lat="43.90104" lon="6.21229">
        <ele>1019.7</ele>
        <time>2026-08-23T12:12:17.654Z</time>
      </trkpt>
      <trkpt lat="43.90108" lon="6.21231">
        <ele>1019.3</ele>
        <time>2026-08-23T12:12:22.585Z</time>
      </trkpt>
      <trkpt lat="43.90112" lon="6.21233">
        <ele>1018.9</ele>
        <time>2026-08-23T12:12:32.630Z</time>
      </trkpt>
      <trkpt lat="43.90116" lon="6.21241">
        <ele>1020.3</ele>
        <time>2026-08-23T12:12:43.580Z</time>
      </trkpt>
      <trkpt lat="43.90117" lon="6.2125">
        <ele>1022.7</ele>
        <time>2026-08-23T12:12:53.634Z</time>
      </trkpt>
      <trkpt lat="43.90116" lon="6.21258">
        <ele>1024.2</ele>
        <time>2026-08-23T12:12:59.315Z</time>
      </trkpt>
      <trkpt lat="43.90114" lon="6.21265">
        <ele>1025.6</ele>
        <time>2026-08-23T12:13:04.585Z</time>
      </trkpt>
      <trkpt lat="43.90114" lon="6.21272">
        <ele>1026.7</ele>
        <time>2026-08-23T12:13:09.566Z</time>
      </trkpt>
      <trkpt lat="43.90113" lon="6.21279">
        <ele>1027.9</ele>
        <time>2026-08-23T12:13:14.645Z</time>
      </trkpt>
      <trkpt lat="43.90113" lon="6.21287">
        <ele>1029.1</ele>
        <time>2026-08-23T12:13:20.435Z</time>
      </trkpt>
      <trkpt lat="43.90112" lon="6.21294">
        <ele>1030.2</ele>
        <time>2026-08-23T12:13:25.600Z</time>
      </trkpt>
      <trkpt lat="43.90112" lon="6.21304">
        <ele>1031.6</ele>
        <time>2026-08-23T12:13:35.659Z</time>
      </trkpt>
      <trkpt lat="43.90114" lon="6.21312">
        <ele>1032.5</ele>
        <time>2026-08-23T12:13:46.613Z</time>
      </trkpt>
      <trkpt lat="43.90116" lon="6.21323">
        <ele>1033.6</ele>
        <time>2026-08-23T12:13:57.659Z</time>
      </trkpt>
      <trkpt lat="43.90119" lon="6.21332">
        <ele>1034.1</ele>
        <time>2026-08-23T12:14:08.601Z</time>
      </trkpt>
      <trkpt lat="43.90121" lon="6.21336">
        <ele>1034.3</ele>
        <time>2026-08-23T12:14:19.624Z</time>
      </trkpt>
      <trkpt lat="43.9012" lon="6.21345">
        <ele>1036.1</ele>
        <time>2026-08-23T12:14:29.627Z</time>
      </trkpt>
      <trkpt lat="43.90119" lon="6.21346">
        <ele>1036.5</ele>
        <time>2026-08-23T12:15:01.580Z</time>
      </trkpt>
      <trkpt lat="43.90122" lon="6.21355">
        <ele>1037.1</ele>
        <time>2026-08-23T12:15:11.633Z</time>
      </trkpt>
      <trkpt lat="43.90123" lon="6.21361">
        <ele>1037.7</ele>
        <time>2026-08-23T12:15:22.582Z</time>
      </trkpt>
      <trkpt lat="43.90126" lon="6.2137">
        <ele>1037.9</ele>
        <time>2026-08-23T12:15:33.344Z</time>
      </trkpt>
      <trkpt lat="43.90128" lon="6.21376">
        <ele>1037.8</ele>
        <time>2026-08-23T12:15:43.586Z</time>
      </trkpt>
      <trkpt lat="43.90131" lon="6.21383">
        <ele>1037.3</ele>
        <time>2026-08-23T12:15:53.645Z</time>
      </trkpt>
      <trkpt lat="43.90132" lon="6.21388">
        <ele>1037.4</ele>
        <time>2026-08-23T12:16:04.595Z</time>
      </trkpt>
      <trkpt lat="43.90133" lon="6.21395">
        <ele>1037.6</ele>
        <time>2026-08-23T12:16:15.657Z</time>
      </trkpt>
      <trkpt lat="43.90133" lon="6.21404">
        <ele>1038.6</ele>
        <time>2026-08-23T12:16:26.642Z</time>
      </trkpt>
      <trkpt lat="43.90132" lon="6.21409">
        <ele>1039.8</ele>
        <time>2026-08-23T12:16:36.664Z</time>
      </trkpt>
      <trkpt lat="43.90133" lon="6.21411">
        <ele>1039.4</ele>
        <time>2026-08-23T12:16:53.652Z</time>
      </trkpt>
      <trkpt lat="43.90132" lon="6.21421">
        <ele>1041.5</ele>
        <time>2026-08-23T12:17:04.682Z</time>
      </trkpt>
      <trkpt lat="43.90129" lon="6.2143">
        <ele>1045.2</ele>
        <time>2026-08-23T12:17:15.579Z</time>
      </trkpt>
      <trkpt lat="43.90127" lon="6.2144">
        <ele>1048.6</ele>
        <time>2026-08-23T12:17:25.614Z</time>
      </trkpt>
      <trkpt lat="43.90127" lon="6.21447">
        <ele>1050</ele>
        <time>2026-08-23T12:17:31.457Z</time>
      </trkpt>
      <trkpt lat="43.90126" lon="6.21453">
        <ele>1052.2</ele>
        <time>2026-08-23T12:17:36.598Z</time>
      </trkpt>
      <trkpt lat="43.90126" lon="6.2146">
        <ele>1053.8</ele>
        <time>2026-08-23T12:17:42.533Z</time>
      </trkpt>
      <trkpt lat="43.90126" lon="6.21466">
        <ele>1055.2</ele>
        <time>2026-08-23T12:17:47.621Z</time>
      </trkpt>
      <trkpt lat="43.90126" lon="6.21473">
        <ele>1056.9</ele>
        <time>2026-08-23T12:17:53.575Z</time>
      </trkpt>
      <trkpt lat="43.90126" lon="6.21479">
        <ele>1058.6</ele>
        <time>2026-08-23T12:17:58.679Z</time>
      </trkpt>
      <trkpt lat="43.90127" lon="6.21486">
        <ele>1059.9</ele>
        <time>2026-08-23T12:18:04.627Z</time>
      </trkpt>
      <trkpt lat="43.90127" lon="6.21492">
        <ele>1061.6</ele>
        <time>2026-08-23T12:18:09.628Z</time>
      </trkpt>
      <trkpt lat="43.90129" lon="6.215">
        <ele>1062.5</ele>
        <time>2026-08-23T12:18:15.594Z</time>
      </trkpt>
      <trkpt lat="43.9013" lon="6.21507">
        <ele>1063.6</ele>
        <time>2026-08-23T12:18:20.622Z</time>
      </trkpt>
      <trkpt lat="43.90131" lon="6.21519">
        <ele>1066</ele>
        <time>2026-08-23T12:18:30.639Z</time>
      </trkpt>
      <trkpt lat="43.90137" lon="6.21528">
        <ele>1064.3</ele>
        <time>2026-08-23T12:18:41.593Z</time>
      </trkpt>
      <trkpt lat="43.90141" lon="6.21534">
        <ele>1062.7</ele>
        <time>2026-08-23T12:18:47.375Z</time>
      </trkpt>
      <trkpt lat="43.90145" lon="6.21539">
        <ele>1061.4</ele>
        <time>2026-08-23T12:18:52.661Z</time>
      </trkpt>
      <trkpt lat="43.90148" lon="6.21545">
        <ele>1061.1</ele>
        <time>2026-08-23T12:18:58.435Z</time>
      </trkpt>
      <trkpt lat="43.9015" lon="6.21551">
        <ele>1061.6</ele>
        <time>2026-08-23T12:19:03.662Z</time>
      </trkpt>
      <trkpt lat="43.90154" lon="6.21561">
        <ele>1061.1</ele>
        <time>2026-08-23T12:19:14.580Z</time>
      </trkpt>
      <trkpt lat="43.90155" lon="6.21568">
        <ele>1060.9</ele>
        <time>2026-08-23T12:19:19.978Z</time>
      </trkpt>
      <trkpt lat="43.90156" lon="6.21574">
        <ele>1060.6</ele>
        <time>2026-08-23T12:19:24.637Z</time>
      </trkpt>
      <trkpt lat="43.90159" lon="6.2158">
        <ele>1059.7</ele>
        <time>2026-08-23T12:19:30.114Z</time>
      </trkpt>
      <trkpt lat="43.90162" lon="6.21586">
        <ele>1058.6</ele>
        <time>2026-08-23T12:19:35.592Z</time>
      </trkpt>
      <trkpt lat="43.90169" lon="6.21589">
        <ele>1056.4</ele>
        <time>2026-08-23T12:19:45.662Z</time>
      </trkpt>
      <trkpt lat="43.90174" lon="6.21589">
        <ele>1055.4</ele>
        <time>2026-08-23T12:19:51.750Z</time>
      </trkpt>
      <trkpt lat="43.90178" lon="6.21589">
        <ele>1054.7</ele>
        <time>2026-08-23T12:19:56.621Z</time>
      </trkpt>
      <trkpt lat="43.90178" lon="6.21591">
        <ele>1054.6</ele>
        <time>2026-08-23T12:22:05.637Z</time>
      </trkpt>
      <trkpt lat="43.90175" lon="6.21599">
        <ele>1054.8</ele>
        <time>2026-08-23T12:22:11.397Z</time>
      </trkpt>
      <trkpt lat="43.90172" lon="6.21606">
        <ele>1055.1</ele>
        <time>2026-08-23T12:22:16.600Z</time>
      </trkpt>
      <trkpt lat="43.90169" lon="6.21613">
        <ele>1055.4</ele>
        <time>2026-08-23T12:22:22.085Z</time>
      </trkpt>
      <trkpt lat="43.90166" lon="6.2162">
        <ele>1055.6</ele>
        <time>2026-08-23T12:22:27.572Z</time>
      </trkpt>
      <trkpt lat="43.90162" lon="6.21627">
        <ele>1056.4</ele>
        <time>2026-08-23T12:22:32.821Z</time>
      </trkpt>
      <trkpt lat="43.90158" lon="6.21633">
        <ele>1057.2</ele>
        <time>2026-08-23T12:22:37.624Z</time>
      </trkpt>
      <trkpt lat="43.90154" lon="6.21639">
        <ele>1058.1</ele>
        <time>2026-08-23T12:22:43.009Z</time>
      </trkpt>
      <trkpt lat="43.9015" lon="6.21645">
        <ele>1058.7</ele>
        <time>2026-08-23T12:22:48.395Z</time>
      </trkpt>
      <trkpt lat="43.90146" lon="6.21651">
        <ele>1059.4</ele>
        <time>2026-08-23T12:22:53.486Z</time>
      </trkpt>
      <trkpt lat="43.90142" lon="6.21657">
        <ele>1060</ele>
        <time>2026-08-23T12:22:58.578Z</time>
      </trkpt>
      <trkpt lat="43.90138" lon="6.21667">
        <ele>1060.2</ele>
        <time>2026-08-23T12:23:08.593Z</time>
      </trkpt>
      <trkpt lat="43.90134" lon="6.21677">
        <ele>1060.7</ele>
        <time>2026-08-23T12:23:19.578Z</time>
      </trkpt>
      <trkpt lat="43.90131" lon="6.21688">
        <ele>1060.8</ele>
        <time>2026-08-23T12:23:29.621Z</time>
      </trkpt>
      <trkpt lat="43.90129" lon="6.21694">
        <ele>1060.8</ele>
        <time>2026-08-23T12:23:35.100Z</time>
      </trkpt>
      <trkpt lat="43.90127" lon="6.217">
        <ele>1061.5</ele>
        <time>2026-08-23T12:23:40.580Z</time>
      </trkpt>
      <trkpt lat="43.90125" lon="6.21706">
        <ele>1062.1</ele>
        <time>2026-08-23T12:23:46.078Z</time>
      </trkpt>
      <trkpt lat="43.90123" lon="6.21712">
        <ele>1062.7</ele>
        <time>2026-08-23T12:23:51.578Z</time>
      </trkpt>
      <trkpt lat="43.90119" lon="6.21713">
        <ele>1063.1</ele>
        <time>2026-08-23T12:25:00.637Z</time>
      </trkpt>
      <trkpt lat="43.90111" lon="6.21709">
        <ele>1064</ele>
        <time>2026-08-23T12:25:11.594Z</time>
      </trkpt>
      <trkpt lat="43.90107" lon="6.2171">
        <ele>1063.7</ele>
        <time>2026-08-23T12:25:16.519Z</time>
      </trkpt>
      <trkpt lat="43.90102" lon="6.2171">
        <ele>1063.3</ele>
        <time>2026-08-23T12:25:22.578Z</time>
      </trkpt>
      <trkpt lat="43.90095" lon="6.21717">
        <ele>1062.1</ele>
        <time>2026-08-23T12:25:32.617Z</time>
      </trkpt>
      <trkpt lat="43.90089" lon="6.21723">
        <ele>1060.9</ele>
        <time>2026-08-23T12:25:43.578Z</time>
      </trkpt>
      <trkpt lat="43.90085" lon="6.21726">
        <ele>1060.4</ele>
        <time>2026-08-23T12:26:08.620Z</time>
      </trkpt>
      <trkpt lat="43.90082" lon="6.21731">
        <ele>1060</ele>
        <time>2026-08-23T12:28:33.551Z</time>
      </trkpt>
      <trkpt lat="43.90079" lon="6.21737">
        <ele>1059.5</ele>
        <time>2026-08-23T12:28:38.301Z</time>
      </trkpt>
      <trkpt lat="43.90075" lon="6.21743">
        <ele>1058.6</ele>
        <time>2026-08-23T12:28:43.619Z</time>
      </trkpt>
      <trkpt lat="43.90072" lon="6.21749">
        <ele>1057.7</ele>
        <time>2026-08-23T12:28:48.790Z</time>
      </trkpt>
      <trkpt lat="43.90068" lon="6.21755">
        <ele>1057.6</ele>
        <time>2026-08-23T12:28:54.579Z</time>
      </trkpt>
      <trkpt lat="43.90065" lon="6.21761">
        <ele>1057.8</ele>
        <time>2026-08-23T12:28:59.529Z</time>
      </trkpt>
      <trkpt lat="43.90061" lon="6.21766">
        <ele>1057.6</ele>
        <time>2026-08-23T12:29:04.593Z</time>
      </trkpt>
      <trkpt lat="43.90056" lon="6.21772">
        <ele>1057.1</ele>
        <time>2026-08-23T12:29:14.595Z</time>
      </trkpt>
      <trkpt lat="43.90051" lon="6.21782">
        <ele>1057.2</ele>
        <time>2026-08-23T12:29:24.611Z</time>
      </trkpt>
      <trkpt lat="43.90049" lon="6.21788">
        <ele>1057.8</ele>
        <time>2026-08-23T12:29:30.153Z</time>
      </trkpt>
      <trkpt lat="43.90046" lon="6.21793">
        <ele>1057.7</ele>
        <time>2026-08-23T12:29:35.608Z</time>
      </trkpt>
      <trkpt lat="43.90043" lon="6.21799">
        <ele>1057.7</ele>
        <time>2026-08-23T12:29:41.030Z</time>
      </trkpt>
      <trkpt lat="43.90039" lon="6.21804">
        <ele>1057.1</ele>
        <time>2026-08-23T12:29:46.577Z</time>
      </trkpt>
      <trkpt lat="43.90036" lon="6.2181">
        <ele>1056.8</ele>
        <time>2026-08-23T12:29:51.584Z</time>
      </trkpt>
      <trkpt lat="43.90033" lon="6.21816">
        <ele>1056.5</ele>
        <time>2026-08-23T12:29:56.593Z</time>
      </trkpt>
      <trkpt lat="43.90032" lon="6.21824">
        <ele>1057.2</ele>
        <time>2026-08-23T12:30:02.084Z</time>
      </trkpt>
      <trkpt lat="43.90031" lon="6.21832">
        <ele>1058</ele>
        <time>2026-08-23T12:30:07.577Z</time>
      </trkpt>
      <trkpt lat="43.90029" lon="6.21844">
        <ele>1057.4</ele>
        <time>2026-08-23T12:30:17.637Z</time>
      </trkpt>
      <trkpt lat="43.90029" lon="6.21851">
        <ele>1057.4</ele>
        <time>2026-08-23T12:30:23.565Z</time>
      </trkpt>
      <trkpt lat="43.90029" lon="6.21857">
        <ele>1057.4</ele>
        <time>2026-08-23T12:30:28.647Z</time>
      </trkpt>
      <trkpt lat="43.90028" lon="6.21868">
        <ele>1056.6</ele>
        <time>2026-08-23T12:30:39.590Z</time>
      </trkpt>
      <trkpt lat="43.90029" lon="6.21875">
        <ele>1056.4</ele>
        <time>2026-08-23T12:30:44.650Z</time>
      </trkpt>
      <trkpt lat="43.90029" lon="6.21882">
        <ele>1055.9</ele>
        <time>2026-08-23T12:30:49.614Z</time>
      </trkpt>
      <trkpt lat="43.9003" lon="6.21893">
        <ele>1055.5</ele>
        <time>2026-08-23T12:30:59.678Z</time>
      </trkpt>
      <trkpt lat="43.90031" lon="6.21901">
        <ele>1055.3</ele>
        <time>2026-08-23T12:31:05.052Z</time>
      </trkpt>
      <trkpt lat="43.90031" lon="6.21908">
        <ele>1054.8</ele>
        <time>2026-08-23T12:31:09.686Z</time>
      </trkpt>
      <trkpt lat="43.90035" lon="6.21913">
        <ele>1055.9</ele>
        <time>2026-08-23T12:31:15.508Z</time>
      </trkpt>
      <trkpt lat="43.90038" lon="6.21918">
        <ele>1056.9</ele>
        <time>2026-08-23T12:31:20.579Z</time>
      </trkpt>
      <trkpt lat="43.90035" lon="6.21926">
        <ele>1057.4</ele>
        <time>2026-08-23T12:31:30.640Z</time>
      </trkpt>
      <trkpt lat="43.90032" lon="6.21928">
        <ele>1056.8</ele>
        <time>2026-08-23T12:31:41.596Z</time>
      </trkpt>
      <trkpt lat="43.90031" lon="6.21931">
        <ele>1057.1</ele>
        <time>2026-08-23T12:31:51.658Z</time>
      </trkpt>
      <trkpt lat="43.90025" lon="6.21935">
        <ele>1056.4</ele>
        <time>2026-08-23T12:31:57.251Z</time>
      </trkpt>
      <trkpt lat="43.90019" lon="6.21938">
        <ele>1055.7</ele>
        <time>2026-08-23T12:32:02.611Z</time>
      </trkpt>
      <trkpt lat="43.90015" lon="6.21942">
        <ele>1055.7</ele>
        <time>2026-08-23T12:32:07.641Z</time>
      </trkpt>
      <trkpt lat="43.90011" lon="6.21946">
        <ele>1055.7</ele>
        <time>2026-08-23T12:32:12.672Z</time>
      </trkpt>
      <trkpt lat="43.90007" lon="6.21949">
        <ele>1055.5</ele>
        <time>2026-08-23T12:32:17.655Z</time>
      </trkpt>
      <trkpt lat="43.90002" lon="6.21952">
        <ele>1055.1</ele>
        <time>2026-08-23T12:32:23.627Z</time>
      </trkpt>
      <trkpt lat="43.89997" lon="6.21957">
        <ele>1055.2</ele>
        <time>2026-08-23T12:32:29.103Z</time>
      </trkpt>
      <trkpt lat="43.89992" lon="6.21962">
        <ele>1055.5</ele>
        <time>2026-08-23T12:32:34.580Z</time>
      </trkpt>
      <trkpt lat="43.89987" lon="6.21964">
        <ele>1055.2</ele>
        <time>2026-08-23T12:32:39.235Z</time>
      </trkpt>
      <trkpt lat="43.89981" lon="6.21965">
        <ele>1054.5</ele>
        <time>2026-08-23T12:32:44.642Z</time>
      </trkpt>
      <trkpt lat="43.89975" lon="6.21969">
        <ele>1054.6</ele>
        <time>2026-08-23T12:32:50.239Z</time>
      </trkpt>
      <trkpt lat="43.89969" lon="6.21972">
        <ele>1054.9</ele>
        <time>2026-08-23T12:32:55.603Z</time>
      </trkpt>
      <trkpt lat="43.89965" lon="6.21975">
        <ele>1056.1</ele>
        <time>2026-08-23T12:33:00.636Z</time>
      </trkpt>
      <trkpt lat="43.89961" lon="6.21978">
        <ele>1057.2</ele>
        <time>2026-08-23T12:33:05.670Z</time>
      </trkpt>
      <trkpt lat="43.89956" lon="6.21979">
        <ele>1057.5</ele>
        <time>2026-08-23T12:33:10.659Z</time>
      </trkpt>
      <trkpt lat="43.8995" lon="6.2198">
        <ele>1057.9</ele>
        <time>2026-08-23T12:33:16.628Z</time>
      </trkpt>
      <trkpt lat="43.89944" lon="6.2198">
        <ele>1057.8</ele>
        <time>2026-08-23T12:33:22.087Z</time>
      </trkpt>
      <trkpt lat="43.89938" lon="6.21979">
        <ele>1057.4</ele>
        <time>2026-08-23T12:33:27.587Z</time>
      </trkpt>
      <trkpt lat="43.89934" lon="6.21978">
        <ele>1057.1</ele>
        <time>2026-08-23T12:33:32.074Z</time>
      </trkpt>
      <trkpt lat="43.89929" lon="6.21977">
        <ele>1056.9</ele>
        <time>2026-08-23T12:33:37.652Z</time>
      </trkpt>
      <trkpt lat="43.89924" lon="6.21978">
        <ele>1057.2</ele>
        <time>2026-08-23T12:33:43.117Z</time>
      </trkpt>
      <trkpt lat="43.89919" lon="6.21978">
        <ele>1057.2</ele>
        <time>2026-08-23T12:33:48.528Z</time>
      </trkpt>
      <trkpt lat="43.89911" lon="6.21981">
        <ele>1056.6</ele>
        <time>2026-08-23T12:33:58.587Z</time>
      </trkpt>
      <trkpt lat="43.89907" lon="6.2199">
        <ele>1057.5</ele>
        <time>2026-08-23T12:34:08.633Z</time>
      </trkpt>
      <trkpt lat="43.89905" lon="6.21996">
        <ele>1058.3</ele>
        <time>2026-08-23T12:34:13.840Z</time>
      </trkpt>
      <trkpt lat="43.89902" lon="6.22002">
        <ele>1058.7</ele>
        <time>2026-08-23T12:34:19.594Z</time>
      </trkpt>
      <trkpt lat="43.89896" lon="6.22009">
        <ele>1058.6</ele>
        <time>2026-08-23T12:34:29.657Z</time>
      </trkpt>
      <trkpt lat="43.89892" lon="6.22014">
        <ele>1058.7</ele>
        <time>2026-08-23T12:34:40.615Z</time>
      </trkpt>
      <trkpt lat="43.89889" lon="6.2202">
        <ele>1059.3</ele>
        <time>2026-08-23T12:34:45.787Z</time>
      </trkpt>
      <trkpt lat="43.89885" lon="6.22026">
        <ele>1059.8</ele>
        <time>2026-08-23T12:34:51.576Z</time>
      </trkpt>
      <trkpt lat="43.89881" lon="6.22033">
        <ele>1059.6</ele>
        <time>2026-08-23T12:35:01.631Z</time>
      </trkpt>
      <trkpt lat="43.8988" lon="6.22037">
        <ele>1059.6</ele>
        <time>2026-08-23T12:37:21.529Z</time>
      </trkpt>
      <trkpt lat="43.89879" lon="6.22046">
        <ele>1060</ele>
        <time>2026-08-23T12:37:26.447Z</time>
      </trkpt>
      <trkpt lat="43.89877" lon="6.22055">
        <ele>1060.3</ele>
        <time>2026-08-23T12:37:31.534Z</time>
      </trkpt>
      <trkpt lat="43.89873" lon="6.22064">
        <ele>1059.7</ele>
        <time>2026-08-23T12:37:41.629Z</time>
      </trkpt>
      <trkpt lat="43.89871" lon="6.22071">
        <ele>1059.4</ele>
        <time>2026-08-23T12:37:47.109Z</time>
      </trkpt>
      <trkpt lat="43.89869" lon="6.22078">
        <ele>1059.1</ele>
        <time>2026-08-23T12:37:52.591Z</time>
      </trkpt>
      <trkpt lat="43.89868" lon="6.22087">
        <ele>1058.5</ele>
        <time>2026-08-23T12:38:02.653Z</time>
      </trkpt>
      <trkpt lat="43.89872" lon="6.22092">
        <ele>1058.3</ele>
        <time>2026-08-23T12:38:13.532Z</time>
      </trkpt>
      <trkpt lat="43.89877" lon="6.22098">
        <ele>1058.2</ele>
        <time>2026-08-23T12:38:19.067Z</time>
      </trkpt>
      <trkpt lat="43.89881" lon="6.22103">
        <ele>1058</ele>
        <time>2026-08-23T12:38:23.576Z</time>
      </trkpt>
      <trkpt lat="43.8988" lon="6.22108">
        <ele>1057.2</ele>
        <time>2026-08-23T12:38:33.649Z</time>
      </trkpt>
      <trkpt lat="43.89876" lon="6.22112">
        <ele>1055.8</ele>
        <time>2026-08-23T12:38:38.841Z</time>
      </trkpt>
      <trkpt lat="43.89871" lon="6.22115">
        <ele>1054.2</ele>
        <time>2026-08-23T12:38:44.578Z</time>
      </trkpt>
      <trkpt lat="43.89869" lon="6.22115">
        <ele>1053.9</ele>
        <time>2026-08-23T12:39:07.595Z</time>
      </trkpt>
      <trkpt lat="43.89865" lon="6.22118">
        <ele>1052.5</ele>
        <time>2026-08-23T12:39:13.085Z</time>
      </trkpt>
      <trkpt lat="43.89861" lon="6.22121">
        <ele>1051.1</ele>
        <time>2026-08-23T12:39:18.577Z</time>
      </trkpt>
      <trkpt lat="43.89855" lon="6.22124">
        <ele>1050</ele>
        <time>2026-08-23T12:39:37.576Z</time>
      </trkpt>
      <trkpt lat="43.89851" lon="6.22125">
        <ele>1049.5</ele>
        <time>2026-08-23T12:39:42.059Z</time>
      </trkpt>
      <trkpt lat="43.89846" lon="6.22125">
        <ele>1049.2</ele>
        <time>2026-08-23T12:39:47.576Z</time>
      </trkpt>
      <trkpt lat="43.89839" lon="6.22131">
        <ele>1046.9</ele>
        <time>2026-08-23T12:39:57.577Z</time>
      </trkpt>
      <trkpt lat="43.89832" lon="6.22135">
        <ele>1045.1</ele>
        <time>2026-08-23T12:40:07.628Z</time>
      </trkpt>
      <trkpt lat="43.89826" lon="6.2214">
        <ele>1042.5</ele>
        <time>2026-08-23T12:40:18.583Z</time>
      </trkpt>
      <trkpt lat="43.89821" lon="6.22142">
        <ele>1041.1</ele>
        <time>2026-08-23T12:40:23.661Z</time>
      </trkpt>
      <trkpt lat="43.89816" lon="6.22143">
        <ele>1040</ele>
        <time>2026-08-23T12:40:28.592Z</time>
      </trkpt>
      <trkpt lat="43.89812" lon="6.22145">
        <ele>1038.7</ele>
        <time>2026-08-23T12:40:33.088Z</time>
      </trkpt>
      <trkpt lat="43.89807" lon="6.22147">
        <ele>1037.3</ele>
        <time>2026-08-23T12:40:38.592Z</time>
      </trkpt>
      <trkpt lat="43.89801" lon="6.22151">
        <ele>1034.2</ele>
        <time>2026-08-23T12:40:49.655Z</time>
      </trkpt>
      <trkpt lat="43.89798" lon="6.22154">
        <ele>1032.3</ele>
        <time>2026-08-23T12:41:00.605Z</time>
      </trkpt>
      <trkpt lat="43.89792" lon="6.22156">
        <ele>1029.9</ele>
        <time>2026-08-23T12:41:10.661Z</time>
      </trkpt>
      <trkpt lat="43.89789" lon="6.22161">
        <ele>1027.5</ele>
        <time>2026-08-23T12:41:21.613Z</time>
      </trkpt>
      <trkpt lat="43.8979" lon="6.22163">
        <ele>1027.2</ele>
        <time>2026-08-23T12:42:04.619Z</time>
      </trkpt>
      <trkpt lat="43.89792" lon="6.22173">
        <ele>1024.6</ele>
        <time>2026-08-23T12:42:15.575Z</time>
      </trkpt>
      <trkpt lat="43.89795" lon="6.22179">
        <ele>1023.5</ele>
        <time>2026-08-23T12:42:25.635Z</time>
      </trkpt>
      <trkpt lat="43.898" lon="6.22183">
        <ele>1023.4</ele>
        <time>2026-08-23T12:42:36.590Z</time>
      </trkpt>
      <trkpt lat="43.89806" lon="6.22185">
        <ele>1024.1</ele>
        <time>2026-08-23T12:42:42.122Z</time>
      </trkpt>
      <trkpt lat="43.89812" lon="6.22187">
        <ele>1024.3</ele>
        <time>2026-08-23T12:42:47.654Z</time>
      </trkpt>
      <trkpt lat="43.89817" lon="6.22188">
        <ele>1024.7</ele>
        <time>2026-08-23T12:42:53.157Z</time>
      </trkpt>
      <trkpt lat="43.89822" lon="6.22188">
        <ele>1025.5</ele>
        <time>2026-08-23T12:42:58.605Z</time>
      </trkpt>
      <trkpt lat="43.89828" lon="6.22189">
        <ele>1026</ele>
        <time>2026-08-23T12:43:04.671Z</time>
      </trkpt>
      <trkpt lat="43.89833" lon="6.22189">
        <ele>1026.7</ele>
        <time>2026-08-23T12:43:09.691Z</time>
      </trkpt>
      <trkpt lat="43.89838" lon="6.22199">
        <ele>1024.7</ele>
        <time>2026-08-23T12:43:20.625Z</time>
      </trkpt>
      <trkpt lat="43.89835" lon="6.22208">
        <ele>1022.4</ele>
        <time>2026-08-23T12:43:31.633Z</time>
      </trkpt>
      <trkpt lat="43.89829" lon="6.22214">
        <ele>1020.2</ele>
        <time>2026-08-23T12:43:41.668Z</time>
      </trkpt>
      <trkpt lat="43.89822" lon="6.22217">
        <ele>1018.5</ele>
        <time>2026-08-23T12:43:52.594Z</time>
      </trkpt>
      <trkpt lat="43.89818" lon="6.22218">
        <ele>1017.7</ele>
        <time>2026-08-23T12:43:57.528Z</time>
      </trkpt>
      <trkpt lat="43.89813" lon="6.22219">
        <ele>1016.8</ele>
        <time>2026-08-23T12:44:03.661Z</time>
      </trkpt>
      <trkpt lat="43.8981" lon="6.22228">
        <ele>1015.1</ele>
        <time>2026-08-23T12:44:14.632Z</time>
      </trkpt>
      <trkpt lat="43.89806" lon="6.22234">
        <ele>1013.8</ele>
        <time>2026-08-23T12:44:25.575Z</time>
      </trkpt>
      <trkpt lat="43.89805" lon="6.22237">
        <ele>1013.3</ele>
        <time>2026-08-23T12:44:39.653Z</time>
      </trkpt>
      <trkpt lat="43.898" lon="6.22243">
        <ele>1011.9</ele>
        <time>2026-08-23T12:44:50.532Z</time>
      </trkpt>
      <trkpt lat="43.89796" lon="6.22248">
        <ele>1010.8</ele>
        <time>2026-08-23T12:44:55.762Z</time>
      </trkpt>
      <trkpt lat="43.89792" lon="6.22252">
        <ele>1010.2</ele>
        <time>2026-08-23T12:45:00.553Z</time>
      </trkpt>
      <trkpt lat="43.89787" lon="6.22255">
        <ele>1009.5</ele>
        <time>2026-08-23T12:45:05.552Z</time>
      </trkpt>
      <trkpt lat="43.89782" lon="6.22258">
        <ele>1008.7</ele>
        <time>2026-08-23T12:45:10.553Z</time>
      </trkpt>
      <trkpt lat="43.89778" lon="6.2226">
        <ele>1008</ele>
        <time>2026-08-23T12:45:15.059Z</time>
      </trkpt>
      <trkpt lat="43.89773" lon="6.22262">
        <ele>1007</ele>
        <time>2026-08-23T12:45:20.575Z</time>
      </trkpt>
      <trkpt lat="43.89765" lon="6.22266">
        <ele>1005.5</ele>
        <time>2026-08-23T12:45:30.622Z</time>
      </trkpt>
      <trkpt lat="43.89761" lon="6.22272">
        <ele>1004.9</ele>
        <time>2026-08-23T12:45:36.011Z</time>
      </trkpt>
      <trkpt lat="43.89756" lon="6.22277">
        <ele>1004.1</ele>
        <time>2026-08-23T12:45:41.650Z</time>
      </trkpt>
      <trkpt lat="43.89749" lon="6.22284">
        <ele>1003.8</ele>
        <time>2026-08-23T12:45:52.642Z</time>
      </trkpt>
      <trkpt lat="43.89745" lon="6.22287">
        <ele>1003.6</ele>
        <time>2026-08-23T12:45:57.750Z</time>
      </trkpt>
      <trkpt lat="43.8974" lon="6.22289">
        <ele>1003.2</ele>
        <time>2026-08-23T12:46:03.597Z</time>
      </trkpt>
      <trkpt lat="43.89742" lon="6.22297">
        <ele>1004.6</ele>
        <time>2026-08-23T12:46:14.530Z</time>
      </trkpt>
      <trkpt lat="43.89741" lon="6.22301">
        <ele>1005</ele>
        <time>2026-08-23T12:46:29.638Z</time>
      </trkpt>
      <trkpt lat="43.89746" lon="6.2231">
        <ele>1007.2</ele>
        <time>2026-08-23T12:46:39.650Z</time>
      </trkpt>
      <trkpt lat="43.89746" lon="6.22322">
        <ele>1009.5</ele>
        <time>2026-08-23T12:46:50.632Z</time>
      </trkpt>
      <trkpt lat="43.89748" lon="6.22332">
        <ele>1011.5</ele>
        <time>2026-08-23T12:47:00.650Z</time>
      </trkpt>
      <trkpt lat="43.89747" lon="6.22341">
        <ele>1013.1</ele>
        <time>2026-08-23T12:47:11.574Z</time>
      </trkpt>
      <trkpt lat="43.89746" lon="6.22346">
        <ele>1014</ele>
        <time>2026-08-23T12:50:05.574Z</time>
      </trkpt>
      <trkpt lat="43.89741" lon="6.22352">
        <ele>1014.8</ele>
        <time>2026-08-23T12:50:15.574Z</time>
      </trkpt>
      <trkpt lat="43.89737" lon="6.22356">
        <ele>1015.4</ele>
        <time>2026-08-23T12:50:20.573Z</time>
      </trkpt>
      <trkpt lat="43.89733" lon="6.2236">
        <ele>1016.1</ele>
        <time>2026-08-23T12:50:25.574Z</time>
      </trkpt>
      <trkpt lat="43.89728" lon="6.22363">
        <ele>1016.5</ele>
        <time>2026-08-23T12:50:35.574Z</time>
      </trkpt>
      <trkpt lat="43.8972" lon="6.22363">
        <ele>1016.6</ele>
        <time>2026-08-23T12:50:45.601Z</time>
      </trkpt>
      <trkpt lat="43.89715" lon="6.22363">
        <ele>1017.1</ele>
        <time>2026-08-23T12:50:51.059Z</time>
      </trkpt>
      <trkpt lat="43.8971" lon="6.22362">
        <ele>1017.5</ele>
        <time>2026-08-23T12:50:56.574Z</time>
      </trkpt>
      <trkpt lat="43.89706" lon="6.22359">
        <ele>1017.2</ele>
        <time>2026-08-23T12:51:01.590Z</time>
      </trkpt>
      <trkpt lat="43.89702" lon="6.22356">
        <ele>1016.9</ele>
        <time>2026-08-23T12:51:06.608Z</time>
      </trkpt>
      <trkpt lat="43.89698" lon="6.22356">
        <ele>1017.3</ele>
        <time>2026-08-23T12:51:11.453Z</time>
      </trkpt>
      <trkpt lat="43.89693" lon="6.22355">
        <ele>1017.8</ele>
        <time>2026-08-23T12:51:17.574Z</time>
      </trkpt>
      <trkpt lat="43.89686" lon="6.22349">
        <ele>1017.9</ele>
        <time>2026-08-23T12:51:27.614Z</time>
      </trkpt>
      <trkpt lat="43.89681" lon="6.2234">
        <ele>1017</ele>
        <time>2026-08-23T12:51:37.667Z</time>
      </trkpt>
      <trkpt lat="43.89676" lon="6.22335">
        <ele>1017</ele>
        <time>2026-08-23T12:52:01.633Z</time>
      </trkpt>
      <trkpt lat="43.8967" lon="6.22328">
        <ele>1016.8</ele>
        <time>2026-08-23T12:52:11.648Z</time>
      </trkpt>
      <trkpt lat="43.89663" lon="6.22325">
        <ele>1018</ele>
        <time>2026-08-23T12:52:22.579Z</time>
      </trkpt>
      <trkpt lat="43.89657" lon="6.22323">
        <ele>1019.3</ele>
        <time>2026-08-23T12:52:32.649Z</time>
      </trkpt>
      <trkpt lat="43.89654" lon="6.22323">
        <ele>1020.2</ele>
        <time>2026-08-23T12:52:43.588Z</time>
      </trkpt>
      <trkpt lat="43.89648" lon="6.22319">
        <ele>1021.1</ele>
        <time>2026-08-23T12:52:53.642Z</time>
      </trkpt>
      <trkpt lat="43.89642" lon="6.22314">
        <ele>1021.9</ele>
        <time>2026-08-23T12:53:04.596Z</time>
      </trkpt>
      <trkpt lat="43.89636" lon="6.22311">
        <ele>1023.1</ele>
        <time>2026-08-23T12:53:14.653Z</time>
      </trkpt>
      <trkpt lat="43.89629" lon="6.22309">
        <ele>1024.9</ele>
        <time>2026-08-23T12:53:25.601Z</time>
      </trkpt>
      <trkpt lat="43.89624" lon="6.22305">
        <ele>1025.7</ele>
        <time>2026-08-23T12:53:36.574Z</time>
      </trkpt>
      <trkpt lat="43.89618" lon="6.223">
        <ele>1026.8</ele>
        <time>2026-08-23T12:53:46.606Z</time>
      </trkpt>
      <trkpt lat="43.89611" lon="6.22297">
        <ele>1028.5</ele>
        <time>2026-08-23T12:53:56.661Z</time>
      </trkpt>
      <trkpt lat="43.89605" lon="6.22293">
        <ele>1029.5</ele>
        <time>2026-08-23T12:54:07.607Z</time>
      </trkpt>
      <trkpt lat="43.89601" lon="6.2229">
        <ele>1030.1</ele>
        <time>2026-08-23T12:54:17.657Z</time>
      </trkpt>
      <trkpt lat="43.89594" lon="6.22286">
        <ele>1031.4</ele>
        <time>2026-08-23T12:55:01.573Z</time>
      </trkpt>
      <trkpt lat="43.89588" lon="6.22284">
        <ele>1032.8</ele>
        <time>2026-08-23T12:55:11.573Z</time>
      </trkpt>
      <trkpt lat="43.8958" lon="6.22281">
        <ele>1034.3</ele>
        <time>2026-08-23T12:55:21.573Z</time>
      </trkpt>
      <trkpt lat="43.89575" lon="6.22279">
        <ele>1035</ele>
        <time>2026-08-23T12:55:31.573Z</time>
      </trkpt>
      <trkpt lat="43.89571" lon="6.22277">
        <ele>1035.6</ele>
        <time>2026-08-23T12:55:36.069Z</time>
      </trkpt>
      <trkpt lat="43.89566" lon="6.22275">
        <ele>1036.3</ele>
        <time>2026-08-23T12:55:41.573Z</time>
      </trkpt>
      <trkpt lat="43.89559" lon="6.22271">
        <ele>1037.3</ele>
        <time>2026-08-23T12:55:51.625Z</time>
      </trkpt>
      <trkpt lat="43.89555" lon="6.22269">
        <ele>1037.8</ele>
        <time>2026-08-23T12:55:56.424Z</time>
      </trkpt>
      <trkpt lat="43.8955" lon="6.22266">
        <ele>1037.9</ele>
        <time>2026-08-23T12:56:02.573Z</time>
      </trkpt>
      <trkpt lat="43.89543" lon="6.22264">
        <ele>1038.4</ele>
        <time>2026-08-23T12:56:12.628Z</time>
      </trkpt>
      <trkpt lat="43.89537" lon="6.22263">
        <ele>1038.9</ele>
        <time>2026-08-23T12:56:18.043Z</time>
      </trkpt>
      <trkpt lat="43.89531" lon="6.22261">
        <ele>1039.2</ele>
        <time>2026-08-23T12:56:23.573Z</time>
      </trkpt>
      <trkpt lat="43.89525" lon="6.2226">
        <ele>1039.6</ele>
        <time>2026-08-23T12:56:33.625Z</time>
      </trkpt>
      <trkpt lat="43.89518" lon="6.22258">
        <ele>1039.9</ele>
        <time>2026-08-23T12:56:44.573Z</time>
      </trkpt>
      <trkpt lat="43.89511" lon="6.22254">
        <ele>1039.8</ele>
        <time>2026-08-23T12:56:55.627Z</time>
      </trkpt>
      <trkpt lat="43.89506" lon="6.22249">
        <ele>1039.5</ele>
        <time>2026-08-23T12:57:06.577Z</time>
      </trkpt>
      <trkpt lat="43.89499" lon="6.22244">
        <ele>1039.6</ele>
        <time>2026-08-23T12:57:16.637Z</time>
      </trkpt>
      <trkpt lat="43.89494" lon="6.22242">
        <ele>1039.9</ele>
        <time>2026-08-23T12:57:22.113Z</time>
      </trkpt>
      <trkpt lat="43.89489" lon="6.2224">
        <ele>1040.1</ele>
        <time>2026-08-23T12:57:27.590Z</time>
      </trkpt>
      <trkpt lat="43.89484" lon="6.22237">
        <ele>1040.2</ele>
        <time>2026-08-23T12:57:37.613Z</time>
      </trkpt>
      <trkpt lat="43.89481" lon="6.22236">
        <ele>1040.4</ele>
        <time>2026-08-23T12:58:36.609Z</time>
      </trkpt>
      <trkpt lat="43.89476" lon="6.22237">
        <ele>1040.8</ele>
        <time>2026-08-23T12:58:42.119Z</time>
      </trkpt>
      <trkpt lat="43.89471" lon="6.22237">
        <ele>1041.1</ele>
        <time>2026-08-23T12:58:47.573Z</time>
      </trkpt>
      <trkpt lat="43.89464" lon="6.22242">
        <ele>1041.7</ele>
        <time>2026-08-23T12:58:57.620Z</time>
      </trkpt>
      <trkpt lat="43.89457" lon="6.22247">
        <ele>1042.3</ele>
        <time>2026-08-23T12:59:08.573Z</time>
      </trkpt>
      <trkpt lat="43.89452" lon="6.2225">
        <ele>1042.7</ele>
        <time>2026-08-23T12:59:13.601Z</time>
      </trkpt>
      <trkpt lat="43.89447" lon="6.22253">
        <ele>1043.2</ele>
        <time>2026-08-23T12:59:18.630Z</time>
      </trkpt>
      <trkpt lat="43.89439" lon="6.22254">
        <ele>1043.2</ele>
        <time>2026-08-23T12:59:29.647Z</time>
      </trkpt>
      <trkpt lat="43.89434" lon="6.22256">
        <ele>1043.2</ele>
        <time>2026-08-23T12:59:34.643Z</time>
      </trkpt>
      <trkpt lat="43.89428" lon="6.22258">
        <ele>1043.1</ele>
        <time>2026-08-23T12:59:40.569Z</time>
      </trkpt>
      <trkpt lat="43.89424" lon="6.2226">
        <ele>1043.1</ele>
        <time>2026-08-23T12:59:45.148Z</time>
      </trkpt>
      <trkpt lat="43.89419" lon="6.22261">
        <ele>1042.9</ele>
        <time>2026-08-23T12:59:50.589Z</time>
      </trkpt>
      <trkpt lat="43.89415" lon="6.22265">
        <ele>1042.9</ele>
        <time>2026-08-23T12:59:55.358Z</time>
      </trkpt>
      <trkpt lat="43.8941" lon="6.22268">
        <ele>1042.6</ele>
        <time>2026-08-23T13:00:00.629Z</time>
      </trkpt>
      <trkpt lat="43.89405" lon="6.22272">
        <ele>1042.3</ele>
        <time>2026-08-23T13:00:06.101Z</time>
      </trkpt>
      <trkpt lat="43.894" lon="6.22276">
        <ele>1042.1</ele>
        <time>2026-08-23T13:00:11.575Z</time>
      </trkpt>
      <trkpt lat="43.89394" lon="6.22285">
        <ele>1041.9</ele>
        <time>2026-08-23T13:00:21.628Z</time>
      </trkpt>
      <trkpt lat="43.89388" lon="6.22293">
        <ele>1041.4</ele>
        <time>2026-08-23T13:00:32.574Z</time>
      </trkpt>
      <trkpt lat="43.89384" lon="6.22296">
        <ele>1040.9</ele>
        <time>2026-08-23T13:00:37.147Z</time>
      </trkpt>
      <trkpt lat="43.89379" lon="6.22299">
        <ele>1040.2</ele>
        <time>2026-08-23T13:00:42.627Z</time>
      </trkpt>
      <trkpt lat="43.89372" lon="6.22302">
        <ele>1039</ele>
        <time>2026-08-23T13:02:24.572Z</time>
      </trkpt>
      <trkpt lat="43.89365" lon="6.22303">
        <ele>1037.8</ele>
        <time>2026-08-23T13:02:34.616Z</time>
      </trkpt>
      <trkpt lat="43.89362" lon="6.22301">
        <ele>1037.3</ele>
        <time>2026-08-23T13:02:57.572Z</time>
      </trkpt>
      <trkpt lat="43.89357" lon="6.22297">
        <ele>1037.5</ele>
        <time>2026-08-23T13:03:02.091Z</time>
      </trkpt>
      <trkpt lat="43.89351" lon="6.22292">
        <ele>1038</ele>
        <time>2026-08-23T13:03:07.572Z</time>
      </trkpt>
      <trkpt lat="43.89346" lon="6.22291">
        <ele>1038.4</ele>
        <time>2026-08-23T13:03:12.585Z</time>
      </trkpt>
      <trkpt lat="43.89341" lon="6.2229">
        <ele>1038.7</ele>
        <time>2026-08-23T13:03:17.599Z</time>
      </trkpt>
      <trkpt lat="43.89336" lon="6.2229">
        <ele>1039</ele>
        <time>2026-08-23T13:03:23.057Z</time>
      </trkpt>
      <trkpt lat="43.89331" lon="6.22289">
        <ele>1039.5</ele>
        <time>2026-08-23T13:03:28.572Z</time>
      </trkpt>
      <trkpt lat="43.89323" lon="6.22291">
        <ele>1040.3</ele>
        <time>2026-08-23T13:03:39.572Z</time>
      </trkpt>
      <trkpt lat="43.8932" lon="6.22296">
        <ele>1040.4</ele>
        <time>2026-08-23T13:03:44.237Z</time>
      </trkpt>
      <trkpt lat="43.89316" lon="6.22301">
        <ele>1040.7</ele>
        <time>2026-08-23T13:03:49.594Z</time>
      </trkpt>
      <trkpt lat="43.89309" lon="6.22306">
        <ele>1041.4</ele>
        <time>2026-08-23T13:04:00.569Z</time>
      </trkpt>
      <trkpt lat="43.89305" lon="6.2231">
        <ele>1041.4</ele>
        <time>2026-08-23T13:04:05.786Z</time>
      </trkpt>
      <trkpt lat="43.89301" lon="6.22313">
        <ele>1041.5</ele>
        <time>2026-08-23T13:04:10.599Z</time>
      </trkpt>
      <trkpt lat="43.89295" lon="6.22315">
        <ele>1042</ele>
        <time>2026-08-23T13:04:20.658Z</time>
      </trkpt>
      <trkpt lat="43.8929" lon="6.22317">
        <ele>1042.5</ele>
        <time>2026-08-23T13:04:26.176Z</time>
      </trkpt>
      <trkpt lat="43.89285" lon="6.22318">
        <ele>1043.1</ele>
        <time>2026-08-23T13:04:31.533Z</time>
      </trkpt>
      <trkpt lat="43.89278" lon="6.22319">
        <ele>1044</ele>
        <time>2026-08-23T13:04:41.572Z</time>
      </trkpt>
      <trkpt lat="43.89274" lon="6.22321">
        <ele>1044.1</ele>
        <time>2026-08-23T13:04:46.159Z</time>
      </trkpt>
      <trkpt lat="43.89269" lon="6.22322">
        <ele>1044.3</ele>
        <time>2026-08-23T13:04:51.610Z</time>
      </trkpt>
      <trkpt lat="43.89261" lon="6.22324">
        <ele>1044.7</ele>
        <time>2026-08-23T13:05:01.667Z</time>
      </trkpt>
      <trkpt lat="43.89255" lon="6.22325">
        <ele>1045</ele>
        <time>2026-08-23T13:05:07.144Z</time>
      </trkpt>
      <trkpt lat="43.89249" lon="6.22326">
        <ele>1045.3</ele>
        <time>2026-08-23T13:05:12.621Z</time>
      </trkpt>
      <trkpt lat="43.89243" lon="6.22329">
        <ele>1045.7</ele>
        <time>2026-08-23T13:05:18.097Z</time>
      </trkpt>
      <trkpt lat="43.89237" lon="6.22332">
        <ele>1046</ele>
        <time>2026-08-23T13:05:23.574Z</time>
      </trkpt>
      <trkpt lat="43.89232" lon="6.22335">
        <ele>1046.1</ele>
        <time>2026-08-23T13:05:28.718Z</time>
      </trkpt>
      <trkpt lat="43.89227" lon="6.22337">
        <ele>1046.3</ele>
        <time>2026-08-23T13:05:33.632Z</time>
      </trkpt>
      <trkpt lat="43.89222" lon="6.2234">
        <ele>1046.5</ele>
        <time>2026-08-23T13:05:39.234Z</time>
      </trkpt>
      <trkpt lat="43.89217" lon="6.22342">
        <ele>1046.8</ele>
        <time>2026-08-23T13:05:44.586Z</time>
      </trkpt>
      <trkpt lat="43.89212" lon="6.22345">
        <ele>1046.9</ele>
        <time>2026-08-23T13:05:49.731Z</time>
      </trkpt>
      <trkpt lat="43.89207" lon="6.22347">
        <ele>1047.1</ele>
        <time>2026-08-23T13:05:54.646Z</time>
      </trkpt>
      <trkpt lat="43.89202" lon="6.22349">
        <ele>1047.3</ele>
        <time>2026-08-23T13:05:59.649Z</time>
      </trkpt>
      <trkpt lat="43.89197" lon="6.22351">
        <ele>1047.5</ele>
        <time>2026-08-23T13:06:04.653Z</time>
      </trkpt>
      <trkpt lat="43.89191" lon="6.22354">
        <ele>1047.9</ele>
        <time>2026-08-23T13:06:10.203Z</time>
      </trkpt>
      <trkpt lat="43.89185" lon="6.22356">
        <ele>1048.3</ele>
        <time>2026-08-23T13:06:15.573Z</time>
      </trkpt>
      <trkpt lat="43.8918" lon="6.22358">
        <ele>1048.7</ele>
        <time>2026-08-23T13:06:20.214Z</time>
      </trkpt>
      <trkpt lat="43.89174" lon="6.22359">
        <ele>1049.3</ele>
        <time>2026-08-23T13:06:25.604Z</time>
      </trkpt>
      <trkpt lat="43.89169" lon="6.22362">
        <ele>1049.7</ele>
        <time>2026-08-23T13:06:30.235Z</time>
      </trkpt>
      <trkpt lat="43.89163" lon="6.22365">
        <ele>1050</ele>
        <time>2026-08-23T13:06:35.658Z</time>
      </trkpt>
      <trkpt lat="43.89158" lon="6.22366">
        <ele>1050.3</ele>
        <time>2026-08-23T13:06:40.218Z</time>
      </trkpt>
      <trkpt lat="43.89152" lon="6.22367">
        <ele>1050.6</ele>
        <time>2026-08-23T13:06:45.673Z</time>
      </trkpt>
      <trkpt lat="43.89147" lon="6.22367">
        <ele>1051</ele>
        <time>2026-08-23T13:06:50.626Z</time>
      </trkpt>
      <trkpt lat="43.89141" lon="6.22367">
        <ele>1051.4</ele>
        <time>2026-08-23T13:06:56.571Z</time>
      </trkpt>
      <trkpt lat="43.89136" lon="6.22369">
        <ele>1051.6</ele>
        <time>2026-08-23T13:07:01.579Z</time>
      </trkpt>
      <trkpt lat="43.89131" lon="6.22371">
        <ele>1051.9</ele>
        <time>2026-08-23T13:07:06.589Z</time>
      </trkpt>
      <trkpt lat="43.89126" lon="6.22375">
        <ele>1051.9</ele>
        <time>2026-08-23T13:07:12.276Z</time>
      </trkpt>
      <trkpt lat="43.89121" lon="6.22378">
        <ele>1052.1</ele>
        <time>2026-08-23T13:07:17.644Z</time>
      </trkpt>
      <trkpt lat="43.89115" lon="6.22381">
        <ele>1052.3</ele>
        <time>2026-08-23T13:07:23.236Z</time>
      </trkpt>
      <trkpt lat="43.89109" lon="6.22383">
        <ele>1052.4</ele>
        <time>2026-08-23T13:07:28.648Z</time>
      </trkpt>
      <trkpt lat="43.89103" lon="6.22385">
        <ele>1052.3</ele>
        <time>2026-08-23T13:07:33.712Z</time>
      </trkpt>
      <trkpt lat="43.89097" lon="6.22386">
        <ele>1052.2</ele>
        <time>2026-08-23T13:07:38.672Z</time>
      </trkpt>
      <trkpt lat="43.89092" lon="6.22388">
        <ele>1052.1</ele>
        <time>2026-08-23T13:07:44.121Z</time>
      </trkpt>
      <trkpt lat="43.89087" lon="6.2239">
        <ele>1051.8</ele>
        <time>2026-08-23T13:07:49.572Z</time>
      </trkpt>
      <trkpt lat="43.89081" lon="6.2239">
        <ele>1051.8</ele>
        <time>2026-08-23T13:07:54.609Z</time>
      </trkpt>
      <trkpt lat="43.89075" lon="6.2239">
        <ele>1051.5</ele>
        <time>2026-08-23T13:07:59.647Z</time>
      </trkpt>
      <trkpt lat="43.89069" lon="6.2239">
        <ele>1051.3</ele>
        <time>2026-08-23T13:08:04.717Z</time>
      </trkpt>
      <trkpt lat="43.89062" lon="6.2239">
        <ele>1051.1</ele>
        <time>2026-08-23T13:08:10.634Z</time>
      </trkpt>
      <trkpt lat="43.89057" lon="6.2239">
        <ele>1050.9</ele>
        <time>2026-08-23T13:08:15.616Z</time>
      </trkpt>
      <trkpt lat="43.89052" lon="6.22389">
        <ele>1050.7</ele>
        <time>2026-08-23T13:08:20.651Z</time>
      </trkpt>
      <trkpt lat="43.89047" lon="6.22389">
        <ele>1050.4</ele>
        <time>2026-08-23T13:08:25.660Z</time>
      </trkpt>
      <trkpt lat="43.89042" lon="6.22389">
        <ele>1050</ele>
        <time>2026-08-23T13:08:30.669Z</time>
      </trkpt>
      <trkpt lat="43.89037" lon="6.22387">
        <ele>1049.9</ele>
        <time>2026-08-23T13:08:35.567Z</time>
      </trkpt>
      <trkpt lat="43.89031" lon="6.22384">
        <ele>1049.9</ele>
        <time>2026-08-23T13:08:41.571Z</time>
      </trkpt>
      <trkpt lat="43.89026" lon="6.22382">
        <ele>1049.8</ele>
        <time>2026-08-23T13:08:46.584Z</time>
      </trkpt>
      <trkpt lat="43.89021" lon="6.2238">
        <ele>1049.6</ele>
        <time>2026-08-23T13:08:51.598Z</time>
      </trkpt>
      <trkpt lat="43.89016" lon="6.22379">
        <ele>1049.3</ele>
        <time>2026-08-23T13:08:56.964Z</time>
      </trkpt>
      <trkpt lat="43.89011" lon="6.22377">
        <ele>1049.2</ele>
        <time>2026-08-23T13:09:02.493Z</time>
      </trkpt>
      <trkpt lat="43.89007" lon="6.22374">
        <ele>1049.3</ele>
        <time>2026-08-23T13:09:07.340Z</time>
      </trkpt>
      <trkpt lat="43.89003" lon="6.2237">
        <ele>1049.7</ele>
        <time>2026-08-23T13:09:12.598Z</time>
      </trkpt>
      <trkpt lat="43.88998" lon="6.22368">
        <ele>1049.6</ele>
        <time>2026-08-23T13:09:17.958Z</time>
      </trkpt>
      <trkpt lat="43.88993" lon="6.22365">
        <ele>1049.6</ele>
        <time>2026-08-23T13:09:23.571Z</time>
      </trkpt>
      <trkpt lat="43.88989" lon="6.22363">
        <ele>1049.5</ele>
        <time>2026-08-23T13:09:27.968Z</time>
      </trkpt>
      <trkpt lat="43.88984" lon="6.2236">
        <ele>1049.4</ele>
        <time>2026-08-23T13:09:33.603Z</time>
      </trkpt>
      <trkpt lat="43.8898" lon="6.22357">
        <ele>1049.4</ele>
        <time>2026-08-23T13:09:38.432Z</time>
      </trkpt>
      <trkpt lat="43.88976" lon="6.22353">
        <ele>1049.6</ele>
        <time>2026-08-23T13:09:43.669Z</time>
      </trkpt>
      <trkpt lat="43.88971" lon="6.2235">
        <ele>1049.5</ele>
        <time>2026-08-23T13:09:48.707Z</time>
      </trkpt>
      <trkpt lat="43.88965" lon="6.22347">
        <ele>1049.2</ele>
        <time>2026-08-23T13:09:54.606Z</time>
      </trkpt>
      <trkpt lat="43.88959" lon="6.22345">
        <ele>1048.8</ele>
        <time>2026-08-23T13:09:59.646Z</time>
      </trkpt>
      <trkpt lat="43.88952" lon="6.22342">
        <ele>1048.3</ele>
        <time>2026-08-23T13:10:05.632Z</time>
      </trkpt>
      <trkpt lat="43.88947" lon="6.22339">
        <ele>1047.9</ele>
        <time>2026-08-23T13:10:10.574Z</time>
      </trkpt>
      <trkpt lat="43.88941" lon="6.22335">
        <ele>1047.1</ele>
        <time>2026-08-23T13:10:16.615Z</time>
      </trkpt>
      <trkpt lat="43.88936" lon="6.22331">
        <ele>1046.2</ele>
        <time>2026-08-23T13:10:22.093Z</time>
      </trkpt>
      <trkpt lat="43.88931" lon="6.22327">
        <ele>1045.1</ele>
        <time>2026-08-23T13:10:27.572Z</time>
      </trkpt>
      <trkpt lat="43.88929" lon="6.22322">
        <ele>1044.6</ele>
        <time>2026-08-23T13:10:37.616Z</time>
      </trkpt>
      <trkpt lat="43.88925" lon="6.22314">
        <ele>1043.5</ele>
        <time>2026-08-23T13:10:43.093Z</time>
      </trkpt>
      <trkpt lat="43.88921" lon="6.22306">
        <ele>1042.3</ele>
        <time>2026-08-23T13:10:48.571Z</time>
      </trkpt>
      <trkpt lat="43.88919" lon="6.22299">
        <ele>1041.7</ele>
        <time>2026-08-23T13:10:53.394Z</time>
      </trkpt>
      <trkpt lat="43.88916" lon="6.22292">
        <ele>1040.7</ele>
        <time>2026-08-23T13:10:58.612Z</time>
      </trkpt>
      <trkpt lat="43.88915" lon="6.22284">
        <ele>1040.3</ele>
        <time>2026-08-23T13:11:03.425Z</time>
      </trkpt>
      <trkpt lat="43.88913" lon="6.22275">
        <ele>1039.6</ele>
        <time>2026-08-23T13:11:09.009Z</time>
      </trkpt>
      <trkpt lat="43.88914" lon="6.22268">
        <ele>1040</ele>
        <time>2026-08-23T13:11:13.977Z</time>
      </trkpt>
      <trkpt lat="43.88914" lon="6.2226">
        <ele>1040</ele>
        <time>2026-08-23T13:11:19.547Z</time>
      </trkpt>
      <trkpt lat="43.88914" lon="6.22253">
        <ele>1040</ele>
        <time>2026-08-23T13:11:25.059Z</time>
      </trkpt>
      <trkpt lat="43.88914" lon="6.22246">
        <ele>1039.9</ele>
        <time>2026-08-23T13:11:30.571Z</time>
      </trkpt>
      <trkpt lat="43.88915" lon="6.22234">
        <ele>1039.9</ele>
        <time>2026-08-23T13:11:40.607Z</time>
      </trkpt>
      <trkpt lat="43.88917" lon="6.22222">
        <ele>1040.1</ele>
        <time>2026-08-23T13:11:50.608Z</time>
      </trkpt>
      <trkpt lat="43.88917" lon="6.22215">
        <ele>1039.6</ele>
        <time>2026-08-23T13:11:55.698Z</time>
      </trkpt>
      <trkpt lat="43.88916" lon="6.22207">
        <ele>1038.7</ele>
        <time>2026-08-23T13:12:01.604Z</time>
      </trkpt>
      <trkpt lat="43.88916" lon="6.222">
        <ele>1038.2</ele>
        <time>2026-08-23T13:12:06.631Z</time>
      </trkpt>
      <trkpt lat="43.88916" lon="6.22193">
        <ele>1037.7</ele>
        <time>2026-08-23T13:12:11.658Z</time>
      </trkpt>
      <trkpt lat="43.88917" lon="6.22185">
        <ele>1037.4</ele>
        <time>2026-08-23T13:12:17.174Z</time>
      </trkpt>
      <trkpt lat="43.88917" lon="6.22177">
        <ele>1036.8</ele>
        <time>2026-08-23T13:12:22.610Z</time>
      </trkpt>
      <trkpt lat="43.88914" lon="6.22172">
        <ele>1035.9</ele>
        <time>2026-08-23T13:12:27.774Z</time>
      </trkpt>
      <trkpt lat="43.88911" lon="6.22166">
        <ele>1035.1</ele>
        <time>2026-08-23T13:12:33.571Z</time>
      </trkpt>
      <trkpt lat="43.88907" lon="6.22161">
        <ele>1034.1</ele>
        <time>2026-08-23T13:12:38.086Z</time>
      </trkpt>
      <trkpt lat="43.88902" lon="6.22155">
        <ele>1033.1</ele>
        <time>2026-08-23T13:12:43.631Z</time>
      </trkpt>
      <trkpt lat="43.88898" lon="6.22151">
        <ele>1032.4</ele>
        <time>2026-08-23T13:12:48.671Z</time>
      </trkpt>
      <trkpt lat="43.88893" lon="6.22147">
        <ele>1031.7</ele>
        <time>2026-08-23T13:12:54.571Z</time>
      </trkpt>
      <trkpt lat="43.8889" lon="6.22142">
        <ele>1031.2</ele>
        <time>2026-08-23T13:12:59.245Z</time>
      </trkpt>
      <trkpt lat="43.88886" lon="6.22137">
        <ele>1030.5</ele>
        <time>2026-08-23T13:13:04.613Z</time>
      </trkpt>
      <trkpt lat="43.88882" lon="6.22132">
        <ele>1029.7</ele>
        <time>2026-08-23T13:13:09.531Z</time>
      </trkpt>
      <trkpt lat="43.88877" lon="6.22126">
        <ele>1028.9</ele>
        <time>2026-08-23T13:13:15.570Z</time>
      </trkpt>
      <trkpt lat="43.88873" lon="6.22123">
        <ele>1028.5</ele>
        <time>2026-08-23T13:13:19.997Z</time>
      </trkpt>
      <trkpt lat="43.88868" lon="6.22119">
        <ele>1028.2</ele>
        <time>2026-08-23T13:13:25.617Z</time>
      </trkpt>
      <trkpt lat="43.88863" lon="6.22115">
        <ele>1028</ele>
        <time>2026-08-23T13:13:30.913Z</time>
      </trkpt>
      <trkpt lat="43.88858" lon="6.2211">
        <ele>1027.9</ele>
        <time>2026-08-23T13:13:36.570Z</time>
      </trkpt>
      <trkpt lat="43.88853" lon="6.22107">
        <ele>1027.6</ele>
        <time>2026-08-23T13:13:41.451Z</time>
      </trkpt>
      <trkpt lat="43.88848" lon="6.22103">
        <ele>1027.4</ele>
        <time>2026-08-23T13:13:46.623Z</time>
      </trkpt>
      <trkpt lat="43.88843" lon="6.22099">
        <ele>1027.3</ele>
        <time>2026-08-23T13:13:51.723Z</time>
      </trkpt>
      <trkpt lat="43.88837" lon="6.22095">
        <ele>1027.3</ele>
        <time>2026-08-23T13:13:57.606Z</time>
      </trkpt>
      <trkpt lat="43.88833" lon="6.22091">
        <ele>1027.3</ele>
        <time>2026-08-23T13:14:02.396Z</time>
      </trkpt>
      <trkpt lat="43.88829" lon="6.22086">
        <ele>1027.4</ele>
        <time>2026-08-23T13:14:07.627Z</time>
      </trkpt>
      <trkpt lat="43.88825" lon="6.22081">
        <ele>1027.4</ele>
        <time>2026-08-23T13:14:12.733Z</time>
      </trkpt>
      <trkpt lat="43.8882" lon="6.22076">
        <ele>1027.4</ele>
        <time>2026-08-23T13:14:18.580Z</time>
      </trkpt>
      <trkpt lat="43.88816" lon="6.22071">
        <ele>1027.4</ele>
        <time>2026-08-23T13:14:23.267Z</time>
      </trkpt>
      <trkpt lat="43.88811" lon="6.22066">
        <ele>1027.4</ele>
        <time>2026-08-23T13:14:28.634Z</time>
      </trkpt>
      <trkpt lat="43.88807" lon="6.22062">
        <ele>1027.4</ele>
        <time>2026-08-23T13:14:34.140Z</time>
      </trkpt>
      <trkpt lat="43.88803" lon="6.22058">
        <ele>1027</ele>
        <time>2026-08-23T13:14:39.648Z</time>
      </trkpt>
      <trkpt lat="43.888" lon="6.22054">
        <ele>1026.5</ele>
        <time>2026-08-23T13:14:44.683Z</time>
      </trkpt>
      <trkpt lat="43.88796" lon="6.2205">
        <ele>1025.8</ele>
        <time>2026-08-23T13:14:50.651Z</time>
      </trkpt>
      <trkpt lat="43.88792" lon="6.22046">
        <ele>1025.2</ele>
        <time>2026-08-23T13:14:55.885Z</time>
      </trkpt>
      <trkpt lat="43.88788" lon="6.22041">
        <ele>1024.4</ele>
        <time>2026-08-23T13:15:01.602Z</time>
      </trkpt>
      <trkpt lat="43.88781" lon="6.22034">
        <ele>1023</ele>
        <time>2026-08-23T13:15:12.570Z</time>
      </trkpt>
      <trkpt lat="43.88775" lon="6.2203">
        <ele>1021.7</ele>
        <time>2026-08-23T13:15:22.592Z</time>
      </trkpt>
      <trkpt lat="43.88768" lon="6.22025">
        <ele>1020.1</ele>
        <time>2026-08-23T13:15:33.570Z</time>
      </trkpt>
      <trkpt lat="43.8877" lon="6.22023">
        <ele>1020.3</ele>
        <time>2026-08-23T13:16:03.529Z</time>
      </trkpt>
      <trkpt lat="43.88771" lon="6.22011">
        <ele>1019.7</ele>
        <time>2026-08-23T13:16:13.571Z</time>
      </trkpt>
      <trkpt lat="43.88769" lon="6.22005">
        <ele>1019.3</ele>
        <time>2026-08-23T13:16:18.602Z</time>
      </trkpt>
      <trkpt lat="43.88767" lon="6.21999">
        <ele>1019</ele>
        <time>2026-08-23T13:16:23.634Z</time>
      </trkpt>
      <trkpt lat="43.88765" lon="6.21992">
        <ele>1019</ele>
        <time>2026-08-23T13:16:28.878Z</time>
      </trkpt>
      <trkpt lat="43.88762" lon="6.21985">
        <ele>1019.1</ele>
        <time>2026-08-23T13:16:34.551Z</time>
      </trkpt>
      <trkpt lat="43.88762" lon="6.21979">
        <ele>1019.1</ele>
        <time>2026-08-23T13:16:44.637Z</time>
      </trkpt>
      <trkpt lat="43.88761" lon="6.21972">
        <ele>1019.2</ele>
        <time>2026-08-23T13:16:49.976Z</time>
      </trkpt>
      <trkpt lat="43.88759" lon="6.21965">
        <ele>1019.6</ele>
        <time>2026-08-23T13:16:55.611Z</time>
      </trkpt>
      <trkpt lat="43.88756" lon="6.21959">
        <ele>1020</ele>
        <time>2026-08-23T13:17:01.090Z</time>
      </trkpt>
      <trkpt lat="43.88753" lon="6.21953">
        <ele>1020.5</ele>
        <time>2026-08-23T13:17:06.570Z</time>
      </trkpt>
      <trkpt lat="43.88754" lon="6.21947">
        <ele>1020.6</ele>
        <time>2026-08-23T13:17:11.266Z</time>
      </trkpt>
      <trkpt lat="43.88754" lon="6.2194">
        <ele>1020.7</ele>
        <time>2026-08-23T13:17:16.604Z</time>
      </trkpt>
      <trkpt lat="43.88756" lon="6.21933">
        <ele>1020.7</ele>
        <time>2026-08-23T13:17:22.234Z</time>
      </trkpt>
      <trkpt lat="43.88757" lon="6.21926">
        <ele>1020.7</ele>
        <time>2026-08-23T13:17:27.570Z</time>
      </trkpt>
      <trkpt lat="43.88756" lon="6.21914">
        <ele>1020.8</ele>
        <time>2026-08-23T13:17:37.620Z</time>
      </trkpt>
      <trkpt lat="43.88755" lon="6.21908">
        <ele>1021</ele>
        <time>2026-08-23T13:17:42.547Z</time>
      </trkpt>
      <trkpt lat="43.88753" lon="6.21901">
        <ele>1021.3</ele>
        <time>2026-08-23T13:17:48.572Z</time>
      </trkpt>
      <trkpt lat="43.88749" lon="6.21897">
        <ele>1021.6</ele>
        <time>2026-08-23T13:17:58.638Z</time>
      </trkpt>
      <trkpt lat="43.8875" lon="6.21898">
        <ele>1021.7</ele>
        <time>2026-08-23T13:19:38.621Z</time>
      </trkpt>
      <trkpt lat="43.88747" lon="6.21894">
        <ele>1021.6</ele>
        <time>2026-08-23T13:21:14.600Z</time>
      </trkpt>
      <trkpt lat="43.88743" lon="6.2189">
        <ele>1021.5</ele>
        <time>2026-08-23T13:21:19.407Z</time>
      </trkpt>
      <trkpt lat="43.88739" lon="6.21885">
        <ele>1020.8</ele>
        <time>2026-08-23T13:21:24.657Z</time>
      </trkpt>
      <trkpt lat="43.88734" lon="6.21884">
        <ele>1020.3</ele>
        <time>2026-08-23T13:21:30.050Z</time>
      </trkpt>
      <trkpt lat="43.88729" lon="6.21882">
        <ele>1019.9</ele>
        <time>2026-08-23T13:21:35.606Z</time>
      </trkpt>
      <trkpt lat="43.88726" lon="6.21877">
        <ele>1019.3</ele>
        <time>2026-08-23T13:21:40.709Z</time>
      </trkpt>
      <trkpt lat="43.88722" lon="6.21872">
        <ele>1018.8</ele>
        <time>2026-08-23T13:21:46.569Z</time>
      </trkpt>
      <trkpt lat="43.88718" lon="6.21869">
        <ele>1018.3</ele>
        <time>2026-08-23T13:21:51.569Z</time>
      </trkpt>
      <trkpt lat="43.88714" lon="6.21866">
        <ele>1017.9</ele>
        <time>2026-08-23T13:21:56.570Z</time>
      </trkpt>
      <trkpt lat="43.8871" lon="6.21863">
        <ele>1017.6</ele>
        <time>2026-08-23T13:22:01.554Z</time>
      </trkpt>
      <trkpt lat="43.88705" lon="6.2186">
        <ele>1017.2</ele>
        <time>2026-08-23T13:22:07.527Z</time>
      </trkpt>
      <trkpt lat="43.887" lon="6.21858">
        <ele>1016.7</ele>
        <time>2026-08-23T13:22:12.129Z</time>
      </trkpt>
      <trkpt lat="43.88694" lon="6.21856">
        <ele>1016.2</ele>
        <time>2026-08-23T13:22:17.588Z</time>
      </trkpt>
      <trkpt lat="43.88689" lon="6.21854">
        <ele>1015.8</ele>
        <time>2026-08-23T13:22:23.078Z</time>
      </trkpt>
      <trkpt lat="43.88684" lon="6.21852">
        <ele>1015.4</ele>
        <time>2026-08-23T13:22:28.569Z</time>
      </trkpt>
      <trkpt lat="43.8868" lon="6.21849">
        <ele>1015.1</ele>
        <time>2026-08-23T13:22:33.596Z</time>
      </trkpt>
      <trkpt lat="43.88676" lon="6.21846">
        <ele>1014.9</ele>
        <time>2026-08-23T13:22:38.625Z</time>
      </trkpt>
      <trkpt lat="43.88671" lon="6.21843">
        <ele>1014.9</ele>
        <time>2026-08-23T13:22:43.552Z</time>
      </trkpt>
      <trkpt lat="43.88665" lon="6.21839">
        <ele>1014.9</ele>
        <time>2026-08-23T13:22:49.574Z</time>
      </trkpt>
      <trkpt lat="43.88661" lon="6.21835">
        <ele>1014.6</ele>
        <time>2026-08-23T13:22:54.784Z</time>
      </trkpt>
      <trkpt lat="43.88657" lon="6.2183">
        <ele>1014.2</ele>
        <time>2026-08-23T13:23:00.473Z</time>
      </trkpt>
      <trkpt lat="43.88653" lon="6.21822">
        <ele>1014</ele>
        <time>2026-08-23T13:23:10.583Z</time>
      </trkpt>
      <trkpt lat="43.88651" lon="6.21817">
        <ele>1014</ele>
        <time>2026-08-23T13:23:14.993Z</time>
      </trkpt>
      <trkpt lat="43.88648" lon="6.21811">
        <ele>1014.2</ele>
        <time>2026-08-23T13:23:20.626Z</time>
      </trkpt>
      <trkpt lat="43.88647" lon="6.21805">
        <ele>1014.4</ele>
        <time>2026-08-23T13:23:25.913Z</time>
      </trkpt>
      <trkpt lat="43.88645" lon="6.21799">
        <ele>1014.5</ele>
        <time>2026-08-23T13:23:31.590Z</time>
      </trkpt>
      <trkpt lat="43.88643" lon="6.21794">
        <ele>1014.6</ele>
        <time>2026-08-23T13:23:36.006Z</time>
      </trkpt>
      <trkpt lat="43.8864" lon="6.21788">
        <ele>1014.9</ele>
        <time>2026-08-23T13:23:41.647Z</time>
      </trkpt>
      <trkpt lat="43.88637" lon="6.21782">
        <ele>1014.7</ele>
        <time>2026-08-23T13:23:46.367Z</time>
      </trkpt>
      <trkpt lat="43.88633" lon="6.21776">
        <ele>1014.2</ele>
        <time>2026-08-23T13:23:51.650Z</time>
      </trkpt>
      <trkpt lat="43.88631" lon="6.2177">
        <ele>1014.1</ele>
        <time>2026-08-23T13:23:56.754Z</time>
      </trkpt>
      <trkpt lat="43.88629" lon="6.21763">
        <ele>1014.1</ele>
        <time>2026-08-23T13:24:02.569Z</time>
      </trkpt>
      <trkpt lat="43.88628" lon="6.21751">
        <ele>1014.4</ele>
        <time>2026-08-23T13:24:12.594Z</time>
      </trkpt>
      <trkpt lat="43.8863" lon="6.2174">
        <ele>1013.5</ele>
        <time>2026-08-23T13:24:22.651Z</time>
      </trkpt>
      <trkpt lat="43.8863" lon="6.21729">
        <ele>1012.2</ele>
        <time>2026-08-23T13:24:33.601Z</time>
      </trkpt>
      <trkpt lat="43.88628" lon="6.21726">
        <ele>1011.7</ele>
        <time>2026-08-23T13:27:59.568Z</time>
      </trkpt>
      <trkpt lat="43.88627" lon="6.2172">
        <ele>1010.7</ele>
        <time>2026-08-23T13:28:09.568Z</time>
      </trkpt>
      <trkpt lat="43.88628" lon="6.21715">
        <ele>1009.8</ele>
        <time>2026-08-23T13:28:46.568Z</time>
      </trkpt>
      <trkpt lat="43.88624" lon="6.21709">
        <ele>1008.3</ele>
        <time>2026-08-23T13:28:56.578Z</time>
      </trkpt>
      <trkpt lat="43.88616" lon="6.21705">
        <ele>1007.1</ele>
        <time>2026-08-23T13:29:30.593Z</time>
      </trkpt>
      <trkpt lat="43.88614" lon="6.21699">
        <ele>1005.9</ele>
        <time>2026-08-23T13:29:41.569Z</time>
      </trkpt>
      <trkpt lat="43.88614" lon="6.21694">
        <ele>1005</ele>
        <time>2026-08-23T13:29:51.624Z</time>
      </trkpt>
      <trkpt lat="43.88613" lon="6.21684">
        <ele>1003.5</ele>
        <time>2026-08-23T13:30:02.591Z</time>
      </trkpt>
      <trkpt lat="43.88611" lon="6.2168">
        <ele>1002.9</ele>
        <time>2026-08-23T13:30:13.569Z</time>
      </trkpt>
      <trkpt lat="43.88609" lon="6.21673">
        <ele>1001.2</ele>
        <time>2026-08-23T13:30:23.570Z</time>
      </trkpt>
      <trkpt lat="43.8861" lon="6.21667">
        <ele>1000.7</ele>
        <time>2026-08-23T13:30:28.212Z</time>
      </trkpt>
      <trkpt lat="43.88611" lon="6.2166">
        <ele>999.3</ele>
        <time>2026-08-23T13:30:33.593Z</time>
      </trkpt>
      <trkpt lat="43.88614" lon="6.21655">
        <ele>998</ele>
        <time>2026-08-23T13:30:39.127Z</time>
      </trkpt>
      <trkpt lat="43.88617" lon="6.2165">
        <ele>996.6</ele>
        <time>2026-08-23T13:30:44.661Z</time>
      </trkpt>
      <trkpt lat="43.88619" lon="6.21644">
        <ele>995</ele>
        <time>2026-08-23T13:30:50.143Z</time>
      </trkpt>
      <trkpt lat="43.88621" lon="6.21638">
        <ele>993.5</ele>
        <time>2026-08-23T13:30:55.625Z</time>
      </trkpt>
      <trkpt lat="43.88623" lon="6.21626">
        <ele>991.1</ele>
        <time>2026-08-23T13:31:06.592Z</time>
      </trkpt>
      <trkpt lat="43.88624" lon="6.21617">
        <ele>989.2</ele>
        <time>2026-08-23T13:31:17.630Z</time>
      </trkpt>
      <trkpt lat="43.88623" lon="6.21613">
        <ele>988.5</ele>
        <time>2026-08-23T13:31:27.650Z</time>
      </trkpt>
      <trkpt lat="43.88623" lon="6.21607">
        <ele>987.3</ele>
        <time>2026-08-23T13:31:32.644Z</time>
      </trkpt>
      <trkpt lat="43.88622" lon="6.216">
        <ele>985.8</ele>
        <time>2026-08-23T13:31:38.585Z</time>
      </trkpt>
      <trkpt lat="43.88621" lon="6.21591">
        <ele>983.9</ele>
        <time>2026-08-23T13:31:49.614Z</time>
      </trkpt>
      <trkpt lat="43.8862" lon="6.21584">
        <ele>982.5</ele>
        <time>2026-08-23T13:31:54.296Z</time>
      </trkpt>
      <trkpt lat="43.88619" lon="6.21576">
        <ele>981</ele>
        <time>2026-08-23T13:31:59.624Z</time>
      </trkpt>
      <trkpt lat="43.88619" lon="6.21564">
        <ele>978.6</ele>
        <time>2026-08-23T13:32:10.568Z</time>
      </trkpt>
      <trkpt lat="43.88618" lon="6.2156">
        <ele>977.9</ele>
        <time>2026-08-23T13:32:20.655Z</time>
      </trkpt>
      <trkpt lat="43.88617" lon="6.21559">
        <ele>977.8</ele>
        <time>2026-08-23T13:32:37.552Z</time>
      </trkpt>
      <trkpt lat="43.88615" lon="6.21547">
        <ele>976</ele>
        <time>2026-08-23T13:32:47.601Z</time>
      </trkpt>
      <trkpt lat="43.88612" lon="6.21542">
        <ele>975.9</ele>
        <time>2026-08-23T13:32:52.434Z</time>
      </trkpt>
      <trkpt lat="43.88608" lon="6.21536">
        <ele>974.9</ele>
        <time>2026-08-23T13:32:58.507Z</time>
      </trkpt>
      <trkpt lat="43.88606" lon="6.21532">
        <ele>974.2</ele>
        <time>2026-08-23T13:33:08.635Z</time>
      </trkpt>
      <trkpt lat="43.88602" lon="6.21528">
        <ele>973.4</ele>
        <time>2026-08-23T13:33:13.685Z</time>
      </trkpt>
      <trkpt lat="43.88597" lon="6.21524">
        <ele>972.2</ele>
        <time>2026-08-23T13:33:19.597Z</time>
      </trkpt>
      <trkpt lat="43.88593" lon="6.21521">
        <ele>971.5</ele>
        <time>2026-08-23T13:33:24.860Z</time>
      </trkpt>
      <trkpt lat="43.88589" lon="6.21517">
        <ele>970.8</ele>
        <time>2026-08-23T13:33:30.568Z</time>
      </trkpt>
      <trkpt lat="43.88585" lon="6.21514">
        <ele>970.5</ele>
        <time>2026-08-23T13:33:35.117Z</time>
      </trkpt>
      <trkpt lat="43.8858" lon="6.21511">
        <ele>970.1</ele>
        <time>2026-08-23T13:33:40.568Z</time>
      </trkpt>
      <trkpt lat="43.88575" lon="6.21508">
        <ele>969.8</ele>
        <time>2026-08-23T13:33:45.578Z</time>
      </trkpt>
      <trkpt lat="43.8857" lon="6.21505">
        <ele>969.7</ele>
        <time>2026-08-23T13:33:50.590Z</time>
      </trkpt>
      <trkpt lat="43.88565" lon="6.21503">
        <ele>969.7</ele>
        <time>2026-08-23T13:33:55.953Z</time>
      </trkpt>
      <trkpt lat="43.8856" lon="6.215">
        <ele>969.8</ele>
        <time>2026-08-23T13:34:01.568Z</time>
      </trkpt>
      <trkpt lat="43.88552" lon="6.21495">
        <ele>968.8</ele>
        <time>2026-08-23T13:34:11.627Z</time>
      </trkpt>
      <trkpt lat="43.88544" lon="6.21491">
        <ele>967.8</ele>
        <time>2026-08-23T13:34:22.592Z</time>
      </trkpt>
      <trkpt lat="43.88536" lon="6.21486">
        <ele>967</ele>
        <time>2026-08-23T13:34:32.661Z</time>
      </trkpt>
      <trkpt lat="43.88531" lon="6.21484">
        <ele>966.8</ele>
        <time>2026-08-23T13:34:37.589Z</time>
      </trkpt>
      <trkpt lat="43.88525" lon="6.21481">
        <ele>966</ele>
        <time>2026-08-23T13:34:43.629Z</time>
      </trkpt>
      <trkpt lat="43.88518" lon="6.21479">
        <ele>964.5</ele>
        <time>2026-08-23T13:34:54.599Z</time>
      </trkpt>
      <trkpt lat="43.88517" lon="6.21479">
        <ele>964.3</ele>
        <time>2026-08-23T13:35:16.568Z</time>
      </trkpt>
      <trkpt lat="43.88512" lon="6.2148">
        <ele>963.2</ele>
        <time>2026-08-23T13:35:26.608Z</time>
      </trkpt>
      <trkpt lat="43.88507" lon="6.21482">
        <ele>962.2</ele>
        <time>2026-08-23T13:35:37.578Z</time>
      </trkpt>
      <trkpt lat="43.88504" lon="6.21479">
        <ele>961.6</ele>
        <time>2026-08-23T13:35:48.571Z</time>
      </trkpt>
      <trkpt lat="43.88496" lon="6.2148">
        <ele>959.5</ele>
        <time>2026-08-23T13:36:19.567Z</time>
      </trkpt>
      <trkpt lat="43.88492" lon="6.21479">
        <ele>958.4</ele>
        <time>2026-08-23T13:36:29.598Z</time>
      </trkpt>
      <trkpt lat="43.88487" lon="6.21479">
        <ele>956.9</ele>
        <time>2026-08-23T13:36:40.567Z</time>
      </trkpt>
      <trkpt lat="43.88483" lon="6.21478">
        <ele>955.8</ele>
        <time>2026-08-23T13:36:50.573Z</time>
      </trkpt>
      <trkpt lat="43.88475" lon="6.21479">
        <ele>953.3</ele>
        <time>2026-08-23T13:37:00.583Z</time>
      </trkpt>
      <trkpt lat="43.88469" lon="6.2148">
        <ele>952</ele>
        <time>2026-08-23T13:37:10.654Z</time>
      </trkpt>
      <trkpt lat="43.88465" lon="6.21482">
        <ele>951.3</ele>
        <time>2026-08-23T13:37:15.585Z</time>
      </trkpt>
      <trkpt lat="43.8846" lon="6.21484">
        <ele>950.4</ele>
        <time>2026-08-23T13:37:21.620Z</time>
      </trkpt>
      <trkpt lat="43.88456" lon="6.21483">
        <ele>949.9</ele>
        <time>2026-08-23T13:37:26.507Z</time>
      </trkpt>
      <trkpt lat="43.88451" lon="6.21482">
        <ele>949.2</ele>
        <time>2026-08-23T13:37:32.582Z</time>
      </trkpt>
      <trkpt lat="43.88447" lon="6.21482">
        <ele>948.7</ele>
        <time>2026-08-23T13:37:37.445Z</time>
      </trkpt>
      <trkpt lat="43.88442" lon="6.21481">
        <ele>948</ele>
        <time>2026-08-23T13:37:43.588Z</time>
      </trkpt>
      <trkpt lat="43.88434" lon="6.21478">
        <ele>947.1</ele>
        <time>2026-08-23T13:37:53.613Z</time>
      </trkpt>
      <trkpt lat="43.88426" lon="6.21475">
        <ele>946.1</ele>
        <time>2026-08-23T13:38:04.579Z</time>
      </trkpt>
      <trkpt lat="43.88418" lon="6.21473">
        <ele>945.1</ele>
        <time>2026-08-23T13:38:15.514Z</time>
      </trkpt>
      <trkpt lat="43.88414" lon="6.21476">
        <ele>944.2</ele>
        <time>2026-08-23T13:38:20.560Z</time>
      </trkpt>
      <trkpt lat="43.8841" lon="6.21479">
        <ele>943.2</ele>
        <time>2026-08-23T13:38:25.607Z</time>
      </trkpt>
      <trkpt lat="43.88408" lon="6.21481">
        <ele>942.7</ele>
        <time>2026-08-23T13:38:36.566Z</time>
      </trkpt>
      <trkpt lat="43.88402" lon="6.21488">
        <ele>941.3</ele>
        <time>2026-08-23T13:38:46.629Z</time>
      </trkpt>
      <trkpt lat="43.884" lon="6.21492">
        <ele>940.8</ele>
        <time>2026-08-23T13:39:11.587Z</time>
      </trkpt>
      <trkpt lat="43.88396" lon="6.21495">
        <ele>940.1</ele>
        <time>2026-08-23T13:39:16.289Z</time>
      </trkpt>
      <trkpt lat="43.88391" lon="6.21497">
        <ele>939.3</ele>
        <time>2026-08-23T13:39:21.672Z</time>
      </trkpt>
      <trkpt lat="43.88387" lon="6.21502">
        <ele>938.6</ele>
        <time>2026-08-23T13:39:26.940Z</time>
      </trkpt>
      <trkpt lat="43.88382" lon="6.21506">
        <ele>937.7</ele>
        <time>2026-08-23T13:39:32.588Z</time>
      </trkpt>
      <trkpt lat="43.88377" lon="6.21509">
        <ele>937.1</ele>
        <time>2026-08-23T13:39:38.086Z</time>
      </trkpt>
      <trkpt lat="43.88372" lon="6.21512">
        <ele>936.5</ele>
        <time>2026-08-23T13:39:43.585Z</time>
      </trkpt>
      <trkpt lat="43.88368" lon="6.21516">
        <ele>936.1</ele>
        <time>2026-08-23T13:39:48.810Z</time>
      </trkpt>
      <trkpt lat="43.88364" lon="6.21519">
        <ele>935.9</ele>
        <time>2026-08-23T13:39:53.630Z</time>
      </trkpt>
      <trkpt lat="43.88359" lon="6.21522">
        <ele>935.4</ele>
        <time>2026-08-23T13:39:59.253Z</time>
      </trkpt>
      <trkpt lat="43.88354" lon="6.21524">
        <ele>934.7</ele>
        <time>2026-08-23T13:40:04.626Z</time>
      </trkpt>
      <trkpt lat="43.88349" lon="6.21527">
        <ele>934.2</ele>
        <time>2026-08-23T13:40:10.235Z</time>
      </trkpt>
      <trkpt lat="43.88344" lon="6.21529">
        <ele>933.5</ele>
        <time>2026-08-23T13:40:15.594Z</time>
      </trkpt>
      <trkpt lat="43.88339" lon="6.21534">
        <ele>932.5</ele>
        <time>2026-08-23T13:40:21.242Z</time>
      </trkpt>
      <trkpt lat="43.88334" lon="6.21538">
        <ele>931.7</ele>
        <time>2026-08-23T13:40:26.532Z</time>
      </trkpt>
      <trkpt lat="43.8833" lon="6.21541">
        <ele>931</ele>
        <time>2026-08-23T13:40:31.240Z</time>
      </trkpt>
      <trkpt lat="43.88325" lon="6.21543">
        <ele>930.1</ele>
        <time>2026-08-23T13:40:36.628Z</time>
      </trkpt>
      <trkpt lat="43.88322" lon="6.21547">
        <ele>929.7</ele>
        <time>2026-08-23T13:40:41.646Z</time>
      </trkpt>
      <trkpt lat="43.88318" lon="6.21551">
        <ele>929.2</ele>
        <time>2026-08-23T13:40:47.593Z</time>
      </trkpt>
      <trkpt lat="43.88315" lon="6.21555">
        <ele>929</ele>
        <time>2026-08-23T13:40:52.614Z</time>
      </trkpt>
      <trkpt lat="43.88311" lon="6.21559">
        <ele>928.5</ele>
        <time>2026-08-23T13:40:58.566Z</time>
      </trkpt>
      <trkpt lat="43.88307" lon="6.21556">
        <ele>928.2</ele>
        <time>2026-08-23T13:41:03.570Z</time>
      </trkpt>
      <trkpt lat="43.88302" lon="6.21553">
        <ele>926.9</ele>
        <time>2026-08-23T13:41:09.566Z</time>
      </trkpt>
      <trkpt lat="43.88302" lon="6.21546">
        <ele>926.4</ele>
        <time>2026-08-23T13:41:14.263Z</time>
      </trkpt>
      <trkpt lat="43.88302" lon="6.21538">
        <ele>925.8</ele>
        <time>2026-08-23T13:41:19.631Z</time>
      </trkpt>
      <trkpt lat="43.88305" lon="6.21532">
        <ele>926.1</ele>
        <time>2026-08-23T13:41:25.370Z</time>
      </trkpt>
      <trkpt lat="43.88307" lon="6.21526">
        <ele>926.1</ele>
        <time>2026-08-23T13:41:30.567Z</time>
      </trkpt>
      <trkpt lat="43.88308" lon="6.2152">
        <ele>925.4</ele>
        <time>2026-08-23T13:41:35.276Z</time>
      </trkpt>
      <trkpt lat="43.88308" lon="6.21513">
        <ele>924.4</ele>
        <time>2026-08-23T13:41:40.630Z</time>
      </trkpt>
      <trkpt lat="43.88312" lon="6.21502">
        <ele>923.7</ele>
        <time>2026-08-23T13:41:51.599Z</time>
      </trkpt>
      <trkpt lat="43.88315" lon="6.21496">
        <ele>923.5</ele>
        <time>2026-08-23T13:41:57.115Z</time>
      </trkpt>
      <trkpt lat="43.88318" lon="6.2149">
        <ele>923.4</ele>
        <time>2026-08-23T13:42:02.631Z</time>
      </trkpt>
      <trkpt lat="43.8832" lon="6.21483">
        <ele>923</ele>
        <time>2026-08-23T13:42:07.810Z</time>
      </trkpt>
      <trkpt lat="43.88322" lon="6.21475">
        <ele>922.5</ele>
        <time>2026-08-23T13:42:13.636Z</time>
      </trkpt>
      <trkpt lat="43.88323" lon="6.21468">
        <ele>922.4</ele>
        <time>2026-08-23T13:42:18.763Z</time>
      </trkpt>
      <trkpt lat="43.88324" lon="6.2146">
        <ele>922.5</ele>
        <time>2026-08-23T13:42:24.597Z</time>
      </trkpt>
      <trkpt lat="43.88319" lon="6.21455">
        <ele>921.4</ele>
        <time>2026-08-23T13:42:29.733Z</time>
      </trkpt>
      <trkpt lat="43.88313" lon="6.2145">
        <ele>920.2</ele>
        <time>2026-08-23T13:42:35.566Z</time>
      </trkpt>
      <trkpt lat="43.88307" lon="6.21448">
        <ele>919.1</ele>
        <time>2026-08-23T13:42:40.599Z</time>
      </trkpt>
      <trkpt lat="43.88301" lon="6.21446">
        <ele>918</ele>
        <time>2026-08-23T13:42:45.633Z</time>
      </trkpt>
      <trkpt lat="43.88297" lon="6.2144">
        <ele>917.6</ele>
        <time>2026-08-23T13:42:50.584Z</time>
      </trkpt>
      <trkpt lat="43.88292" lon="6.21433">
        <ele>917.3</ele>
        <time>2026-08-23T13:42:56.554Z</time>
      </trkpt>
      <trkpt lat="43.88289" lon="6.21428">
        <ele>917.2</ele>
        <time>2026-08-23T13:43:00.991Z</time>
      </trkpt>
      <trkpt lat="43.88285" lon="6.21422">
        <ele>917</ele>
        <time>2026-08-23T13:43:06.566Z</time>
      </trkpt>
      <trkpt lat="43.88278" lon="6.21415">
        <ele>916.1</ele>
        <time>2026-08-23T13:43:16.572Z</time>
      </trkpt>
      <trkpt lat="43.88274" lon="6.21411">
        <ele>915.3</ele>
        <time>2026-08-23T13:43:21.575Z</time>
      </trkpt>
      <trkpt lat="43.8827" lon="6.21407">
        <ele>914.4</ele>
        <time>2026-08-23T13:43:26.579Z</time>
      </trkpt>
      <trkpt lat="43.88267" lon="6.21402">
        <ele>913.8</ele>
        <time>2026-08-23T13:43:31.448Z</time>
      </trkpt>
      <trkpt lat="43.88263" lon="6.21396">
        <ele>913</ele>
        <time>2026-08-23T13:43:37.566Z</time>
      </trkpt>
      <trkpt lat="43.88261" lon="6.21391">
        <ele>912.7</ele>
        <time>2026-08-23T13:43:41.977Z</time>
      </trkpt>
      <trkpt lat="43.88258" lon="6.21385">
        <ele>912.3</ele>
        <time>2026-08-23T13:43:47.610Z</time>
      </trkpt>
      <trkpt lat="43.88256" lon="6.2138">
        <ele>912.1</ele>
        <time>2026-08-23T13:43:52.426Z</time>
      </trkpt>
      <trkpt lat="43.88253" lon="6.21374">
        <ele>911.8</ele>
        <time>2026-08-23T13:43:58.578Z</time>
      </trkpt>
      <trkpt lat="43.8825" lon="6.21369">
        <ele>911.4</ele>
        <time>2026-08-23T13:44:03.692Z</time>
      </trkpt>
      <trkpt lat="43.88246" lon="6.21364">
        <ele>910.8</ele>
        <time>2026-08-23T13:44:09.566Z</time>
      </trkpt>
      <trkpt lat="43.88242" lon="6.2136">
        <ele>910</ele>
        <time>2026-08-23T13:44:14.192Z</time>
      </trkpt>
      <trkpt lat="43.88237" lon="6.21356">
        <ele>908.7</ele>
        <time>2026-08-23T13:44:19.607Z</time>
      </trkpt>
      <trkpt lat="43.88231" lon="6.21347">
        <ele>907.4</ele>
        <time>2026-08-23T13:44:30.567Z</time>
      </trkpt>
      <trkpt lat="43.88227" lon="6.21336">
        <ele>906.8</ele>
        <time>2026-08-23T13:44:41.573Z</time>
      </trkpt>
      <trkpt lat="43.88228" lon="6.21324">
        <ele>906.4</ele>
        <time>2026-08-23T13:44:51.597Z</time>
      </trkpt>
      <trkpt lat="43.88228" lon="6.21314">
        <ele>905.8</ele>
        <time>2026-08-23T13:45:02.566Z</time>
      </trkpt>
      <trkpt lat="43.88231" lon="6.21311">
        <ele>906.2</ele>
        <time>2026-08-23T13:47:44.529Z</time>
      </trkpt>
      <trkpt lat="43.88237" lon="6.21303">
        <ele>907.3</ele>
        <time>2026-08-23T13:47:54.574Z</time>
      </trkpt>
      <trkpt lat="43.88235" lon="6.21302">
        <ele>906.9</ele>
        <time>2026-08-23T13:49:16.550Z</time>
      </trkpt>
      <trkpt lat="43.88232" lon="6.21297">
        <ele>906.3</ele>
        <time>2026-08-23T13:49:21.211Z</time>
      </trkpt>
      <trkpt lat="43.88228" lon="6.21292">
        <ele>905.5</ele>
        <time>2026-08-23T13:49:26.564Z</time>
      </trkpt>
      <trkpt lat="43.88226" lon="6.21285">
        <ele>905</ele>
        <time>2026-08-23T13:49:31.592Z</time>
      </trkpt>
      <trkpt lat="43.88224" lon="6.21278">
        <ele>904.5</ele>
        <time>2026-08-23T13:49:36.621Z</time>
      </trkpt>
      <trkpt lat="43.8822" lon="6.21274">
        <ele>904.1</ele>
        <time>2026-08-23T13:49:41.861Z</time>
      </trkpt>
      <trkpt lat="43.88216" lon="6.21269">
        <ele>903.9</ele>
        <time>2026-08-23T13:49:47.584Z</time>
      </trkpt>
      <trkpt lat="43.88212" lon="6.21266">
        <ele>903.4</ele>
        <time>2026-08-23T13:49:52.422Z</time>
      </trkpt>
      <trkpt lat="43.88207" lon="6.21262">
        <ele>902.6</ele>
        <time>2026-08-23T13:49:58.564Z</time>
      </trkpt>
      <trkpt lat="43.88204" lon="6.21256">
        <ele>902.3</ele>
        <time>2026-08-23T13:50:03.781Z</time>
      </trkpt>
      <trkpt lat="43.882" lon="6.2125">
        <ele>901.6</ele>
        <time>2026-08-23T13:50:09.622Z</time>
      </trkpt>
      <trkpt lat="43.88198" lon="6.21243">
        <ele>901.8</ele>
        <time>2026-08-23T13:50:14.611Z</time>
      </trkpt>
      <trkpt lat="43.88195" lon="6.21235">
        <ele>901.8</ele>
        <time>2026-08-23T13:50:20.586Z</time>
      </trkpt>
      <trkpt lat="43.88193" lon="6.21227">
        <ele>902</ele>
        <time>2026-08-23T13:50:25.783Z</time>
      </trkpt>
      <trkpt lat="43.88191" lon="6.21218">
        <ele>902.3</ele>
        <time>2026-08-23T13:50:31.564Z</time>
      </trkpt>
      <trkpt lat="43.8819" lon="6.21211">
        <ele>902.7</ele>
        <time>2026-08-23T13:50:36.457Z</time>
      </trkpt>
      <trkpt lat="43.88188" lon="6.21204">
        <ele>902.7</ele>
        <time>2026-08-23T13:50:41.620Z</time>
      </trkpt>
      <trkpt lat="43.88188" lon="6.21196">
        <ele>903.5</ele>
        <time>2026-08-23T13:50:46.747Z</time>
      </trkpt>
      <trkpt lat="43.88187" lon="6.21187">
        <ele>903.6</ele>
        <time>2026-08-23T13:50:52.585Z</time>
      </trkpt>
      <trkpt lat="43.88185" lon="6.21179">
        <ele>903.2</ele>
        <time>2026-08-23T13:50:58.076Z</time>
      </trkpt>
      <trkpt lat="43.88183" lon="6.21171">
        <ele>902.7</ele>
        <time>2026-08-23T13:51:03.568Z</time>
      </trkpt>
      <trkpt lat="43.88182" lon="6.21163">
        <ele>902.7</ele>
        <time>2026-08-23T13:51:08.781Z</time>
      </trkpt>
      <trkpt lat="43.88181" lon="6.21154">
        <ele>902.9</ele>
        <time>2026-08-23T13:51:14.628Z</time>
      </trkpt>
      <trkpt lat="43.8818" lon="6.21146">
        <ele>902.9</ele>
        <time>2026-08-23T13:51:19.796Z</time>
      </trkpt>
      <trkpt lat="43.88179" lon="6.21137">
        <ele>903</ele>
        <time>2026-08-23T13:51:25.593Z</time>
      </trkpt>
      <trkpt lat="43.88179" lon="6.21129">
        <ele>903.2</ele>
        <time>2026-08-23T13:51:31.037Z</time>
      </trkpt>
      <trkpt lat="43.88178" lon="6.21121">
        <ele>903.1</ele>
        <time>2026-08-23T13:51:36.564Z</time>
      </trkpt>
      <trkpt lat="43.88176" lon="6.21114">
        <ele>902.6</ele>
        <time>2026-08-23T13:51:41.563Z</time>
      </trkpt>
      <trkpt lat="43.88174" lon="6.21107">
        <ele>902.3</ele>
        <time>2026-08-23T13:51:46.564Z</time>
      </trkpt>
      <trkpt lat="43.88171" lon="6.211">
        <ele>901.9</ele>
        <time>2026-08-23T13:51:52.079Z</time>
      </trkpt>
      <trkpt lat="43.88168" lon="6.21093">
        <ele>901.5</ele>
        <time>2026-08-23T13:51:57.596Z</time>
      </trkpt>
      <trkpt lat="43.88166" lon="6.21085">
        <ele>901.6</ele>
        <time>2026-08-23T13:52:03.079Z</time>
      </trkpt>
      <trkpt lat="43.88164" lon="6.21077">
        <ele>901.3</ele>
        <time>2026-08-23T13:52:08.564Z</time>
      </trkpt>
      <trkpt lat="43.88164" lon="6.2107">
        <ele>901.6</ele>
        <time>2026-08-23T13:52:13.193Z</time>
      </trkpt>
      <trkpt lat="43.88163" lon="6.21062">
        <ele>901.5</ele>
        <time>2026-08-23T13:52:18.564Z</time>
      </trkpt>
      <trkpt lat="43.88164" lon="6.21055">
        <ele>902.1</ele>
        <time>2026-08-23T13:52:23.582Z</time>
      </trkpt>
      <trkpt lat="43.88165" lon="6.21048">
        <ele>902.5</ele>
        <time>2026-08-23T13:52:28.600Z</time>
      </trkpt>
      <trkpt lat="43.88165" lon="6.2104">
        <ele>902.5</ele>
        <time>2026-08-23T13:52:34.065Z</time>
      </trkpt>
      <trkpt lat="43.88164" lon="6.21032">
        <ele>902.2</ele>
        <time>2026-08-23T13:52:39.612Z</time>
      </trkpt>
      <trkpt lat="43.88163" lon="6.21025">
        <ele>902.2</ele>
        <time>2026-08-23T13:52:44.620Z</time>
      </trkpt>
      <trkpt lat="43.88161" lon="6.21017">
        <ele>902.4</ele>
        <time>2026-08-23T13:52:50.564Z</time>
      </trkpt>
      <trkpt lat="43.88163" lon="6.21006">
        <ele>904.1</ele>
        <time>2026-08-23T13:53:00.606Z</time>
      </trkpt>
      <trkpt lat="43.8816" lon="6.21001">
        <ele>903.5</ele>
        <time>2026-08-23T13:53:05.769Z</time>
      </trkpt>
      <trkpt lat="43.88157" lon="6.20995">
        <ele>903</ele>
        <time>2026-08-23T13:53:11.566Z</time>
      </trkpt>
      <trkpt lat="43.88151" lon="6.20988">
        <ele>901.4</ele>
        <time>2026-08-23T13:53:21.634Z</time>
      </trkpt>
      <trkpt lat="43.88149" lon="6.20996">
        <ele>900</ele>
        <time>2026-08-23T13:53:32.597Z</time>
      </trkpt>
      <trkpt lat="43.88153" lon="6.21007">
        <ele>900.6</ele>
        <time>2026-08-23T13:53:43.564Z</time>
      </trkpt>
      <trkpt lat="43.88154" lon="6.21014">
        <ele>900.4</ele>
        <time>2026-08-23T13:53:49.028Z</time>
      </trkpt>
      <trkpt lat="43.88155" lon="6.21021">
        <ele>900.2</ele>
        <time>2026-08-23T13:53:54.492Z</time>
      </trkpt>
      <trkpt lat="43.88153" lon="6.21033">
        <ele>899</ele>
        <time>2026-08-23T13:54:04.601Z</time>
      </trkpt>
      <trkpt lat="43.88153" lon="6.2104">
        <ele>898.8</ele>
        <time>2026-08-23T13:54:10.403Z</time>
      </trkpt>
      <trkpt lat="43.88152" lon="6.21046">
        <ele>898.4</ele>
        <time>2026-08-23T13:54:15.508Z</time>
      </trkpt>
      <trkpt lat="43.88151" lon="6.21053">
        <ele>898</ele>
        <time>2026-08-23T13:54:20.905Z</time>
      </trkpt>
      <trkpt lat="43.8815" lon="6.21059">
        <ele>897.4</ele>
        <time>2026-08-23T13:54:25.563Z</time>
      </trkpt>
      <trkpt lat="43.88147" lon="6.2107">
        <ele>895.7</ele>
        <time>2026-08-23T13:54:35.606Z</time>
      </trkpt>
      <trkpt lat="43.88146" lon="6.21077">
        <ele>895</ele>
        <time>2026-08-23T13:54:41.493Z</time>
      </trkpt>
      <trkpt lat="43.88145" lon="6.21083">
        <ele>894.2</ele>
        <time>2026-08-23T13:54:46.574Z</time>
      </trkpt>
      <trkpt lat="43.88145" lon="6.2109">
        <ele>893.9</ele>
        <time>2026-08-23T13:54:51.989Z</time>
      </trkpt>
      <trkpt lat="43.88145" lon="6.21096">
        <ele>893.5</ele>
        <time>2026-08-23T13:54:56.632Z</time>
      </trkpt>
      <trkpt lat="43.88145" lon="6.21103">
        <ele>893.2</ele>
        <time>2026-08-23T13:55:02.058Z</time>
      </trkpt>
      <trkpt lat="43.88144" lon="6.2111">
        <ele>892.5</ele>
        <time>2026-08-23T13:55:07.591Z</time>
      </trkpt>
      <trkpt lat="43.88142" lon="6.21116">
        <ele>891.7</ele>
        <time>2026-08-23T13:55:13.031Z</time>
      </trkpt>
      <trkpt lat="43.8814" lon="6.21122">
        <ele>890.9</ele>
        <time>2026-08-23T13:55:18.473Z</time>
      </trkpt>
      <trkpt lat="43.88136" lon="6.21127">
        <ele>890</ele>
        <time>2026-08-23T13:55:23.739Z</time>
      </trkpt>
      <trkpt lat="43.88132" lon="6.21131">
        <ele>889.2</ele>
        <time>2026-08-23T13:55:28.563Z</time>
      </trkpt>
      <trkpt lat="43.88129" lon="6.21137">
        <ele>888.6</ele>
        <time>2026-08-23T13:55:33.868Z</time>
      </trkpt>
      <trkpt lat="43.88126" lon="6.21142">
        <ele>888.1</ele>
        <time>2026-08-23T13:55:38.596Z</time>
      </trkpt>
      <trkpt lat="43.88122" lon="6.21148">
        <ele>887.6</ele>
        <time>2026-08-23T13:55:49.563Z</time>
      </trkpt>
      <trkpt lat="43.8812" lon="6.21153">
        <ele>887.3</ele>
        <time>2026-08-23T13:57:58.471Z</time>
      </trkpt>
      <trkpt lat="43.88116" lon="6.21159">
        <ele>886.7</ele>
        <time>2026-08-23T13:58:03.771Z</time>
      </trkpt>
      <trkpt lat="43.88112" lon="6.21164">
        <ele>886.1</ele>
        <time>2026-08-23T13:58:08.616Z</time>
      </trkpt>
      <trkpt lat="43.88106" lon="6.21165">
        <ele>886.2</ele>
        <time>2026-08-23T13:58:14.099Z</time>
      </trkpt>
      <trkpt lat="43.881" lon="6.21166">
        <ele>886.4</ele>
        <time>2026-08-23T13:58:19.582Z</time>
      </trkpt>
      <trkpt lat="43.88095" lon="6.21165">
        <ele>886.5</ele>
        <time>2026-08-23T13:58:24.525Z</time>
      </trkpt>
      <trkpt lat="43.88089" lon="6.21163">
        <ele>886.6</ele>
        <time>2026-08-23T13:58:30.563Z</time>
      </trkpt>
      <trkpt lat="43.88085" lon="6.21162">
        <ele>886.6</ele>
        <time>2026-08-23T13:58:35.024Z</time>
      </trkpt>
      <trkpt lat="43.8808" lon="6.21161">
        <ele>887.2</ele>
        <time>2026-08-23T13:58:40.570Z</time>
      </trkpt>
      <trkpt lat="43.88075" lon="6.21159">
        <ele>887.9</ele>
        <time>2026-08-23T13:58:46.072Z</time>
      </trkpt>
      <trkpt lat="43.8807" lon="6.21157">
        <ele>888.5</ele>
        <time>2026-08-23T13:58:51.576Z</time>
      </trkpt>
      <trkpt lat="43.88066" lon="6.21155">
        <ele>889</ele>
        <time>2026-08-23T13:58:56.392Z</time>
      </trkpt>
      <trkpt lat="43.88061" lon="6.21152">
        <ele>889.5</ele>
        <time>2026-08-23T13:59:02.563Z</time>
      </trkpt>
      <trkpt lat="43.88057" lon="6.21149">
        <ele>889.9</ele>
        <time>2026-08-23T13:59:07.582Z</time>
      </trkpt>
      <trkpt lat="43.88053" lon="6.21146">
        <ele>890.4</ele>
        <time>2026-08-23T13:59:12.603Z</time>
      </trkpt>
      <trkpt lat="43.88049" lon="6.21143">
        <ele>890.9</ele>
        <time>2026-08-23T13:59:17.401Z</time>
      </trkpt>
      <trkpt lat="43.88044" lon="6.21139">
        <ele>891.5</ele>
        <time>2026-08-23T13:59:23.492Z</time>
      </trkpt>
      <trkpt lat="43.88042" lon="6.21136">
        <ele>891.6</ele>
        <time>2026-08-23T14:00:25.563Z</time>
      </trkpt>
      <trkpt lat="43.88037" lon="6.21133">
        <ele>892.2</ele>
        <time>2026-08-23T14:00:30.185Z</time>
      </trkpt>
      <trkpt lat="43.88031" lon="6.2113">
        <ele>893.1</ele>
        <time>2026-08-23T14:00:35.597Z</time>
      </trkpt>
      <trkpt lat="43.88024" lon="6.21123">
        <ele>893.8</ele>
        <time>2026-08-23T14:00:46.627Z</time>
      </trkpt>
      <trkpt lat="43.8802" lon="6.21117">
        <ele>894.1</ele>
        <time>2026-08-23T14:00:51.737Z</time>
      </trkpt>
      <trkpt lat="43.88015" lon="6.21111">
        <ele>894.7</ele>
        <time>2026-08-23T14:00:57.472Z</time>
      </trkpt>
      <trkpt lat="43.8801" lon="6.21103">
        <ele>895.1</ele>
        <time>2026-08-23T14:01:07.628Z</time>
      </trkpt>
      <trkpt lat="43.88007" lon="6.21099">
        <ele>895.3</ele>
        <time>2026-08-23T14:01:12.394Z</time>
      </trkpt>
      <trkpt lat="43.88003" lon="6.21094">
        <ele>895.7</ele>
        <time>2026-08-23T14:01:18.562Z</time>
      </trkpt>
      <trkpt lat="43.87998" lon="6.21086">
        <ele>896</ele>
        <time>2026-08-23T14:01:28.562Z</time>
      </trkpt>
      <trkpt lat="43.87995" lon="6.21082">
        <ele>896.5</ele>
        <time>2026-08-23T14:01:32.925Z</time>
      </trkpt>
      <trkpt lat="43.87991" lon="6.21077">
        <ele>897.2</ele>
        <time>2026-08-23T14:01:38.571Z</time>
      </trkpt>
      <trkpt lat="43.87988" lon="6.21073">
        <ele>897.6</ele>
        <time>2026-08-23T14:01:43.362Z</time>
      </trkpt>
      <trkpt lat="43.87984" lon="6.21068">
        <ele>898.2</ele>
        <time>2026-08-23T14:01:49.562Z</time>
      </trkpt>
      <trkpt lat="43.87983" lon="6.21067">
        <ele>898.4</ele>
        <time>2026-08-23T14:02:14.601Z</time>
      </trkpt>
      <trkpt lat="43.87978" lon="6.21064">
        <ele>899.5</ele>
        <time>2026-08-23T14:02:20.082Z</time>
      </trkpt>
      <trkpt lat="43.87973" lon="6.21061">
        <ele>900.6</ele>
        <time>2026-08-23T14:02:25.564Z</time>
      </trkpt>
      <trkpt lat="43.87967" lon="6.21054">
        <ele>901.3</ele>
        <time>2026-08-23T14:02:35.594Z</time>
      </trkpt>
      <trkpt lat="43.87963" lon="6.2105">
        <ele>901.7</ele>
        <time>2026-08-23T14:02:40.821Z</time>
      </trkpt>
      <trkpt lat="43.87959" lon="6.21045">
        <ele>901.9</ele>
        <time>2026-08-23T14:02:46.530Z</time>
      </trkpt>
      <trkpt lat="43.87955" lon="6.21042">
        <ele>902.4</ele>
        <time>2026-08-23T14:02:51.328Z</time>
      </trkpt>
      <trkpt lat="43.87951" lon="6.21038">
        <ele>902.6</ele>
        <time>2026-08-23T14:02:56.531Z</time>
      </trkpt>
      <trkpt lat="43.87947" lon="6.21034">
        <ele>902.8</ele>
        <time>2026-08-23T14:03:01.348Z</time>
      </trkpt>
      <trkpt lat="43.87943" lon="6.21029">
        <ele>902.4</ele>
        <time>2026-08-23T14:03:06.608Z</time>
      </trkpt>
      <trkpt lat="43.87938" lon="6.21026">
        <ele>902.4</ele>
        <time>2026-08-23T14:03:11.543Z</time>
      </trkpt>
      <trkpt lat="43.87932" lon="6.21022">
        <ele>902.5</ele>
        <time>2026-08-23T14:03:17.575Z</time>
      </trkpt>
      <trkpt lat="43.87929" lon="6.21018">
        <ele>902.3</ele>
        <time>2026-08-23T14:03:22.325Z</time>
      </trkpt>
      <trkpt lat="43.87925" lon="6.21013">
        <ele>902</ele>
        <time>2026-08-23T14:03:28.473Z</time>
      </trkpt>
      <trkpt lat="43.8792" lon="6.21014">
        <ele>902.7</ele>
        <time>2026-08-23T14:03:33.566Z</time>
      </trkpt>
      <trkpt lat="43.87915" lon="6.21014">
        <ele>903</ele>
        <time>2026-08-23T14:03:38.608Z</time>
      </trkpt>
      <trkpt lat="43.87911" lon="6.21017">
        <ele>903.2</ele>
        <time>2026-08-23T14:03:44.093Z</time>
      </trkpt>
      <trkpt lat="43.87907" lon="6.2102">
        <ele>903.5</ele>
        <time>2026-08-23T14:03:49.580Z</time>
      </trkpt>
      <trkpt lat="43.87904" lon="6.21025">
        <ele>904.1</ele>
        <time>2026-08-23T14:03:55.070Z</time>
      </trkpt>
      <trkpt lat="43.87901" lon="6.2103">
        <ele>904.9</ele>
        <time>2026-08-23T14:04:00.562Z</time>
      </trkpt>
      <trkpt lat="43.87899" lon="6.21042">
        <ele>907.4</ele>
        <time>2026-08-23T14:04:10.617Z</time>
      </trkpt>
      <trkpt lat="43.87896" lon="6.21048">
        <ele>908.6</ele>
        <time>2026-08-23T14:04:16.097Z</time>
      </trkpt>
      <trkpt lat="43.87893" lon="6.21054">
        <ele>909.8</ele>
        <time>2026-08-23T14:04:21.578Z</time>
      </trkpt>
      <trkpt lat="43.8789" lon="6.21059">
        <ele>910.9</ele>
        <time>2026-08-23T14:04:27.069Z</time>
      </trkpt>
      <trkpt lat="43.87887" lon="6.21064">
        <ele>912.1</ele>
        <time>2026-08-23T14:04:32.562Z</time>
      </trkpt>
      <trkpt lat="43.87883" lon="6.21068">
        <ele>912.9</ele>
        <time>2026-08-23T14:04:38.091Z</time>
      </trkpt>
      <trkpt lat="43.87879" lon="6.21072">
        <ele>913.8</ele>
        <time>2026-08-23T14:04:43.622Z</time>
      </trkpt>
      <trkpt lat="43.87874" lon="6.21079">
        <ele>915.4</ele>
        <time>2026-08-23T14:04:54.587Z</time>
      </trkpt>
      <trkpt lat="43.87869" lon="6.21084">
        <ele>916.5</ele>
        <time>2026-08-23T14:05:00.254Z</time>
      </trkpt>
      <trkpt lat="43.87864" lon="6.21088">
        <ele>917.6</ele>
        <time>2026-08-23T14:05:05.562Z</time>
      </trkpt>
      <trkpt lat="43.8786" lon="6.2109">
        <ele>918.1</ele>
        <time>2026-08-23T14:05:10.158Z</time>
      </trkpt>
      <trkpt lat="43.87855" lon="6.21091">
        <ele>918.3</ele>
        <time>2026-08-23T14:05:15.620Z</time>
      </trkpt>
      <trkpt lat="43.87847" lon="6.21093">
        <ele>918.8</ele>
        <time>2026-08-23T14:05:26.586Z</time>
      </trkpt>
      <trkpt lat="43.87843" lon="6.21095">
        <ele>919.4</ele>
        <time>2026-08-23T14:05:31.596Z</time>
      </trkpt>
      <trkpt lat="43.87838" lon="6.21096">
        <ele>919.7</ele>
        <time>2026-08-23T14:05:37.549Z</time>
      </trkpt>
      <trkpt lat="43.87834" lon="6.21098">
        <ele>920.3</ele>
        <time>2026-08-23T14:05:42.125Z</time>
      </trkpt>
      <trkpt lat="43.87829" lon="6.21099">
        <ele>921.1</ele>
        <time>2026-08-23T14:05:47.563Z</time>
      </trkpt>
      <trkpt lat="43.87825" lon="6.21099">
        <ele>921.5</ele>
        <time>2026-08-23T14:05:52.015Z</time>
      </trkpt>
      <trkpt lat="43.8782" lon="6.21099">
        <ele>922.1</ele>
        <time>2026-08-23T14:05:57.582Z</time>
      </trkpt>
      <trkpt lat="43.87816" lon="6.21098">
        <ele>922.2</ele>
        <time>2026-08-23T14:06:02.477Z</time>
      </trkpt>
      <trkpt lat="43.87811" lon="6.21097">
        <ele>922.3</ele>
        <time>2026-08-23T14:06:08.562Z</time>
      </trkpt>
      <trkpt lat="43.87807" lon="6.21095">
        <ele>922</ele>
        <time>2026-08-23T14:06:13.082Z</time>
      </trkpt>
      <trkpt lat="43.87802" lon="6.21093">
        <ele>923.1</ele>
        <time>2026-08-23T14:06:18.615Z</time>
      </trkpt>
      <trkpt lat="43.87796" lon="6.21086">
        <ele>923.9</ele>
        <time>2026-08-23T14:06:29.576Z</time>
      </trkpt>
      <trkpt lat="43.87793" lon="6.21081">
        <ele>924.8</ele>
        <time>2026-08-23T14:06:40.562Z</time>
      </trkpt>
      <trkpt lat="43.87795" lon="6.21075">
        <ele>923.6</ele>
        <time>2026-08-23T14:13:06.584Z</time>
      </trkpt>
      <trkpt lat="43.87796" lon="6.21068">
        <ele>923</ele>
        <time>2026-08-23T14:13:11.759Z</time>
      </trkpt>
      <trkpt lat="43.87796" lon="6.2106">
        <ele>922.9</ele>
        <time>2026-08-23T14:13:17.561Z</time>
      </trkpt>
      <trkpt lat="43.87795" lon="6.21051">
        <ele>923.6</ele>
        <time>2026-08-23T14:13:27.591Z</time>
      </trkpt>
      <trkpt lat="43.87793" lon="6.21042">
        <ele>925.2</ele>
        <time>2026-08-23T14:13:38.561Z</time>
      </trkpt>
      <trkpt lat="43.87793" lon="6.21036">
        <ele>925.4</ele>
        <time>2026-08-23T14:13:43.145Z</time>
      </trkpt>
      <trkpt lat="43.87792" lon="6.21029">
        <ele>926.3</ele>
        <time>2026-08-23T14:13:48.598Z</time>
      </trkpt>
      <trkpt lat="43.87791" lon="6.21017">
        <ele>927.3</ele>
        <time>2026-08-23T14:13:59.560Z</time>
      </trkpt>
      <trkpt lat="43.87792" lon="6.21006">
        <ele>927.1</ele>
        <time>2026-08-23T14:14:09.608Z</time>
      </trkpt>
      <trkpt lat="43.87791" lon="6.20995">
        <ele>927.8</ele>
        <time>2026-08-23T14:14:20.560Z</time>
      </trkpt>
      <trkpt lat="43.8779" lon="6.20988">
        <ele>928.1</ele>
        <time>2026-08-23T14:14:25.452Z</time>
      </trkpt>
      <trkpt lat="43.87788" lon="6.20981">
        <ele>928.9</ele>
        <time>2026-08-23T14:14:30.614Z</time>
      </trkpt>
      <trkpt lat="43.87786" lon="6.20969">
        <ele>929.3</ele>
        <time>2026-08-23T14:14:41.565Z</time>
      </trkpt>
      <trkpt lat="43.87784" lon="6.20958">
        <ele>929.4</ele>
        <time>2026-08-23T14:14:52.627Z</time>
      </trkpt>
      <trkpt lat="43.87783" lon="6.20952">
        <ele>929.4</ele>
        <time>2026-08-23T14:14:57.553Z</time>
      </trkpt>
      <trkpt lat="43.87781" lon="6.20945">
        <ele>929.8</ele>
        <time>2026-08-23T14:15:03.578Z</time>
      </trkpt>
      <trkpt lat="43.87777" lon="6.20936">
        <ele>930.7</ele>
        <time>2026-08-23T14:15:14.560Z</time>
      </trkpt>
      <trkpt lat="43.87774" lon="6.20931">
        <ele>931.5</ele>
        <time>2026-08-23T14:15:19.695Z</time>
      </trkpt>
      <trkpt lat="43.8777" lon="6.20926">
        <ele>932.6</ele>
        <time>2026-08-23T14:15:25.591Z</time>
      </trkpt>
      <trkpt lat="43.87765" lon="6.20925">
        <ele>934.3</ele>
        <time>2026-08-23T14:15:31.076Z</time>
      </trkpt>
      <trkpt lat="43.8776" lon="6.20924">
        <ele>936</ele>
        <time>2026-08-23T14:15:36.561Z</time>
      </trkpt>
      <trkpt lat="43.87752" lon="6.20919">
        <ele>937.8</ele>
        <time>2026-08-23T14:15:46.601Z</time>
      </trkpt>
      <trkpt lat="43.87748" lon="6.20915">
        <ele>938.1</ele>
        <time>2026-08-23T14:15:52.080Z</time>
      </trkpt>
      <trkpt lat="43.87744" lon="6.20911">
        <ele>938.1</ele>
        <time>2026-08-23T14:15:57.560Z</time>
      </trkpt>
      <trkpt lat="43.87737" lon="6.20905">
        <ele>938.4</ele>
        <time>2026-08-23T14:16:07.610Z</time>
      </trkpt>
      <trkpt lat="43.8773" lon="6.20898">
        <ele>938.4</ele>
        <time>2026-08-23T14:16:18.562Z</time>
      </trkpt>
      <trkpt lat="43.87723" lon="6.20891">
        <ele>938.4</ele>
        <time>2026-08-23T14:16:28.627Z</time>
      </trkpt>
      <trkpt lat="43.87719" lon="6.20889">
        <ele>938.7</ele>
        <time>2026-08-23T14:16:33.549Z</time>
      </trkpt>
      <trkpt lat="43.87714" lon="6.20887">
        <ele>939.4</ele>
        <time>2026-08-23T14:16:39.573Z</time>
      </trkpt>
      <trkpt lat="43.87707" lon="6.20884">
        <ele>940.3</ele>
        <time>2026-08-23T14:16:49.611Z</time>
      </trkpt>
      <trkpt lat="43.87699" lon="6.20881">
        <ele>941.7</ele>
        <time>2026-08-23T14:17:00.560Z</time>
      </trkpt>
      <trkpt lat="43.87695" lon="6.20878">
        <ele>942.3</ele>
        <time>2026-08-23T14:17:05.357Z</time>
      </trkpt>
      <trkpt lat="43.87691" lon="6.20874">
        <ele>943.2</ele>
        <time>2026-08-23T14:17:10.560Z</time>
      </trkpt>
      <trkpt lat="43.87689" lon="6.20864">
        <ele>942.7</ele>
        <time>2026-08-23T14:17:20.594Z</time>
      </trkpt>
      <trkpt lat="43.8769" lon="6.20858">
        <ele>941.9</ele>
        <time>2026-08-23T14:17:25.673Z</time>
      </trkpt>
      <trkpt lat="43.87691" lon="6.20851">
        <ele>941.4</ele>
        <time>2026-08-23T14:17:31.560Z</time>
      </trkpt>
      <trkpt lat="43.8769" lon="6.20845">
        <ele>941.8</ele>
        <time>2026-08-23T14:17:36.411Z</time>
      </trkpt>
      <trkpt lat="43.87688" lon="6.20839">
        <ele>942.6</ele>
        <time>2026-08-23T14:17:41.619Z</time>
      </trkpt>
      <trkpt lat="43.87684" lon="6.20835">
        <ele>944.2</ele>
        <time>2026-08-23T14:17:46.834Z</time>
      </trkpt>
      <trkpt lat="43.8768" lon="6.2083">
        <ele>945.5</ele>
        <time>2026-08-23T14:17:52.529Z</time>
      </trkpt>
      <trkpt lat="43.87676" lon="6.2082">
        <ele>946.3</ele>
        <time>2026-08-23T14:18:02.630Z</time>
      </trkpt>
      <trkpt lat="43.87674" lon="6.20808">
        <ele>946.1</ele>
        <time>2026-08-23T14:18:13.583Z</time>
      </trkpt>
      <trkpt lat="43.87671" lon="6.20803">
        <ele>946.8</ele>
        <time>2026-08-23T14:18:18.711Z</time>
      </trkpt>
      <trkpt lat="43.87668" lon="6.20797">
        <ele>947.7</ele>
        <time>2026-08-23T14:18:24.467Z</time>
      </trkpt>
      <trkpt lat="43.87662" lon="6.20788">
        <ele>949.4</ele>
        <time>2026-08-23T14:18:34.595Z</time>
      </trkpt>
      <trkpt lat="43.87658" lon="6.20785">
        <ele>950.5</ele>
        <time>2026-08-23T14:18:39.427Z</time>
      </trkpt>
      <trkpt lat="43.87653" lon="6.20781">
        <ele>951.7</ele>
        <time>2026-08-23T14:18:45.561Z</time>
      </trkpt>
      <trkpt lat="43.87649" lon="6.20771">
        <ele>952.5</ele>
        <time>2026-08-23T14:18:56.616Z</time>
      </trkpt>
      <trkpt lat="43.87645" lon="6.20761">
        <ele>953.3</ele>
        <time>2026-08-23T14:19:07.573Z</time>
      </trkpt>
      <trkpt lat="43.87641" lon="6.20751">
        <ele>953.7</ele>
        <time>2026-08-23T14:19:17.637Z</time>
      </trkpt>
      <trkpt lat="43.87638" lon="6.20747">
        <ele>954.4</ele>
        <time>2026-08-23T14:19:22.412Z</time>
      </trkpt>
      <trkpt lat="43.87634" lon="6.20742">
        <ele>955.5</ele>
        <time>2026-08-23T14:19:28.591Z</time>
      </trkpt>
      <trkpt lat="43.87631" lon="6.20737">
        <ele>956.2</ele>
        <time>2026-08-23T14:19:34.041Z</time>
      </trkpt>
      <trkpt lat="43.87628" lon="6.20732">
        <ele>956.8</ele>
        <time>2026-08-23T14:19:39.493Z</time>
      </trkpt>
      <trkpt lat="43.87625" lon="6.20726">
        <ele>957.1</ele>
        <time>2026-08-23T14:19:44.548Z</time>
      </trkpt>
      <trkpt lat="43.87622" lon="6.2072">
        <ele>957.5</ele>
        <time>2026-08-23T14:19:49.605Z</time>
      </trkpt>
      <trkpt lat="43.87615" lon="6.20713">
        <ele>958.5</ele>
        <time>2026-08-23T14:20:00.490Z</time>
      </trkpt>
      <trkpt lat="43.87614" lon="6.20712">
        <ele>958.7</ele>
        <time>2026-08-23T14:23:31.635Z</time>
      </trkpt>
      <trkpt lat="43.87609" lon="6.20712">
        <ele>959.2</ele>
        <time>2026-08-23T14:23:36.560Z</time>
      </trkpt>
      <trkpt lat="43.87603" lon="6.20711">
        <ele>959.6</ele>
        <time>2026-08-23T14:23:42.514Z</time>
      </trkpt>
      <trkpt lat="43.87595" lon="6.20707">
        <ele>960.1</ele>
        <time>2026-08-23T14:23:52.559Z</time>
      </trkpt>
      <trkpt lat="43.87592" lon="6.20703">
        <ele>960.1</ele>
        <time>2026-08-23T14:23:57.165Z</time>
      </trkpt>
      <trkpt lat="43.87588" lon="6.20699">
        <ele>960.1</ele>
        <time>2026-08-23T14:24:02.624Z</time>
      </trkpt>
      <trkpt lat="43.87587" lon="6.20693">
        <ele>959.7</ele>
        <time>2026-08-23T14:24:29.611Z</time>
      </trkpt>
      <trkpt lat="43.87583" lon="6.20688">
        <ele>959.3</ele>
        <time>2026-08-23T14:24:34.838Z</time>
      </trkpt>
      <trkpt lat="43.87579" lon="6.20682">
        <ele>958.8</ele>
        <time>2026-08-23T14:24:40.559Z</time>
      </trkpt>
      <trkpt lat="43.87575" lon="6.20674">
        <ele>957.7</ele>
        <time>2026-08-23T14:24:50.604Z</time>
      </trkpt>
      <trkpt lat="43.87572" lon="6.2067">
        <ele>957.1</ele>
        <time>2026-08-23T14:24:55.383Z</time>
      </trkpt>
      <trkpt lat="43.87568" lon="6.20665">
        <ele>956.3</ele>
        <time>2026-08-23T14:25:01.567Z</time>
      </trkpt>
      <trkpt lat="43.87564" lon="6.20665">
        <ele>956.1</ele>
        <time>2026-08-23T14:25:06.452Z</time>
      </trkpt>
      <trkpt lat="43.87559" lon="6.20665">
        <ele>955.9</ele>
        <time>2026-08-23T14:25:12.559Z</time>
      </trkpt>
      <trkpt lat="43.87555" lon="6.20662">
        <ele>955.3</ele>
        <time>2026-08-23T14:25:22.600Z</time>
      </trkpt>
      <trkpt lat="43.87551" lon="6.20659">
        <ele>954.8</ele>
        <time>2026-08-23T14:25:27.857Z</time>
      </trkpt>
      <trkpt lat="43.87547" lon="6.20655">
        <ele>953.9</ele>
        <time>2026-08-23T14:25:33.559Z</time>
      </trkpt>
      <trkpt lat="43.87543" lon="6.20655">
        <ele>953.8</ele>
        <time>2026-08-23T14:25:38.005Z</time>
      </trkpt>
      <trkpt lat="43.87538" lon="6.20654">
        <ele>953.3</ele>
        <time>2026-08-23T14:25:43.621Z</time>
      </trkpt>
      <trkpt lat="43.87534" lon="6.20651">
        <ele>952.4</ele>
        <time>2026-08-23T14:25:48.607Z</time>
      </trkpt>
      <trkpt lat="43.87529" lon="6.20648">
        <ele>951.4</ele>
        <time>2026-08-23T14:25:54.581Z</time>
      </trkpt>
      <trkpt lat="43.87525" lon="6.20645">
        <ele>950.4</ele>
        <time>2026-08-23T14:26:05.531Z</time>
      </trkpt>
      <trkpt lat="43.87522" lon="6.20639">
        <ele>948.8</ele>
        <time>2026-08-23T14:26:15.609Z</time>
      </trkpt>
      <trkpt lat="43.87518" lon="6.20633">
        <ele>947.6</ele>
        <time>2026-08-23T14:26:26.569Z</time>
      </trkpt>
      <trkpt lat="43.87513" lon="6.20626">
        <ele>945.9</ele>
        <time>2026-08-23T14:26:36.634Z</time>
      </trkpt>
      <trkpt lat="43.87508" lon="6.20616">
        <ele>943.2</ele>
        <time>2026-08-23T14:26:47.592Z</time>
      </trkpt>
      <trkpt lat="43.87503" lon="6.2061">
        <ele>941.2</ele>
        <time>2026-08-23T14:26:58.558Z</time>
      </trkpt>
      <trkpt lat="43.87499" lon="6.20606">
        <ele>940</ele>
        <time>2026-08-23T14:27:26.619Z</time>
      </trkpt>
      <trkpt lat="43.87493" lon="6.20602">
        <ele>938.5</ele>
        <time>2026-08-23T14:27:36.634Z</time>
      </trkpt>
      <trkpt lat="43.87485" lon="6.20606">
        <ele>938.4</ele>
        <time>2026-08-23T14:27:46.634Z</time>
      </trkpt>
      <trkpt lat="43.87481" lon="6.20604">
        <ele>937.5</ele>
        <time>2026-08-23T14:27:57.571Z</time>
      </trkpt>
      <trkpt lat="43.87473" lon="6.20599">
        <ele>935.5</ele>
        <time>2026-08-23T14:28:08.558Z</time>
      </trkpt>
      <trkpt lat="43.8747" lon="6.20594">
        <ele>934.2</ele>
        <time>2026-08-23T14:28:18.608Z</time>
      </trkpt>
      <trkpt lat="43.87468" lon="6.2059">
        <ele>933.3</ele>
        <time>2026-08-23T14:28:29.561Z</time>
      </trkpt>
      <trkpt lat="43.87462" lon="6.20584">
        <ele>931.8</ele>
        <time>2026-08-23T14:28:39.619Z</time>
      </trkpt>
      <trkpt lat="43.87458" lon="6.20581">
        <ele>931.2</ele>
        <time>2026-08-23T14:28:44.446Z</time>
      </trkpt>
      <trkpt lat="43.87453" lon="6.20577">
        <ele>930.5</ele>
        <time>2026-08-23T14:28:50.574Z</time>
      </trkpt>
      <trkpt lat="43.8745" lon="6.20573">
        <ele>929.9</ele>
        <time>2026-08-23T14:28:54.959Z</time>
      </trkpt>
      <trkpt lat="43.87446" lon="6.20568">
        <ele>928.9</ele>
        <time>2026-08-23T14:29:00.634Z</time>
      </trkpt>
      <trkpt lat="43.87442" lon="6.20564">
        <ele>928.1</ele>
        <time>2026-08-23T14:29:05.682Z</time>
      </trkpt>
      <trkpt lat="43.87437" lon="6.2056">
        <ele>927.1</ele>
        <time>2026-08-23T14:29:11.592Z</time>
      </trkpt>
      <trkpt lat="43.87432" lon="6.20557">
        <ele>926.3</ele>
        <time>2026-08-23T14:29:17.074Z</time>
      </trkpt>
      <trkpt lat="43.87427" lon="6.20554">
        <ele>925.6</ele>
        <time>2026-08-23T14:29:22.558Z</time>
      </trkpt>
      <trkpt lat="43.87423" lon="6.20543">
        <ele>923.9</ele>
        <time>2026-08-23T14:29:32.610Z</time>
      </trkpt>
      <trkpt lat="43.8742" lon="6.20539">
        <ele>923</ele>
        <time>2026-08-23T14:29:37.385Z</time>
      </trkpt>
      <trkpt lat="43.87416" lon="6.20534">
        <ele>921.8</ele>
        <time>2026-08-23T14:29:43.564Z</time>
      </trkpt>
      <trkpt lat="43.87411" lon="6.20531">
        <ele>921.1</ele>
        <time>2026-08-23T14:29:53.626Z</time>
      </trkpt>
      <trkpt lat="43.87408" lon="6.20526">
        <ele>920.3</ele>
        <time>2026-08-23T14:29:58.726Z</time>
      </trkpt>
      <trkpt lat="43.87404" lon="6.20521">
        <ele>919.6</ele>
        <time>2026-08-23T14:30:04.583Z</time>
      </trkpt>
      <trkpt lat="43.87397" lon="6.20515">
        <ele>918.5</ele>
        <time>2026-08-23T14:30:14.643Z</time>
      </trkpt>
      <trkpt lat="43.8739" lon="6.20511">
        <ele>917.3</ele>
        <time>2026-08-23T14:30:25.599Z</time>
      </trkpt>
      <trkpt lat="43.87386" lon="6.20507">
        <ele>916.5</ele>
        <time>2026-08-23T14:30:30.837Z</time>
      </trkpt>
      <trkpt lat="43.87382" lon="6.20502">
        <ele>915.7</ele>
        <time>2026-08-23T14:30:36.558Z</time>
      </trkpt>
      <trkpt lat="43.87376" lon="6.20495">
        <ele>914.8</ele>
        <time>2026-08-23T14:30:46.613Z</time>
      </trkpt>
      <trkpt lat="43.87374" lon="6.20489">
        <ele>914.3</ele>
        <time>2026-08-23T14:30:51.731Z</time>
      </trkpt>
      <trkpt lat="43.87372" lon="6.20482">
        <ele>913.7</ele>
        <time>2026-08-23T14:30:57.562Z</time>
      </trkpt>
      <trkpt lat="43.87375" lon="6.20476">
        <ele>913.7</ele>
        <time>2026-08-23T14:31:03.333Z</time>
      </trkpt>
      <trkpt lat="43.87377" lon="6.2047">
        <ele>913.7</ele>
        <time>2026-08-23T14:31:08.559Z</time>
      </trkpt>
      <trkpt lat="43.87375" lon="6.20464">
        <ele>913.4</ele>
        <time>2026-08-23T14:31:13.563Z</time>
      </trkpt>
      <trkpt lat="43.87373" lon="6.20458">
        <ele>913</ele>
        <time>2026-08-23T14:31:18.569Z</time>
      </trkpt>
      <trkpt lat="43.87369" lon="6.20447">
        <ele>912.2</ele>
        <time>2026-08-23T14:31:28.647Z</time>
      </trkpt>
      <trkpt lat="43.87366" lon="6.20437">
        <ele>911.5</ele>
        <time>2026-08-23T14:31:39.580Z</time>
      </trkpt>
      <trkpt lat="43.87359" lon="6.20432">
        <ele>910.5</ele>
        <time>2026-08-23T14:31:50.558Z</time>
      </trkpt>
      <trkpt lat="43.87357" lon="6.20426">
        <ele>910.1</ele>
        <time>2026-08-23T14:31:55.326Z</time>
      </trkpt>
      <trkpt lat="43.87354" lon="6.2042">
        <ele>909.7</ele>
        <time>2026-08-23T14:32:00.593Z</time>
      </trkpt>
      <trkpt lat="43.87355" lon="6.20411">
        <ele>909.3</ele>
        <time>2026-08-23T14:32:06.075Z</time>
      </trkpt>
      <trkpt lat="43.87356" lon="6.20402">
        <ele>908.9</ele>
        <time>2026-08-23T14:32:11.558Z</time>
      </trkpt>
      <trkpt lat="43.87356" lon="6.20392">
        <ele>908.4</ele>
        <time>2026-08-23T14:32:21.606Z</time>
      </trkpt>
      <trkpt lat="43.87356" lon="6.20386">
        <ele>908.1</ele>
        <time>2026-08-23T14:32:26.608Z</time>
      </trkpt>
      <trkpt lat="43.87355" lon="6.20379">
        <ele>907.7</ele>
        <time>2026-08-23T14:32:32.559Z</time>
      </trkpt>
      <trkpt lat="43.87353" lon="6.2037">
        <ele>907</ele>
        <time>2026-08-23T14:32:42.573Z</time>
      </trkpt>
      <trkpt lat="43.87352" lon="6.20362">
        <ele>906.4</ele>
        <time>2026-08-23T14:32:47.629Z</time>
      </trkpt>
      <trkpt lat="43.8735" lon="6.20353">
        <ele>905.6</ele>
        <time>2026-08-23T14:32:53.495Z</time>
      </trkpt>
      <trkpt lat="43.87352" lon="6.20343">
        <ele>905.5</ele>
        <time>2026-08-23T14:33:03.631Z</time>
      </trkpt>
      <trkpt lat="43.87352" lon="6.20336">
        <ele>905.2</ele>
        <time>2026-08-23T14:33:09.019Z</time>
      </trkpt>
      <trkpt lat="43.87351" lon="6.20329">
        <ele>904.5</ele>
        <time>2026-08-23T14:33:14.513Z</time>
      </trkpt>
      <trkpt lat="43.8735" lon="6.20318">
        <ele>903.5</ele>
        <time>2026-08-23T14:33:24.557Z</time>
      </trkpt>
      <trkpt lat="43.87349" lon="6.20312">
        <ele>902.8</ele>
        <time>2026-08-23T14:33:29.205Z</time>
      </trkpt>
      <trkpt lat="43.87348" lon="6.20305">
        <ele>902.1</ele>
        <time>2026-08-23T14:33:34.593Z</time>
      </trkpt>
      <trkpt lat="43.87347" lon="6.203">
        <ele>901.8</ele>
        <time>2026-08-23T14:33:45.557Z</time>
      </trkpt>
      <trkpt lat="43.87346" lon="6.20292">
        <ele>901.2</ele>
        <time>2026-08-23T14:34:30.587Z</time>
      </trkpt>
      <trkpt lat="43.87347" lon="6.20288">
        <ele>901.3</ele>
        <time>2026-08-23T14:34:41.557Z</time>
      </trkpt>
      <trkpt lat="43.87345" lon="6.20278">
        <ele>900.5</ele>
        <time>2026-08-23T14:34:51.596Z</time>
      </trkpt>
      <trkpt lat="43.8734" lon="6.2027">
        <ele>899.1</ele>
        <time>2026-08-23T14:35:02.614Z</time>
      </trkpt>
      <trkpt lat="43.87336" lon="6.20259">
        <ele>897.8</ele>
        <time>2026-08-23T14:35:12.615Z</time>
      </trkpt>
      <trkpt lat="43.87335" lon="6.20253">
        <ele>897.4</ele>
        <time>2026-08-23T14:35:17.545Z</time>
      </trkpt>
      <trkpt lat="43.87333" lon="6.20246">
        <ele>896.8</ele>
        <time>2026-08-23T14:35:23.575Z</time>
      </trkpt>
      <trkpt lat="43.87333" lon="6.20238">
        <ele>896.5</ele>
        <time>2026-08-23T14:35:29.025Z</time>
      </trkpt>
      <trkpt lat="43.87332" lon="6.2023">
        <ele>896</ele>
        <time>2026-08-23T14:35:34.557Z</time>
      </trkpt>
      <trkpt lat="43.87328" lon="6.20219">
        <ele>894.8</ele>
        <time>2026-08-23T14:35:44.596Z</time>
      </trkpt>
      <trkpt lat="43.87326" lon="6.20216">
        <ele>894.3</ele>
        <time>2026-08-23T14:35:55.557Z</time>
      </trkpt>
      <trkpt lat="43.87324" lon="6.20211">
        <ele>893.7</ele>
        <time>2026-08-23T14:36:05.557Z</time>
      </trkpt>
      <trkpt lat="43.87322" lon="6.20209">
        <ele>893.3</ele>
        <time>2026-08-23T14:36:15.565Z</time>
      </trkpt>
      <trkpt lat="43.87322" lon="6.20203">
        <ele>893.1</ele>
        <time>2026-08-23T14:36:32.565Z</time>
      </trkpt>
      <trkpt lat="43.87319" lon="6.20195">
        <ele>892.4</ele>
        <time>2026-08-23T14:36:37.850Z</time>
      </trkpt>
      <trkpt lat="43.87315" lon="6.20187">
        <ele>891.4</ele>
        <time>2026-08-23T14:36:43.557Z</time>
      </trkpt>
      <trkpt lat="43.87313" lon="6.2018">
        <ele>890.8</ele>
        <time>2026-08-23T14:36:48.107Z</time>
      </trkpt>
      <trkpt lat="43.8731" lon="6.20172">
        <ele>890</ele>
        <time>2026-08-23T14:36:53.557Z</time>
      </trkpt>
      <trkpt lat="43.87308" lon="6.20165">
        <ele>889.5</ele>
        <time>2026-08-23T14:36:58.556Z</time>
      </trkpt>
      <trkpt lat="43.87306" lon="6.20158">
        <ele>889.4</ele>
        <time>2026-08-23T14:37:03.557Z</time>
        <extensions>
          <visugpx:TrkExtension xmlns:visugpx="https://www.visugpx.com/editgpx/">
            <visugpx:node>1</visugpx:node>
            </visugpx:TrkExtension>
        </extensions>
      </trkpt>
    </trkseg>
  </trk>
</gpx>